[[{"header":{"parameterUnit":"m.s-1","parameterCategory":1,"la1":30.6,"la2":29.2853,"lo1":-89.7004,"lo2":-87.6739,"dy":0.0162,"dx":0.0183,"nx":112,"ny":82,"refTime":"2023-09-22T00:00:00:Z","depth":0,"parameterNumber":2,"parameterNumberName":"U-component_of_WINDS"},"data":[0.0,0.0,0.0,0.0,0.0,0.0,0.0,0.0,0.0,0.0,0.0,0.0,0.0,0.0,0.0,0.0,0.0,0.0,0.0,0.0,0.0,0.0,0.0,0.0,0.0,0.0,0.0,0.0,0.0,0.0,0.0,0.0,0.0,0.0,0.0,0.0,0.0,0.0,0.0,0.0,0.0,0.0,0.0,0.0,0.0,0.0,0.0,0.0,0.0,0.0,0.0,0.0,0.0,0.0,0.0,0.0,0.0,0.0,0.0,0.0,0.0,0.0,0.0,0.0,0.0,0.0,0.0,0.0,0.0,0.0,0.0,0.0,0.0,0.0,0.0,0.0,0.0,0.0,0.0,0.0,0.0,0.0,0.0,0.0,0.0,0.0,0.0,0.0,0.0,0.0,-3.6125,-3.5166,-3.3623,-3.1722,-2.9425,-2.8044,-2.5774,-2.2202,0.0,0.0,0.0,0.0,0.0,0.0,0.0,0.0,0.0,0.0,0.0,0.0,0.0,0.0,0.0,0.0,0.0,0.0,0.0,0.0,0.0,0.0,0.0,0.0,0.0,0.0,0.0,0.0,0.0,0.0,0.0,0.0,0.0,0.0,0.0,0.0,0.0,0.0,0.0,0.0,0.0,0.0,0.0,0.0,0.0,0.0,0.0,0.0,0.0,0.0,0.0,0.0,0.0,0.0,0.0,0.0,0.0,0.0,0.0,0.0,0.0,0.0,0.0,0.0,0.0,0.0,0.0,0.0,0.0,0.0,0.0,0.0,0.0,0.0,0.0,0.0,0.0,0.0,0.0,0.0,0.0,0.0,0.0,0.0,0.0,0.0,0.0,0.0,0.0,0.0,0.0,0.0,0.0,0.0,0.0,0.0,0.0,0.0,0.0,0.0,0.0,0.0,0.0,0.0,-3.3745,-3.3544,-3.2921,-3.1767,-2.9865,-2.8183,-2.5828,-2.2518,0.0,0.0,0.0,0.0,0.0,0.0,0.0,0.0,0.0,0.0,0.0,0.0,0.0,0.0,0.0,0.0,0.0,0.0,0.0,0.0,0.0,0.0,0.0,0.0,0.0,0.0,0.0,0.0,0.0,0.0,0.0,0.0,0.0,0.0,0.0,0.0,0.0,0.0,0.0,0.0,0.0,0.0,0.0,0.0,0.0,0.0,0.0,0.0,0.0,0.0,0.0,0.0,0.0,0.0,0.0,0.0,0.0,0.0,0.0,0.0,0.0,0.0,0.0,0.0,0.0,0.0,0.0,0.0,0.0,0.0,0.0,0.0,0.0,0.0,0.0,0.0,0.0,0.0,0.0,0.0,0.0,0.0,0.0,0.0,0.0,0.0,0.0,0.0,0.0,0.0,0.0,0.0,0.0,0.0,0.0,0.0,0.0,0.0,0.0,0.0,0.0,0.0,0.0,-3.3953,-3.336,-3.3305,-3.2825,-3.1662,-2.9599,-2.8274,-2.6058,-2.2604,-2.0621,0.0,0.0,0.0,0.0,0.0,0.0,0.0,0.0,0.0,0.0,0.0,0.0,0.0,0.0,0.0,0.0,0.0,0.0,0.0,0.0,0.0,0.0,0.0,0.0,0.0,0.0,0.0,0.0,0.0,0.0,0.0,0.0,0.0,0.0,0.0,0.0,0.0,0.0,0.0,0.0,0.0,0.0,0.0,0.0,0.0,0.0,0.0,0.0,0.0,0.0,0.0,0.0,0.0,0.0,0.0,0.0,0.0,0.0,0.0,0.0,0.0,0.0,0.0,0.0,0.0,0.0,0.0,0.0,0.0,0.0,0.0,0.0,0.0,0.0,0.0,0.0,0.0,0.0,0.0,0.0,0.0,0.0,0.0,0.0,0.0,0.0,0.0,0.0,0.0,0.0,0.0,0.0,0.0,0.0,0.0,0.0,0.0,0.0,0.0,0.0,0.0,0.0,-3.4838,-3.3978,-3.3336,-3.2801,-3.1647,-2.9505,-2.8192,-2.6121,-2.2831,-2.0765,0.0,0.0,0.0,0.0,0.0,0.0,0.0,0.0,0.0,0.0,0.0,0.0,0.0,0.0,0.0,0.0,0.0,0.0,0.0,0.0,0.0,0.0,0.0,0.0,0.0,0.0,0.0,0.0,0.0,0.0,0.0,0.0,0.0,0.0,0.0,0.0,0.0,0.0,0.0,0.0,0.0,0.0,0.0,0.0,0.0,0.0,0.0,0.0,0.0,0.0,0.0,0.0,0.0,0.0,0.0,0.0,0.0,0.0,0.0,0.0,0.0,0.0,0.0,0.0,0.0,0.0,0.0,0.0,0.0,0.0,0.0,0.0,0.0,0.0,0.0,0.0,0.0,0.0,0.0,0.0,0.0,0.0,0.0,0.0,0.0,0.0,0.0,0.0,0.0,0.0,0.0,0.0,0.0,0.0,0.0,0.0,0.0,0.0,0.0,0.0,0.0,0.0,-3.4733,-3.5477,-3.3099,-3.2629,-3.1827,-3.0172,-2.7933,-2.5646,-2.3458,-2.0466,0.0,0.0,0.0,0.0,0.0,0.0,0.0,0.0,0.0,0.0,0.0,0.0,0.0,0.0,0.0,0.0,0.0,0.0,0.0,0.0,0.0,0.0,0.0,0.0,0.0,0.0,0.0,0.0,0.0,0.0,0.0,0.0,0.0,0.0,0.0,0.0,0.0,0.0,0.0,0.0,0.0,0.0,0.0,0.0,0.0,0.0,0.0,0.0,0.0,0.0,0.0,0.0,0.0,0.0,0.0,0.0,0.0,0.0,0.0,0.0,0.0,0.0,0.0,0.0,0.0,0.0,0.0,0.0,0.0,0.0,0.0,0.0,0.0,0.0,0.0,0.0,0.0,0.0,0.0,0.0,0.0,0.0,0.0,0.0,0.0,0.0,0.0,0.0,0.0,0.0,0.0,0.0,0.0,0.0,0.0,0.0,0.0,0.0,0.0,0.0,0.0,0.0,-3.28,-3.3297,0.0,-3.1977,-3.1264,-3.0174,-2.824,-2.5896,-2.3199,0.0,0.0,0.0,0.0,0.0,0.0,0.0,0.0,0.0,0.0,0.0,0.0,0.0,0.0,0.0,0.0,0.0,0.0,0.0,0.0,0.0,0.0,0.0,0.0,0.0,0.0,0.0,0.0,0.0,0.0,0.0,0.0,0.0,0.0,0.0,0.0,0.0,0.0,0.0,0.0,0.0,0.0,0.0,0.0,0.0,0.0,0.0,0.0,0.0,0.0,0.0,0.0,0.0,0.0,0.0,0.0,0.0,0.0,0.0,0.0,0.0,0.0,0.0,0.0,0.0,0.0,0.0,0.0,0.0,0.0,0.0,0.0,0.0,0.0,0.0,0.0,0.0,0.0,0.0,0.0,0.0,0.0,0.0,0.0,0.0,0.0,0.0,0.0,0.0,0.0,0.0,0.0,0.0,0.0,0.0,0.0,0.0,0.0,0.0,0.0,0.0,0.0,-3.087,-3.1922,-3.2394,0.0,-3.1561,-3.0774,-2.9707,-2.7913,-2.5663,-2.2875,0.0,0.0,0.0,0.0,0.0,0.0,0.0,0.0,0.0,0.0,0.0,0.0,0.0,0.0,0.0,0.0,0.0,0.0,0.0,0.0,0.0,0.0,0.0,0.0,0.0,0.0,0.0,0.0,0.0,0.0,0.0,0.0,0.0,0.0,0.0,0.0,0.0,0.0,0.0,0.0,0.0,0.0,0.0,0.0,0.0,0.0,0.0,0.0,0.0,0.0,0.0,0.0,0.0,0.0,0.0,0.0,0.0,0.0,0.0,0.0,0.0,0.0,0.0,0.0,0.0,0.0,0.0,0.0,0.0,0.0,0.0,0.0,0.0,0.0,0.0,0.0,0.0,0.0,0.0,0.0,0.0,0.0,0.0,0.0,0.0,0.0,0.0,0.0,0.0,0.0,0.0,0.0,0.0,0.0,0.0,0.0,0.0,0.0,0.0,0.0,0.0,0.0,-3.0294,-3.2516,-3.3508,-3.1961,-3.1424,-3.0485,-2.8765,-2.6846,-2.4778,0.0,0.0,0.0,0.0,0.0,0.0,0.0,0.0,0.0,0.0,0.0,0.0,0.0,0.0,0.0,0.0,0.0,0.0,0.0,0.0,0.0,0.0,0.0,0.0,0.0,0.0,0.0,0.0,0.0,0.0,0.0,0.0,0.0,0.0,0.0,0.0,0.0,0.0,0.0,0.0,0.0,0.0,0.0,0.0,0.0,0.0,0.0,0.0,0.0,0.0,0.0,0.0,0.0,0.0,0.0,0.0,0.0,0.0,0.0,0.0,0.0,0.0,0.0,0.0,0.0,0.0,0.0,0.0,0.0,0.0,0.0,0.0,0.0,0.0,0.0,0.0,0.0,0.0,0.0,0.0,0.0,0.0,0.0,0.0,0.0,0.0,0.0,0.0,0.0,0.0,0.0,0.0,0.0,0.0,0.0,0.0,0.0,0.0,0.0,0.0,0.0,0.0,0.0,-3.0086,-3.185,-3.2695,-3.1773,-3.0754,-2.9826,-2.9029,-2.7426,-2.5286,-2.2466,0.0,0.0,0.0,0.0,0.0,0.0,0.0,0.0,0.0,0.0,0.0,0.0,0.0,0.0,0.0,0.0,0.0,0.0,0.0,0.0,0.0,0.0,0.0,0.0,0.0,0.0,0.0,0.0,0.0,0.0,0.0,0.0,0.0,0.0,0.0,0.0,0.0,0.0,0.0,0.0,0.0,0.0,0.0,0.0,0.0,0.0,0.0,0.0,0.0,0.0,0.0,0.0,0.0,0.0,0.0,0.0,0.0,0.0,0.0,0.0,0.0,0.0,0.0,0.0,0.0,0.0,0.0,0.0,0.0,0.0,0.0,0.0,0.0,0.0,0.0,0.0,0.0,0.0,0.0,0.0,0.0,0.0,0.0,0.0,0.0,0.0,0.0,0.0,0.0,0.0,0.0,0.0,0.0,0.0,0.0,0.0,0.0,0.0,0.0,0.0,0.0,0.0,-2.9741,-3.1212,-3.1881,-3.1101,-3.0135,-2.9279,-2.8495,-2.7438,-2.5565,-2.2579,0.0,0.0,0.0,0.0,0.0,0.0,0.0,0.0,0.0,0.0,0.0,0.0,0.0,0.0,0.0,0.0,0.0,0.0,0.0,0.0,0.0,0.0,0.0,0.0,0.0,0.0,0.0,0.0,0.0,0.0,0.0,0.0,0.0,0.0,0.0,0.0,0.0,0.0,0.0,0.0,0.0,0.0,0.0,0.0,0.0,0.0,0.0,0.0,0.0,0.0,0.0,0.0,0.0,0.0,0.0,0.0,0.0,0.0,0.0,0.0,0.0,0.0,0.0,0.0,0.0,0.0,0.0,0.0,0.0,0.0,0.0,0.0,0.0,0.0,0.0,0.0,0.0,0.0,0.0,0.0,0.0,0.0,0.0,0.0,0.0,0.0,0.0,0.0,0.0,0.0,0.0,0.0,0.0,0.0,0.0,0.0,0.0,0.0,0.0,0.0,0.0,0.0,-2.935,-3.0699,-3.1158,-3.022,-2.9659,-2.8853,-2.7558,-2.7137,-2.5781,-2.3025,0.0,0.0,0.0,0.0,0.0,0.0,0.0,0.0,0.0,0.0,0.0,0.0,0.0,0.0,0.0,0.0,0.0,0.0,0.0,0.0,0.0,0.0,0.0,0.0,0.0,0.0,0.0,0.0,0.0,0.0,0.0,0.0,0.0,0.0,0.0,0.0,0.0,0.0,0.0,0.0,0.0,0.0,0.0,0.0,0.0,0.0,0.0,0.0,0.0,0.0,0.0,0.0,0.0,0.0,0.0,0.0,0.0,0.0,0.0,0.0,-3.8845,0.0,0.0,0.0,0.0,0.0,0.0,0.0,0.0,0.0,0.0,0.0,0.0,0.0,0.0,0.0,0.0,0.0,0.0,0.0,0.0,0.0,0.0,0.0,0.0,0.0,0.0,0.0,0.0,0.0,0.0,0.0,0.0,0.0,0.0,0.0,0.0,0.0,0.0,0.0,0.0,0.0,-2.9436,-3.0408,-3.0858,-3.0307,-2.9501,-2.8682,-2.7854,-2.7595,-2.6468,-2.417,-2.3297,0.0,0.0,0.0,0.0,0.0,0.0,0.0,0.0,0.0,0.0,0.0,0.0,0.0,0.0,0.0,0.0,0.0,0.0,0.0,0.0,0.0,0.0,0.0,0.0,0.0,0.0,0.0,0.0,0.0,0.0,0.0,0.0,0.0,0.0,0.0,0.0,0.0,0.0,0.0,0.0,0.0,0.0,0.0,0.0,0.0,0.0,0.0,0.0,0.0,0.0,0.0,0.0,0.0,0.0,0.0,0.0,0.0,0.0,0.0,0.0,-4.0106,0.0,0.0,0.0,0.0,0.0,0.0,0.0,0.0,0.0,0.0,0.0,0.0,0.0,0.0,0.0,0.0,0.0,0.0,0.0,0.0,0.0,0.0,0.0,0.0,0.0,0.0,0.0,0.0,0.0,0.0,0.0,0.0,0.0,0.0,0.0,0.0,0.0,0.0,0.0,0.0,-2.9099,-3.0017,-3.0363,-2.9714,-2.9266,-2.86,-2.7609,-2.7752,-2.7061,-2.5199,-2.4465,0.0,0.0,0.0,0.0,0.0,0.0,0.0,0.0,0.0,0.0,0.0,0.0,0.0,0.0,0.0,0.0,0.0,0.0,0.0,0.0,0.0,0.0,0.0,0.0,0.0,0.0,0.0,0.0,0.0,0.0,0.0,0.0,0.0,0.0,0.0,0.0,0.0,0.0,0.0,0.0,0.0,0.0,0.0,0.0,0.0,0.0,0.0,0.0,0.0,0.0,0.0,0.0,0.0,0.0,-4.6592,-4.5737,-4.6305,-4.6125,-4.526,-4.4143,-4.3243,-4.2557,0.0,0.0,0.0,0.0,0.0,0.0,0.0,0.0,0.0,0.0,0.0,0.0,0.0,0.0,0.0,0.0,0.0,0.0,0.0,0.0,0.0,0.0,0.0,0.0,0.0,-3.8329,-3.8414,0.0,0.0,0.0,0.0,0.0,0.0,0.0,0.0,0.0,0.0,0.0,0.0,-2.8602,-2.9618,-2.9852,-2.8862,-2.8828,-2.8399,-2.7164,-2.7609,-2.7343,-2.5943,-2.5311,-2.4281,0.0,0.0,0.0,0.0,0.0,0.0,0.0,0.0,0.0,0.0,0.0,0.0,0.0,0.0,0.0,0.0,0.0,0.0,0.0,0.0,0.0,0.0,0.0,0.0,0.0,0.0,0.0,0.0,0.0,0.0,0.0,0.0,-3.6626,-3.7578,0.0,0.0,0.0,0.0,0.0,0.0,0.0,0.0,0.0,0.0,0.0,0.0,0.0,0.0,-4.5951,-4.7636,-4.8035,-4.7204,-4.9527,-5.0166,-4.9316,-4.9285,-4.9188,-4.895,-4.7915,0.0,-4.3662,-4.3464,0.0,0.0,0.0,0.0,0.0,0.0,0.0,0.0,0.0,0.0,0.0,0.0,0.0,0.0,0.0,0.0,0.0,0.0,0.0,0.0,0.0,0.0,-4.0095,-4.0441,-4.0879,-4.099,0.0,-3.7487,-3.4645,-3.2887,0.0,0.0,0.0,0.0,0.0,0.0,0.0,0.0,-2.8133,-2.9151,-2.9504,-2.8326,-2.8062,-2.7724,-2.707,-2.6951,-2.6655,-2.6084,-2.5083,-2.4435,-2.4297,-2.2505,0.0,0.0,0.0,0.0,0.0,0.0,0.0,0.0,0.0,0.0,0.0,0.0,0.0,0.0,0.0,0.0,0.0,0.0,0.0,0.0,0.0,0.0,0.0,0.0,0.0,0.0,0.0,0.0,0.0,-3.706,-3.8378,-3.8814,-3.9309,-3.929,0.0,0.0,0.0,0.0,0.0,0.0,0.0,0.0,0.0,-4.6903,-4.7884,-4.8411,-4.8448,-4.9648,-5.0074,-4.9711,-5.0816,-5.1132,-5.07,-5.0116,-4.9813,-4.9666,-4.8198,-4.7094,-4.6254,-4.5532,-4.4896,-4.4254,0.0,0.0,0.0,0.0,0.0,-4.3465,-4.465,0.0,0.0,0.0,0.0,0.0,0.0,0.0,0.0,0.0,0.0,0.0,0.0,0.0,0.0,-4.0076,-4.0833,-4.1373,-4.0675,-3.9299,-3.7397,0.0,-3.3766,-3.2074,-2.8275,0.0,0.0,0.0,0.0,0.0,-2.8083,-2.8898,-2.909,-2.8,-2.802,-2.7715,-2.6638,-2.6735,-2.6689,-2.6244,-2.5675,-2.5144,-2.4631,-2.357,-2.2727,0.0,0.0,0.0,0.0,0.0,0.0,0.0,0.0,0.0,0.0,0.0,0.0,0.0,0.0,0.0,0.0,0.0,0.0,0.0,0.0,0.0,0.0,0.0,0.0,0.0,0.0,0.0,0.0,-3.8792,-3.995,-4.0041,-4.0814,-4.0932,0.0,0.0,0.0,0.0,0.0,0.0,-4.4549,-4.6839,-4.8256,-4.8491,-4.9974,-5.0658,-5.0438,-5.1307,-5.162,-5.1394,-5.1394,-5.1249,-5.094,-5.0246,-4.9764,-4.9413,-4.7824,-4.7564,-4.8155,-4.703,-4.659,-4.6522,-4.5723,-4.5243,-4.5113,-4.5847,-4.5959,-4.588,-4.7034,-4.6906,-4.6002,-4.4714,0.0,-4.2147,-4.0025,0.0,0.0,0.0,0.0,-3.9294,-3.9163,0.0,-3.9881,-3.9692,-4.0456,-4.1088,-4.0418,-4.0059,-3.9048,0.0,-3.5535,-3.3984,-2.9721,0.0,0.0,0.0,0.0,-2.8556,-2.7962,-2.8528,-2.8578,-2.7534,-2.7688,-2.7361,-2.6142,-2.6343,-2.6351,-2.5985,-2.581,-2.5429,-2.4769,-2.4373,-2.383,-2.3141,0.0,0.0,0.0,0.0,0.0,0.0,0.0,0.0,0.0,0.0,0.0,0.0,0.0,0.0,0.0,0.0,0.0,0.0,0.0,0.0,0.0,0.0,0.0,0.0,0.0,0.0,0.0,0.0,0.0,-4.1762,-4.2543,0.0,0.0,0.0,0.0,-4.1994,-4.3729,-4.5456,-4.7128,-4.8892,-5.029,-5.1174,-5.2091,-5.2171,-5.134,-5.2203,-5.2226,-5.1398,-5.1403,-5.0928,-5.0066,-5.0022,-4.9512,-4.8608,-4.7695,-4.7701,-4.8311,-4.7239,-4.7122,-4.7602,-4.7426,-4.7199,-4.7038,-4.7777,-4.7894,-4.7671,-4.7746,-4.7243,-4.6522,-4.6248,-4.4467,-4.2265,-4.1498,-4.0652,0.0,0.0,-4.0486,-4.1027,-4.083,-4.0815,-4.0766,-4.0578,-4.058,-4.0635,-4.051,-3.9384,-3.8072,0.0,-3.6061,-3.4665,-3.2058,0.0,-3.0759,-2.894,-2.9266,-2.9152,-2.7539,-2.7941,-2.7912,-2.6775,-2.6501,-2.6199,-2.5683,-2.5358,-2.5159,-2.5076,-2.482,-2.4792,-2.5063,-2.4454,-2.4581,-2.559,-2.3666,0.0,0.0,0.0,0.0,0.0,0.0,0.0,0.0,0.0,0.0,0.0,0.0,0.0,0.0,0.0,0.0,0.0,0.0,0.0,0.0,0.0,0.0,0.0,0.0,0.0,0.0,0.0,0.0,-4.3371,-4.3755,0.0,-4.3239,-4.3221,-4.3406,-4.3784,-4.5428,-4.6946,-4.8174,-4.9356,-5.04,-5.1307,-5.1686,-5.1978,-5.2225,-5.1986,-5.1992,-5.2225,-5.1101,-5.0381,-5.003,-4.8893,-4.8207,-4.7838,-4.6882,-4.6909,-4.7585,-4.7179,-4.7681,-4.876,-4.914,-4.9157,-4.8991,-4.9169,-4.9059,-4.8824,-4.8824,-4.7913,-4.6542,-4.5435,-4.4358,-4.3454,-4.3225,-4.2835,-4.2393,-4.1875,-4.1852,-4.1721,-4.0609,-4.0288,-3.9965,-3.8807,-3.8969,-3.9077,-3.8021,-3.7778,-3.7372,-3.5918,-3.5293,-3.4359,-3.2401,-3.178,-3.0956,-2.9136,-2.8885,-2.8501,-2.7435,-2.7394,-2.7298,-2.6843,-2.664,-2.6348,-2.5842,-2.5605,-2.5419,-2.5278,-2.5048,-2.4981,-2.5111,-2.4836,-2.4802,-2.5016,-2.4302,-2.3758,0.0,0.0,0.0,0.0,0.0,0.0,0.0,0.0,0.0,0.0,0.0,0.0,0.0,0.0,0.0,0.0,0.0,0.0,0.0,0.0,0.0,0.0,0.0,0.0,0.0,0.0,-4.3589,-4.4224,-4.4595,-4.4847,-4.4926,-4.4975,-4.5157,-4.5511,-4.6901,-4.8005,-4.8638,-4.9787,-5.07,-5.1284,-5.1634,-5.195,-5.2253,-5.1978,-5.1833,-5.1816,-5.0641,-4.9792,-4.9189,-4.8025,-4.733,-4.7014,-4.6355,-4.6328,-4.6806,-4.7043,-4.7874,-4.9057,-4.9703,-5.0018,-5.0038,-4.9912,-4.9731,-4.9446,-4.8867,-4.7698,-4.6236,-4.4899,-4.435,-4.4192,-4.3863,-4.37,-4.3444,-4.2569,-4.2239,-4.1812,-4.0403,-3.982,-3.9252,-3.7857,-3.7757,-3.769,-3.6634,-3.6602,-3.6385,-3.4994,-3.4708,-3.4138,-3.2405,-3.1826,-3.0985,-2.9195,-2.8673,-2.8205,-2.7494,-2.7185,-2.699,-2.6892,-2.6708,-2.6401,-2.5936,-2.5752,-2.5621,-2.547,-2.5336,-2.5243,-2.5188,-2.5224,-2.5238,-2.5237,-2.5084,-2.4775,-2.4312,0.0,0.0,0.0,0.0,0.0,0.0,0.0,0.0,0.0,0.0,0.0,0.0,0.0,0.0,0.0,0.0,0.0,0.0,0.0,0.0,0.0,0.0,0.0,-4.2792,-4.3529,-4.4125,-4.435,-4.5096,-4.5662,-4.5824,-4.5838,-4.6221,-4.7139,-4.8054,-4.8619,-4.8638,-5.0296,-5.1276,-5.1296,-5.2118,-5.2191,-5.1392,-5.2214,-5.1764,-5.0098,-5.0058,-4.9137,-4.749,-4.7471,-4.6999,-4.6199,-4.6199,-4.6134,-4.606,-4.6832,-4.763,-4.8435,-4.9067,-4.968,-5.0188,-5.007,-4.9906,-4.9542,-4.781,-4.659,-4.5636,-4.4831,-4.4527,-4.4294,-4.3362,-4.3091,-4.2885,-4.1853,-4.1557,-4.1304,-4.0285,-3.9486,-3.8729,-3.7919,-3.714,-3.6549,-3.6512,-3.588,-3.5101,-3.4284,-3.4389,-3.4014,-3.2202,-3.1696,-3.0949,-2.9256,-2.8765,0.0,-2.7674,-2.7308,-2.7021,-2.6841,-2.6573,-2.6278,-2.5952,-2.5731,-2.5616,-2.5584,-2.5584,-2.5511,-2.5384,-2.5575,-2.5935,-2.6466,-2.6056,-2.5793,-2.5701,0.0,0.0,0.0,0.0,0.0,0.0,0.0,0.0,0.0,0.0,0.0,0.0,0.0,0.0,0.0,0.0,0.0,0.0,0.0,0.0,0.0,0.0,-4.2428,-4.339,-4.4327,-4.5184,-4.5819,-4.5688,-4.578,-4.6455,-4.6606,-4.6793,-4.7105,-4.7947,-4.878,-4.9493,-5.0006,-5.0563,-5.121,-5.1503,-5.1557,-5.1333,-5.0991,-5.0564,-5.0089,-4.8866,-4.8046,-4.7552,-4.6919,-4.6491,-4.6267,-4.6228,-4.618,-4.6158,-4.6275,-4.6795,-4.7648,-4.8887,-4.9796,-5.0393,-5.0267,-4.9752,-4.8979,-4.7814,-4.6424,-4.501,-4.4208,-4.3882,-4.3628,-4.2768,-4.2848,-4.2935,-4.1443,-4.0493,-3.9713,-3.8813,-3.8003,-3.7179,-3.634,-3.6044,-3.5625,-3.4449,-3.4031,-3.3616,-3.2705,-3.249,-3.2234,-3.1581,-3.0684,-2.9883,-2.9296,0.0,0.0,-2.7619,-2.7308,-2.7054,-2.6957,-2.6657,-2.638,-2.6132,-2.6059,-2.5739,0.0,-2.5022,-2.4987,-2.4969,-2.5023,-2.5386,-2.6106,-2.6395,-2.626,0.0,0.0,0.0,0.0,0.0,0.0,0.0,0.0,0.0,0.0,0.0,0.0,0.0,0.0,0.0,0.0,0.0,0.0,0.0,0.0,0.0,0.0,-4.2002,-4.3149,-4.3571,-4.4209,-4.496,-4.5857,-4.5647,-4.5793,-4.675,-4.6581,-4.6606,-4.7066,-4.7903,-4.8508,-4.8753,-4.9481,-5.0137,-5.0646,-5.0718,-5.0926,-5.13,-5.0854,-5.0276,-4.9549,-4.8567,-4.7734,-4.703,-4.654,-4.6295,0.0,-4.6233,-4.6209,-4.6192,-4.6117,-4.6532,0.0,0.0,0.0,0.0,0.0,-4.938,-4.8706,-4.7483,-4.6371,-4.5321,-4.4121,-4.3907,-4.3837,-4.2302,-4.2082,-4.2015,-4.0321,-3.9133,-3.8265,-3.7717,-3.6994,-3.63,-3.5778,-3.5211,-3.4526,-3.3598,-3.2808,-3.2025,-3.1148,0.0,0.0,-2.9474,-2.9479,-2.9444,-2.9038,-2.8337,-2.7864,0.0,-2.7448,-2.7135,-2.7087,-2.6674,-2.6346,-2.6203,-2.6202,0.0,0.0,0.0,-2.5418,-2.5399,-2.5399,0.0,0.0,0.0,-2.709,0.0,0.0,0.0,0.0,-2.9142,-2.9166,0.0,0.0,0.0,0.0,0.0,0.0,0.0,0.0,0.0,0.0,0.0,0.0,0.0,0.0,0.0,0.0,-4.2427,-4.3774,-4.3292,-4.3309,-4.3786,-4.49,-4.5091,-4.5522,-4.6473,-4.6058,-4.61,-4.7013,-4.7897,-4.8085,-4.7366,0.0,0.0,0.0,0.0,-5.022,-5.1004,-5.106,-5.0313,-4.8796,-4.8708,-4.7921,-4.6582,-4.6387,-4.6345,-4.644,-4.6275,-4.6209,-4.6206,-4.6201,-4.6575,-4.7165,-4.7215,-4.8053,-4.9221,-4.8969,-4.8774,0.0,0.0,0.0,0.0,-4.4325,-4.43,-4.4414,-4.1974,-4.1165,-4.0723,-3.889,-3.7653,-3.6832,-3.6652,-3.6065,-3.5528,-3.5507,-3.4418,-3.3355,-3.3251,-3.1959,-3.0547,-2.9738,-2.8634,-2.7622,-2.6873,-2.825,-2.9217,-2.8487,-2.8246,0.0,-2.8043,-2.756,-2.7178,-2.7093,0.0,0.0,-2.624,-2.619,-2.6123,-2.6105,-2.6178,-2.6161,-2.6105,-2.6206,-2.6276,-2.6313,-2.7171,-2.8002,-2.8789,-2.9769,-3.0468,-3.0855,-2.9702,-2.9682,0.0,0.0,0.0,0.0,0.0,0.0,0.0,0.0,0.0,0.0,0.0,0.0,0.0,0.0,0.0,-4.0178,-4.0736,-4.1371,-4.1941,-4.164,-4.202,-4.3782,-4.4057,-4.4206,-4.4536,-4.5716,-4.6599,-4.6919,-4.78,-4.8292,-4.8181,-4.8541,0.0,-4.8848,-4.8865,-4.8973,-4.9192,-4.9216,-4.9078,-4.8786,0.0,0.0,-4.8276,-4.6912,-4.6679,-4.7314,-4.6585,-4.6278,-4.6272,-4.6213,-4.6223,-4.6374,-4.7594,-4.8191,-4.8337,-4.8161,-4.7656,-4.698,-4.6612,-4.5557,-4.4353,-4.4041,-4.4026,-4.377,-4.1918,-4.1284,0.0,-3.834,-3.6594,-3.5239,-3.446,-3.3743,-3.321,-3.3034,-3.2845,-3.2501,-3.1793,-3.0832,-2.9842,-2.8979,-2.7462,-2.6473,-2.6941,-2.7598,-2.7977,-2.7664,-2.807,-2.8089,-2.7192,-2.7192,-2.7032,-2.6385,-2.5828,-2.5782,-2.6539,-2.6051,-2.5664,-2.5547,-2.5614,-2.5581,-2.5413,-2.6168,-2.6521,-2.6383,-2.7242,-2.7803,-2.801,-2.8862,-2.9395,-2.9656,-3.0779,-3.1385,0.0,0.0,0.0,0.0,0.0,0.0,0.0,0.0,0.0,0.0,0.0,-3.7323,0.0,0.0,-3.9813,-3.9843,-4.0382,-4.0826,-4.0896,-4.0719,-4.117,-4.2718,-4.3405,-4.3791,-4.3884,-4.5175,-4.6052,-4.6148,-4.6649,-4.6973,-4.7055,-4.711,-4.7385,-4.7882,-4.793,-4.818,-4.8643,-4.8673,-4.8502,-4.8148,-4.7706,-4.753,-4.7523,-4.6671,-4.6542,-4.6932,-4.6499,-4.6294,-4.629,-4.6222,-4.615,-4.6124,-4.686,-4.7313,-4.754,-4.747,-4.7127,-4.6636,-4.6157,-4.5408,-4.4583,-4.4221,-4.4332,-4.4221,-4.2173,-4.114,-4.0143,-3.7689,-3.5766,-3.4248,-3.3386,-3.2904,-3.2613,-3.2518,-3.2224,-3.17,-3.0836,-2.9622,-2.8324,-2.7058,-2.5721,-2.4776,-2.4719,-2.5561,-2.654,-2.7417,-2.7822,-2.7859,-2.7455,-2.7496,-2.7365,-2.6851,-2.6441,-2.64,-2.6906,-2.6566,-2.6192,-2.5817,-2.5766,-2.567,-2.551,-2.5979,-2.6336,-2.6487,-2.7418,-2.7964,-2.81,-2.8991,-2.9472,-2.9608,-3.0626,-3.1236,0.0,0.0,0.0,0.0,0.0,0.0,0.0,0.0,-3.5811,-3.7255,-3.7292,-3.7595,-3.9409,-3.9604,-3.943,-3.9319,-4.0061,-4.0452,-3.985,-3.9978,-4.0449,-4.1365,-4.2467,-4.3159,-4.3247,-4.4179,-4.4781,-4.4844,-4.4986,-4.5103,-4.5167,-4.5259,-4.5722,-4.6647,-4.6745,-4.72,-4.8078,-4.8317,-4.8109,-4.7474,-4.7482,-4.7255,-4.6761,-4.6441,-4.6397,-4.6523,-4.6367,-4.6301,-4.6303,-4.6242,-4.6183,-4.6115,-4.6056,-4.6348,-4.6803,-4.6773,-4.6686,-4.6445,-4.5571,-4.5342,-4.5276,-4.447,-4.4604,-4.466,-4.2382,-4.0864,-3.9357,-3.6769,-3.4909,-3.3451,-3.247,-3.2217,-3.2217,-3.221,-3.1672,-3.0924,-3.0066,-2.8644,-2.7079,-2.5571,-2.4309,-2.3303,-2.2697,-2.3577,-2.4976,-2.6798,-2.7207,-2.7333,-2.7362,-2.7338,-2.7177,-2.6835,-2.6726,-2.6771,-2.702,-2.7128,-2.6918,-2.6294,-2.6177,-2.5971,-2.5668,-2.5838,-2.6104,-2.6455,-2.7402,-2.7927,-2.7984,-2.8894,-2.932,-2.929,-2.9792,-3.0388,-3.3728,-3.3069,-3.3169,-3.4583,-3.4357,-3.4341,0.0,0.0,-3.601,-3.6892,-3.7717,-3.8191,-3.7804,-3.8456,-3.8869,-3.8288,-3.8469,-3.8684,-3.8608,-3.8872,-3.912,-3.9238,-4.0371,-4.1174,-4.1288,-4.2231,-4.2827,-4.2921,-4.3092,-4.3239,-4.3302,-4.3432,-4.39,-4.4778,-4.4873,-4.5331,-4.6189,-4.7035,-4.7442,-4.741,-4.7474,-4.7853,-4.8476,-4.6973,-4.6697,-4.7331,-4.6601,-4.6305,-4.6299,-4.6284,-4.6255,-4.6196,-4.6176,-4.6147,-4.6094,-4.5981,-4.5857,-4.5605,-4.4741,-4.4861,-4.5276,-4.446,-4.4268,-4.3982,-4.2237,-4.0532,-3.8531,-3.5289,-3.3671,-3.2539,-3.0903,-3.0521,-3.0554,-3.0501,-3.0411,-3.0105,-2.9308,-2.8357,-2.7408,-2.6508,-2.4377,-2.2922,-2.3539,-2.315,-2.3212,-2.4576,-2.5869,-2.6301,-2.5213,-2.5375,-2.5244,-2.4389,-2.4795,-2.5515,-2.6405,-2.7083,-2.7163,-2.6506,-2.6511,-2.6125,-2.5212,-2.5976,-2.6276,-2.5981,-2.678,-2.6992,-2.6549,-2.7298,-2.7454,-2.7091,-2.8431,-2.955,-3.2598,-3.2838,-3.3481,-3.4142,-3.4679,-3.5315,-3.629,-3.631,-3.6331,-3.7175,-3.737,-3.7319,-3.7083,-3.7565,-3.7772,0.0,-3.7575,-3.7959,-3.7487,-3.769,-3.7741,-3.7261,-3.785,-3.8941,-4.0603,-4.1705,-4.234,-4.2375,-4.2108,-4.2202,-4.2747,-4.2454,-4.267,-4.3533,-4.3674,-4.4153,-4.5012,-4.5499,-4.6005,-4.6535,-4.6634,-4.689,-4.7213,-4.6543,-4.6165,-4.6007,-4.5152,-4.5078,-4.5546,-4.5538,-4.5833,-4.6199,-4.5649,-4.5383,-4.5298,-4.5243,-4.5137,-4.4877,-4.4025,-4.3902,-4.4058,-4.3723,-4.3247,-4.2599,-4.1412,-3.95,-3.7209,-3.4839,-3.3179,-3.1872,-3.0599,-3.0273,-3.0292,-3.0254,-2.987,-2.9283,-2.8485,-2.7611,-2.6615,-2.5302,-2.4166,-2.3355,-2.3144,-2.3245,-2.3337,-2.3246,-2.4833,-2.5882,-2.5508,-2.6061,-2.6454,-2.6413,-2.6616,-2.6922,-2.7302,-2.7593,-2.7253,-2.6162,-2.6078,-2.5659,-2.4717,-2.5073,-2.5341,-2.5422,-2.5836,-2.5909,-2.5657,-2.6042,-2.6355,-2.6602,-2.7349,-2.8082,-3.1512,-3.2193,-3.2984,-3.324,-3.414,-3.5011,-3.5237,-3.5523,-3.5955,-3.659,-3.6412,-3.6177,-3.6281,-3.6578,-3.6634,-3.6107,-3.6987,-3.747,-3.6716,-3.6877,-3.678,-3.6009,-3.6186,-3.7137,-3.9166,-4.0189,-4.0828,-4.1066,-4.0741,-4.091,-4.1787,-4.1418,-4.1589,-4.2469,-4.262,-4.3107,-4.3986,-4.4134,-4.4537,-4.5164,-4.5292,-4.5361,-4.5361,-4.5418,-4.5153,-4.4582,-4.3964,-4.4054,-4.4645,-4.4648,-4.5012,-4.5527,-4.4825,-4.4529,-4.4402,-4.3936,-4.3809,-4.3757,-4.2905,-4.2563,-4.2477,-4.2256,-4.1719,-4.0969,-4.0169,-3.8278,-3.6035,-3.4359,-3.2811,-3.1484,-3.0565,-3.0149,-2.999,-2.9941,-2.9289,-2.844,-2.7627,-2.6956,-2.608,-2.4633,-2.3981,-2.352,-2.3073,-2.3174,-2.3111,-2.2537,-2.3746,-2.4754,-2.484,-2.5466,-2.6223,-2.7108,-2.7112,-2.7203,-2.7628,-2.7374,-2.6798,-2.5864,-2.5529,-2.5004,-2.4199,-2.4364,-2.4584,-2.4872,-2.5164,-2.5164,-2.4858,-2.5219,-2.554,-2.5883,-2.6409,-2.6944,-3.0645,-3.0658,-3.0933,-3.1834,-3.2093,-3.2312,-3.3038,-3.3847,-3.4452,-3.4491,-3.4746,-3.4962,-3.5032,-3.5322,-3.5601,-3.5776,-3.6653,-3.7125,-3.6488,-3.6591,-3.6456,-3.5796,-3.5887,-3.6083,0.0,-3.674,-3.7417,-3.8253,-3.8493,-3.8976,-3.9853,-4.0053,-4.0528,-4.1417,-4.1569,-4.2052,-4.2944,-4.3138,-4.326,-4.3279,-4.3421,-4.3485,-4.3485,-4.3553,-4.3607,-4.3638,-4.3684,-4.3718,-4.3748,-4.3746,-4.3769,-4.3786,-4.3757,-4.3691,-4.3428,-4.1734,-4.1518,-4.1956,-4.1153,-4.0827,-4.0649,-3.9869,-3.9554,-3.9303,-3.8446,-3.6987,-3.527,-3.3527,-3.2384,-3.1493,-3.0627,-2.983,-2.9195,-2.9076,-2.8416,-2.7607,-2.6724,-2.6513,-2.6255,-2.5421,-2.3957,-2.3083,-2.3837,-2.2621,-2.1811,-2.25,-2.2543,-2.2352,-2.198,-2.218,-2.2956,-2.4538,-2.4473,-2.4993,-2.6698,-2.5938,-2.5508,-2.5775,-2.4995,-2.426,-2.3656,-2.426,-2.452,-2.4329,-2.4962,-2.4884,-2.4041,-2.4884,-2.4956,-2.4305,-2.5691,-2.646,-2.9022,-2.9755,-3.0571,-3.1016,-3.1559,-3.2103,-3.2541,-3.2923,-3.324,-3.3377,-3.3568,-3.3605,-3.3264,-3.4247,-3.4984,-3.459,-3.5837,-3.6593,-3.5957,-3.6111,-3.5882,-3.4713,-3.5231,0.0,0.0,0.0,0.0,-3.718,-3.7342,-3.7843,-3.8764,-3.8938,-3.9445,-4.0304,-3.9947,-4.0167,-4.1027,-4.0679,-4.1058,-4.2212,-4.2932,-4.3318,-4.3383,-4.2819,-4.2602,-4.265,-4.213,-4.2239,-4.278,-4.2824,-4.3174,-4.3632,-4.3066,-4.247,-4.1804,-4.0623,-3.9254,-3.8062,-3.8911,-3.9194,-3.9117,-3.8811,-3.7938,-3.6962,-3.6662,-3.4972,-3.303,-3.244,-3.1255,-3.0094,-2.9708,-2.8979,-2.8313,-2.8236,-2.7588,-2.6918,-2.6638,-2.616,-2.5687,-2.5414,-2.4958,-2.4655,-2.4884,-2.397,-2.2899,-2.1952,-2.2066,-2.2363,-2.2629,-2.263,-2.3009,-2.4096,-2.4026,-2.439,-2.55,-2.5206,-2.5051,-2.5265,-2.4914,-2.4372,-2.3632,-2.3824,-2.3868,-2.3714,-2.3913,-2.3864,-2.3538,-2.3739,-2.3898,-2.401,-2.4613,-2.5369,-2.8005,-2.8826,-2.9564,-2.9847,-3.0376,-3.0876,-3.1101,-3.1518,-3.1919,-3.2044,-3.2277,-3.2445,-3.2383,-3.3394,-3.4219,-3.4123,-3.5408,-3.617,-3.5588,-3.5717,-3.5468,-3.434,-3.485,-3.4963,0.0,0.0,0.0,-3.6142,-3.6532,-3.7038,-3.7692,-3.8124,-3.85,-3.8791,-3.8723,-3.8828,-3.9095,-3.8727,-3.9138,-4.0328,-4.1285,-4.1651,-4.1517,-4.1575,-4.1471,-4.1242,-4.0729,-4.0836,-4.137,-4.142,-4.178,-4.2251,-4.1695,-4.1133,-4.0502,-3.9322,-3.7647,-3.6092,-3.7141,-3.7093,-3.6577,-3.6502,-3.5771,-3.4908,-3.4872,-3.3494,-3.1922,-3.1904,-3.0687,-2.9346,-2.9231,-2.8338,-2.7451,-2.7399,-2.6765,-2.6203,-2.6179,-2.5763,-2.5393,-2.5397,-2.5193,-2.5004,-2.4958,-2.3959,-2.2679,-2.1182,-2.1229,-2.1636,-2.2268,-2.2165,-2.2335,-2.3097,-2.3258,-2.366,-2.4505,-2.4397,-2.4489,-2.4964,-2.4604,-2.4136,-2.358,-2.3562,-2.3482,-2.3301,-2.3289,-2.3253,-2.3156,-2.3077,-2.3252,-2.3619,-2.3928,-2.4549,-2.7499,-2.7779,-2.7893,-2.8328,-2.8528,-2.8654,-2.8818,-2.9705,-3.0517,-3.0501,-3.0885,-3.1456,0.0,0.0,-3.3398,-3.4293,-3.5307,-3.5857,-3.5393,-3.5451,-3.5314,0.0,0.0,0.0,0.0,0.0,0.0,-3.5115,0.0,-3.6421,-3.6617,-3.7466,-3.7661,-3.7004,-3.7875,-3.7988,-3.7221,-3.7345,-3.7528,-3.7732,-3.8616,-3.8689,-3.8144,-3.9805,-4.0185,-3.9527,-3.952,-3.955,-3.9618,-3.9633,-3.9666,-3.9735,-3.9723,-3.9699,-3.9471,-3.783,-3.665,-3.5854,-3.5734,-3.465,-3.3287,-3.3222,-3.3211,-3.3234,-3.3153,-3.2575,-3.193,-3.1868,-3.0591,-2.9226,-2.9153,-2.7898,-2.6629,-2.6497,-2.5931,-2.5402,-2.5305,-2.5288,-2.529,-2.5322,-2.471,-2.4146,-2.401,-2.2594,-2.1203,-2.0339,-2.0108,-2.0261,-2.0878,-2.0773,-2.0901,-2.1534,-2.2089,-2.2751,-2.3622,-2.3494,-2.3831,-2.4885,-2.4115,-2.3573,-2.3457,-2.3457,-2.333,-2.3061,-2.3061,-2.3,-2.2862,-2.2925,-2.297,-2.3002,-2.3471,-2.3888,-2.581,-2.6148,-2.6543,-2.738,-2.7363,-2.7379,-2.8252,-2.877,-2.91,-2.9288,-2.9674,-3.0061,0.0,0.0,0.0,-3.3317,-3.4947,0.0,-3.5718,-3.5771,0.0,-3.5329,0.0,-3.5803,-3.4869,-3.5846,0.0,0.0,-3.435,-3.472,-3.5602,-3.5877,-3.6252,-3.6752,-3.6495,-3.6248,-3.6035,-3.6276,-3.6472,-3.6623,-3.7545,-3.7921,-3.7819,-3.837,-3.8549,-3.8401,-3.8453,-3.8515,-3.8588,-3.8635,-3.8708,-3.8757,-3.8753,-3.8391,-3.7746,-3.6707,-3.5368,-3.3965,-3.3294,-3.3194,-3.3375,-3.3346,-3.293,-3.2394,-3.2397,-3.1785,-3.1095,-3.1018,-2.9793,-2.8468,-2.8401,-2.7142,-2.5693,-2.4976,-2.4673,-2.4361,-2.3751,-2.3617,-2.3794,-2.4395,-2.4339,-2.3782,-2.2465,-2.1903,-2.1329,-2.0345,-2.0254,-2.0312,-2.0325,-2.0201,-2.0151,-2.0265,-2.0849,-2.1529,-2.2245,-2.2794,-2.3439,-2.428,-2.4065,-2.3611,-2.294,-2.2903,-2.2771,-2.2516,-2.2487,-2.2489,-2.2439,-2.2323,-2.2012,-2.156,-2.2076,-2.2703,-2.4283,-2.4608,-2.4986,-2.5789,-2.5913,-2.6119,-2.7152,-2.7609,-2.798,-2.848,-2.8943,-2.9407,-2.9961,-3.1825,-3.323,0.0,0.0,0.0,-3.5559,-3.5374,-3.5262,0.0,-3.558,0.0,-3.4533,-3.5368,-3.5398,0.0,-3.4211,-3.4462,-3.455,-3.4894,-3.5183,-3.5417,-3.507,-3.476,-3.4519,-3.5068,-3.5388,-3.5511,-3.6443,-3.6739,-3.6499,-3.7368,-3.7606,-3.7302,0.0,-3.7449,-3.7544,-3.7572,-3.7642,-3.7732,-3.7767,-3.728,-3.6498,-3.5676,-3.4291,-3.2761,-3.2264,-3.1913,-3.1686,-3.169,-3.162,-3.1457,-3.1079,-3.0622,-3.0221,-3.019,-2.8948,-2.7528,-2.7106,-2.6028,-2.48,-2.3886,-2.3711,-2.3599,-2.3101,-2.3017,-2.3169,-2.3594,-2.3313,-2.2717,-2.1755,-2.1262,-2.0812,-2.0277,-2.0269,-2.0285,-2.0205,-2.0112,-2.0031,-1.989,-2.0515,-2.1045,-2.1337,-2.2062,-2.2692,-2.3107,-2.3098,-2.2822,-2.2198,-2.2457,-2.2365,-2.1841,-2.2118,-2.2114,-2.1825,-2.1676,-2.1466,-2.1179,-2.1677,-2.2218,-2.2869,-2.3169,-2.3401,-2.3935,-2.4347,-2.4878,-2.5786,-2.6449,-2.71,-2.7829,-2.8432,-2.9093,-2.9982,-3.1694,-3.3008,-3.3063,0.0,-3.5695,-3.5094,-3.4632,-3.4408,-3.4609,-3.4674,-3.4535,-3.4086,-3.4162,-3.4061,-3.3565,-3.4584,-3.4697,-3.3593,-3.4186,-3.4272,-3.3633,-3.3716,-3.3494,-3.2899,-3.3702,-3.4192,-3.4389,-3.5233,-3.5346,-3.4869,-3.6378,-3.669,-3.6027,0.0,0.0,-3.6332,-3.6342,-3.6421,-3.653,-3.6498,-3.6054,-3.5367,-3.4534,-3.3243,-3.1898,-3.1797,-3.0693,-2.9352,-2.9467,-2.9945,-3.0332,-2.9564,-2.9344,-2.934,-2.9347,-2.8161,-2.67,-2.5841,-2.4964,-2.4052,-2.307,-2.2898,-2.2882,-2.2721,-2.2895,-2.304,-2.2878,-2.23,-2.1833,-2.1764,-2.1039,-2.0436,-2.0367,-2.0374,-2.0378,-2.0316,-2.0292,-2.0215,-2.0022,-2.0676,-2.1036,-2.0821,-2.1487,-2.1903,-2.1906,-2.1892,-2.1755,-2.1407,-2.2021,-2.1956,-2.1085,-2.1729,-2.1736,-2.1076,-2.1008,-2.1033,-2.1124,-2.1661,-2.2074,-2.1641,-2.1916,-2.2276,-2.2782,-2.3094,-2.3635,-2.4702,-2.5683,0.0,-2.681,-2.774,-2.8556,-2.8777,-3.0809,-3.2328,-3.1967,-3.3833,-3.5156,-3.4668,-3.4206,-3.3995,0.0,-3.3921,-3.3671,-3.3676,-3.3865,0.0,0.0,0.0,0.0,-3.3201,-3.3319,-3.3164,-3.2661,-3.2684,-3.2399,-3.1775,-3.1994,-3.2479,-3.3199,-3.3527,-3.3971,-3.4469,-3.4305,-3.4121,-3.4008,0.0,0.0,-3.4393,-3.4454,-3.4548,-3.4616,-3.4003,-3.3737,-3.3552,-3.2698,-3.1767,-3.085,-3.0172,-2.9287,-2.854,-2.9274,-2.914,-2.8711,-2.8551,-2.8512,-2.8511,-2.8511,-2.7765,-2.6775,-2.5909,-2.4988,-2.3918,-2.2372,-2.2022,-2.1847,-2.1169,-2.2068,-2.2815,-2.213,-2.2909,-2.3431,-2.2713,-2.2395,-2.2015,-2.13,-2.1285,-2.1096,-2.0398,-2.0295,-2.0214,-2.0012,-2.0701,-2.1091,-2.0905,-2.1555,-2.1967,-2.1895,-2.1898,-2.1578,-2.0876,-2.1379,-2.1261,-2.0391,-2.0974,-2.099,-2.0363,-2.0354,-2.0119,-1.9693,-2.0878,-2.1476,-2.0027,-2.0283,-2.0721,-2.1237,-2.187,-2.2742,-2.4177,-2.5017,-2.582,-2.6827,-2.7604,-2.8162,-2.8389,-3.0152,-3.1527,-3.1411,-3.3088,-3.4371,-3.4299,-3.3826,-3.3432,-3.3327,-3.3161,-3.2815,0.0,0.0,0.0,0.0,0.0,0.0,-3.2167,-3.1865,-3.1458,-3.0912,-3.1315,-3.1256,-3.0612,-3.1096,-3.1574,-3.206,-3.2247,-3.2532,-3.2939,-3.2727,-3.2645,-3.2716,0.0,0.0,-3.3066,-3.3109,-3.3217,-3.3324,-3.2973,-3.2377,-3.163,-3.1255,-3.0341,-2.9248,-2.8845,-2.8142,-2.7498,-2.7955,-2.8151,-2.8175,-2.7753,-2.7617,-2.7617,-2.7628,-2.6673,-2.5545,-2.513,-2.4021,-2.2812,-2.2031,-2.1835,-2.1695,-2.1308,-2.2157,-2.2881,-2.2508,-2.2999,-2.3327,-2.2875,-2.2395,-2.1938,-2.1509,-2.1112,-2.0745,-2.0401,-2.0354,-2.0288,-2.0114,-2.0423,-2.056,-2.0383,-2.0668,-2.0844,-2.0802,-2.0766,-2.057,-2.0144,-2.0704,-2.0678,-1.9903,-2.0471,-2.0471,-1.9847,-1.9841,-1.9908,-2.0057,-2.0889,-2.1581,-1.8522,-1.8932,-1.946,-2.0001,-2.0999,-2.2277,-2.385,-2.4629,-2.5402,-2.6819,-2.7449,-2.7865,-2.8201,-2.9555,-3.0685,-3.097,-3.2346,-3.3476,-3.3866,-3.342,-3.2901,0.0,-3.2368,0.0,-3.0775,0.0,0.0,0.0,0.0,0.0,-3.121,-3.0629,-3.0021,-2.9401,-3.0059,-3.01,-2.9452,-3.0129,-3.0638,-3.0919,-3.1066,-3.1244,-3.1476,-3.1464,-3.1515,-3.161,0.0,0.0,0.0,-3.1958,-3.208,-3.2207,-3.1873,-3.1006,-2.9941,-2.9835,-2.8881,-2.7667,-2.7661,-2.7127,-2.6413,-2.6444,-2.699,-2.753,-2.6897,-2.6574,-2.6443,-2.6426,-2.5292,-2.4056,-2.3865,-2.2782,-2.1767,-2.1839,-2.1814,-2.1836,-2.2031,-2.2728,-2.329,-2.3304,-2.338,-2.3447,-2.3377,-2.2778,-2.2187,-2.1831,-2.1196,-2.0677,-2.0429,-2.0387,-2.0321,-2.0188,-2.0137,-2.0073,-1.9928,-1.9867,-1.9838,-1.9826,-1.9763,-1.9712,-1.9648,-2.0256,-2.0281,-1.9629,-2.0205,-2.0181,-1.9518,-1.9703,-2.0115,-2.0733,-2.1423,-2.2117,-1.7591,-1.8351,-1.9266,-1.9799,-2.1006,-2.2386,-2.3578,-2.4626,-2.5491,-2.6002,-2.6931,-2.7675,-2.7815,-2.8767,-2.9734,-3.0377,-3.1472,-3.2504,-3.3266,-3.2959,-3.2456,-3.1927,0.0,0.0,-3.0335,0.0,0.0,0.0,0.0,0.0,0.0,-3.0307,-2.9681,-2.9062,-2.9112,-2.8882,-2.8261,-2.8411,-2.8869,-2.9665,-2.9862,-3.0348,-3.1038,-3.0564,-3.0354,-3.0378,0.0,0.0,0.0,-3.0818,-3.0929,-3.0923,-2.9517,-2.8917,-2.8779,-2.8103,-2.7298,-2.657,-2.6625,-2.6119,-2.5418,-2.536,-2.5569,-2.5836,-2.5759,-2.5228,-2.4637,-2.4569,-2.3855,-2.2958,-2.2155,-2.1776,-2.1631,-2.1692,-2.1701,-2.1945,-2.2795,-2.3652,-2.4262,-2.4277,-2.4818,-2.5237,-2.5179,-2.505,-2.4423,-2.2914,-2.2605,-2.2045,-2.0592,-2.034,-2.0253,-2.0129,-2.0164,-2.0131,-2.0006,-1.9991,-1.9955,-1.9884,-1.9897,-1.9843,-1.977,-2.0314,-2.0307,-1.9698,-2.0229,-2.0202,-1.9583,-2.0396,-2.0788,-2.083,-2.2454,-2.3154,-1.6973,-1.7751,-1.8494,-1.8982,-2.056,-2.2289,-2.3466,-2.4465,-2.5419,-2.6315,-2.6824,-2.7233,-2.76,-2.8037,-2.8753,-3.0171,-3.0768,-3.1436,-3.2426,-3.2777,-3.2415,-3.1118,-3.1244,0.0,0.0,0.0,0.0,0.0,0.0,0.0,0.0,-2.839,-2.8069,-2.7869,-2.7977,-2.7914,-2.7677,-2.7795,-2.802,-2.8422,-2.8629,-2.8932,-2.9305,-2.9179,-2.9136,-2.9191,0.0,0.0,0.0,-2.9487,-2.9621,-2.9709,-2.8652,-2.7986,-2.7518,-2.6731,-2.5864,-2.5062,-2.4962,-2.4729,-2.4456,-2.4384,-2.4238,-2.4163,-2.4528,-2.4076,-2.3428,-2.3393,-2.2778,-2.2133,-2.2321,-2.192,-2.1346,-2.079,-2.1148,-2.1828,-2.2738,-2.3664,-2.4489,-2.5019,-2.5368,-2.5546,-2.5477,-2.4607,-2.3675,-2.2962,-2.2006,-2.1135,-2.0541,-2.0407,-2.0337,-2.0285,-2.0623,-2.0783,-2.0611,-2.0601,-2.0571,-2.0501,-2.0088,-1.9837,-1.9801,-1.9999,-2.0012,-1.9831,-2.0462,-2.0712,-2.0577,-2.1436,-2.2073,-2.2506,-2.3064,-2.3486,-1.6574,-1.7351,-1.8089,-1.9049,-2.0689,-2.2417,-2.3766,-2.4607,-2.5386,-2.6388,-2.67,-2.6937,-2.7361,-2.7488,-2.8111,-2.9881,-3.0031,-3.0432,-3.1913,-3.2398,-3.2128,0.0,0.0,0.0,0.0,0.0,0.0,0.0,0.0,0.0,0.0,-2.6667,-2.6691,-2.694,-2.7037,-2.7151,-2.7214,-2.7293,-2.7384,-2.7507,-2.7683,-2.7815,-2.7904,-2.8069,-2.8197,0.0,0.0,0.0,0.0,-2.8141,-2.8142,-2.8072,-2.7567,-2.6925,-2.6138,-2.5308,-2.4541,-2.3913,-2.377,-2.3752,-2.3763,-2.3706,-2.3188,-2.2671,-2.3057,-2.2757,-2.23,-2.2308,-2.1637,-2.1126,-2.1962,-2.1513,-2.0727,-2.0303,-2.0985,-2.1987,-2.2856,-2.3858,-2.4774,-2.5424,-2.5549,-2.554,-2.5527,-2.4527,-2.3618,-2.3341,-2.2075,-2.1167,-2.1195,-2.0718,-2.0565,-2.1068,-2.1462,-2.1452,-2.0781,-2.0715,-2.0684,-2.0639,-2.012,-1.9842,-1.9866,-2.01,-2.0249,-2.0343,-2.0844,-2.1151,-2.1268,-2.2142,-2.283,-2.3284,-2.3701,-2.4094,-1.6463,-1.7229,-1.8228,-2.0422,-2.169,-2.284,-2.4608,-2.5189,-2.5536,-2.6029,-2.6474,-2.6846,-2.6977,-2.7222,-2.7884,-2.937,-2.9158,-2.961,-3.1873,-3.1747,-3.1477,0.0,0.0,0.0,0.0,0.0,0.0,0.0,0.0,0.0,0.0,0.0,-2.5921,-2.6573,-2.647,-2.6539,-2.6791,-2.6741,-2.6808,-2.7006,-2.7133,-2.7213,-2.7213,-2.7491,0.0,0.0,0.0,0.0,0.0,-2.6854,-2.6491,-2.5839,-2.5887,-2.5422,-2.4603,-2.3669,-2.332,-2.3314,-2.332,-2.3386,-2.3485,-2.343,-2.2491,-2.1388,-2.1268,-2.1176,-2.1115,-2.1124,-2.0384,-1.9789,-2.0525,-2.011,-1.9724,-2.0503,-2.1505,-2.2534,-2.3397,-2.4495,-2.5302,-2.5386,-2.5407,-2.5434,-2.5577,-2.5465,-2.5136,-2.4393,-2.348,-2.2867,-2.2868,-2.1371,-2.095,-2.2595,-2.2726,-2.1995,-2.026,-2.0039,-2.0001,-2.0007,-1.9938,-1.992,-2.0003,-2.076,-2.1244,-2.1383,-2.1392,-2.1392,-2.1407,-2.2346,-2.2704,-2.256,-2.4404,-2.5212,-1.6476,-1.732,-1.8022,-1.9092,-2.0448,-2.1862,-2.3245,-2.3797,-2.4254,-2.5044,-2.5147,-2.53,-2.5922,-2.6199,-2.6986,-2.9047,-2.9385,-2.9732,0.0,0.0,0.0,-2.9861,0.0,0.0,0.0,0.0,0.0,0.0,0.0,0.0,0.0,0.0,-2.5326,-2.5975,-2.6028,-2.61,-2.6189,-2.6244,-2.6315,-2.6385,-2.6607,-2.6469,-2.6061,-2.6701,0.0,0.0,0.0,0.0,0.0,-2.5524,-2.5303,-2.5193,-2.4566,-2.423,-2.3972,-2.2985,-2.2535,-2.2403,-2.2367,-2.2313,-2.217,-2.1549,-2.0773,-2.0032,-1.9625,-1.9925,-2.054,-2.1137,-2.1139,-2.0997,-2.1148,-2.0625,-2.0055,-2.009,-2.051,-2.1152,-2.1995,-2.3054,-2.4042,-2.4663,-2.4866,-2.4959,-2.5038,-2.4644,-2.4247,-2.4041,-2.3348,-2.2847,-2.2891,-2.2379,-2.2207,-2.2731,-2.2778,-2.2744,-2.2693,-2.2686,-2.2645,-2.2604,-2.2145,-2.1863,-2.1844,-2.2089,-2.2295,-2.2416,-2.2919,-2.3204,-2.3252,-2.4192,-2.4807,-2.5118,-2.5609,-2.633,-1.6609,-1.7355,-1.8033,-1.8984,-2.0137,-2.1326,-2.2458,-2.3003,-2.344,-2.4101,-2.4413,-2.4736,-2.5272,-2.5698,-2.664,-2.8624,-2.8919,-2.9279,0.0,0.0,0.0,0.0,0.0,0.0,0.0,0.0,0.0,0.0,0.0,0.0,0.0,0.0,-2.4675,-2.5056,-2.5378,-2.5565,-2.5602,-2.5684,-2.5611,-2.5388,-2.5551,-2.531,-2.4713,0.0,0.0,0.0,0.0,0.0,0.0,-2.3971,-2.3739,-2.3602,-2.3291,-2.2996,-2.2666,-2.2007,-2.1635,-2.1425,-2.1413,-2.1354,-2.1211,-2.0773,-2.0241,-1.9707,-1.9501,-1.963,-2.0024,-2.0789,-2.1119,-2.1205,-2.1006,-2.04,-1.9704,-1.9111,-1.9731,-2.0581,-2.106,-2.231,-2.353,-2.4155,-2.4297,-2.4368,-2.4582,-2.4265,-2.4033,-2.4148,-2.3499,-2.3197,-2.3636,-2.3094,-2.2956,-2.3632,-2.3454,-2.3611,-2.4431,-2.3856,-2.3437,-2.3416,-2.3014,-2.2777,-2.2778,-2.3072,-2.3283,-2.3436,-2.3877,-2.4135,-2.418,-2.4732,-2.5327,-2.5916,-2.5836,-2.6472,0.0,-1.7401,-1.8197,-1.9805,-2.0509,-2.1062,-2.2084,-2.2605,0.0,-2.3228,-2.4126,-2.4912,-2.4996,-2.5646,-2.667,-2.8153,-2.8019,-2.8405,0.0,-3.0396,0.0,0.0,0.0,0.0,0.0,0.0,0.0,0.0,0.0,0.0,0.0,0.0,0.0,-2.394,-2.4502,-2.4851,-2.4969,-2.4969,-2.4662,-2.4074,-2.4127,-2.3831,-2.326,0.0,0.0,0.0,0.0,0.0,0.0,-2.2264,-2.1907,-2.1373,-2.2037,-2.1698,-2.0878,-2.0812,-2.0631,-2.0414,-2.05,-2.0533,-2.0551,-2.0766,-2.0478,-2.0066,-2.033,-2.0014,-1.9704,-2.0246,-2.0593,-2.0732,-2.0401,-1.9725,-1.891,-1.8016,-1.9235,-2.0605,-2.0619,-2.2151,-2.3566,-2.3725,-2.3658,-2.3708,-2.4085,-2.417,-2.4248,-2.4483,-2.3897,-2.379,-2.4814,-2.3589,-2.3276,-2.496,-2.4547,-2.4491,-2.5388,-2.3887,-2.2937,-2.2998,-2.294,-2.2979,-2.3094,-2.3815,-2.4279,-2.4407,-2.4392,-2.4399,-2.4387,-2.4322,-2.4668,-2.5385,-2.5402,-2.5952,-1.6849,0.0,-1.8082,-1.8932,-1.9446,-2.0031,0.0,-2.1721,-2.2167,-2.2804,-2.3243,-2.3876,-2.4957,-2.5038,-2.5729,-2.816,-2.8195,-2.8381,-2.9714,0.0,0.0,0.0,0.0,0.0,0.0,0.0,0.0,0.0,0.0,0.0,0.0,0.0,0.0,-2.3304,-2.308,-2.3142,-2.3577,-2.3681,-2.3383,-2.2752,-2.3377,-2.302,-2.1842,0.0,0.0,0.0,0.0,0.0,-2.1308,-2.0746,-2.0438,-2.0316,-2.0229,-2.0025,-1.9783,-1.9692,-1.9531,-1.9386,-1.9654,-1.9776,-1.9703,-1.9409,-1.883,-1.8249,-1.8407,-1.9377,-2.0568,-2.125,-2.1674,-2.1856,-2.1496,-2.0381,-1.9434,-1.9796,-1.9787,-1.9907,-2.067,-2.1803,-2.2617,-2.241,-2.2518,-2.2648,-2.2746,-2.2946,-2.3231,-2.3686,-2.3732,-2.3856,-2.4265,-2.4091,-2.4136,-2.4617,-2.4657,-2.4757,-2.5015,-2.4977,-2.4951,-2.5019,-2.4995,-2.5009,-2.5035,-2.522,-2.5336,-2.5367,-2.5317,-2.5269,-2.5219,-2.5201,-2.5568,-2.6301,-2.6346,-2.7097,-1.7342,-1.8074,-1.8788,-1.9571,-2.0053,-2.0634,-2.1669,-2.1847,-2.1888,-2.2295,-2.2896,-2.3648,-2.4674,-2.5007,-2.5792,-2.7812,-2.8035,0.0,0.0,0.0,0.0,0.0,0.0,0.0,0.0,0.0,0.0,0.0,0.0,0.0,0.0,0.0,0.0,0.0,-2.1665,-2.1838,-2.2684,-2.247,-2.2008,-2.1287,-2.1672,-2.1457,-2.0704,0.0,0.0,0.0,0.0,0.0,-1.992,-1.9476,-1.9313,-1.9335,-1.907,-1.8887,-1.8816,-1.8841,-1.8669,-1.8496,-1.8769,-1.8662,-1.8302,-1.7789,-1.7589,-1.7519,-1.7418,-1.8322,-1.9515,-2.0194,-2.1043,-2.154,-2.065,-1.9584,-1.8882,-1.9391,-1.9165,-1.905,-1.9738,-2.0564,-2.1141,-2.1096,-2.0922,-2.0998,-2.168,-2.1501,-2.1631,-2.2656,-2.2637,-2.2711,-2.3253,-2.3443,-2.3539,-2.3575,-2.3731,-2.3903,-2.4064,-2.4397,-2.4854,-2.5485,-2.5556,-2.5572,-2.5611,-2.5619,-2.5622,-2.5659,-2.5507,-2.5371,-2.5312,-2.5328,-2.5702,-2.6467,-2.6211,-2.6848,-1.7924,-1.8919,-1.9833,-2.0617,-2.1146,-2.1662,-2.2414,-2.2239,-2.1911,-2.1995,-2.2838,-2.3793,-2.4511,-2.5253,0.0,0.0,0.0,0.0,0.0,0.0,0.0,0.0,0.0,0.0,0.0,0.0,0.0,0.0,0.0,0.0,0.0,0.0,0.0,0.0,-2.0287,-2.0585,-2.1679,-2.1239,-2.0584,-1.9787,-1.976,-1.9721,-1.9629,-1.8951,0.0,0.0,0.0,0.0,-1.8369,-1.8361,-1.8327,-1.8308,-1.8072,-1.7933,-1.7834,-1.7941,-1.7774,-1.7476,-1.7713,-1.7406,-1.6826,-1.6377,-1.6629,-1.7056,-1.6768,-1.7128,-1.7702,-1.8054,-1.9372,-2.0352,-1.8852,-1.8267,-1.8062,-1.8109,-1.8143,-1.8265,-1.8646,-1.9138,-1.9552,-1.9808,-1.9277,-1.9209,-2.0508,-1.9985,-1.986,-2.1275,-2.1131,-2.1154,-2.1956,-2.2241,-2.2375,-2.2424,-2.2515,-2.2617,-2.2752,-2.2915,-2.3471,-2.4541,-2.488,-2.5001,-2.5004,-2.5018,-2.5099,-2.526,-2.5059,-2.4951,-2.4972,-2.5046,-2.5414,-2.6074,-2.5625,-2.61,-1.809,-1.9536,-2.0693,-2.0512,-2.0908,-2.1409,-2.1638,-2.1771,-2.1923,-2.2315,-2.2945,-2.385,-2.5182,-2.5118,-2.5471,0.0,0.0,0.0,0.0,0.0,0.0,0.0,0.0,0.0,0.0,0.0,0.0,0.0,0.0,0.0,0.0,0.0,0.0,0.0,0.0,-1.8751,-1.9404,-1.9529,-1.9206,-1.8402,-1.8905,-1.8762,-1.8072,-1.8563,-1.8385,0.0,0.0,-1.7551,-1.7327,-1.7258,-1.7175,-1.7058,-1.6735,-1.66,-1.6578,-1.66,-1.6253,-1.5838,-1.6259,-1.6223,-1.6027,-1.6277,-1.5922,-1.543,-1.5646,-1.627,-1.6691,-1.5806,-1.7135,-1.8523,-1.7262,-1.7594,-1.8194,-1.7917,-1.7902,-1.8112,-1.8735,-1.8679,-1.8554,-1.8707,-1.825,-1.7988,-1.8554,-1.8475,-1.854,-1.9114,-1.975,-2.0267,-2.0591,-2.1275,-2.1826,-2.205,-2.198,-2.1752,-2.1273,-2.1275,-2.1331,-2.148,-2.2618,-2.3108,-2.2709,-2.2821,-2.3145,-2.3731,-2.3747,-2.3979,-2.4416,-2.476,-2.4983,-2.5116,-2.5379,-2.6201,-1.8084,-1.962,-2.0961,-2.1078,-2.1799,-2.2662,-2.3333,-2.2983,-2.2587,-2.2901,-2.336,-2.3983,-2.4986,0.0,-2.5425,-2.6604,0.0,0.0,0.0,0.0,0.0,0.0,0.0,0.0,0.0,0.0,0.0,0.0,0.0,0.0,0.0,0.0,0.0,0.0,0.0,-1.7137,-1.7702,-1.7443,-1.7318,-1.7353,-1.7547,-1.7578,-1.7424,-1.7342,-1.7222,-1.7113,0.0,-1.6373,-1.6188,-1.6136,-1.5993,-1.574,-1.5443,-1.5343,-1.5343,-1.541,-1.5067,-1.4568,-1.4466,-1.4119,-1.3721,-1.3551,-1.348,-1.3437,-1.3285,-1.3746,-1.4129,-1.3258,-1.5171,-1.7195,-1.6004,-1.576,-1.5987,-1.6461,-1.6389,-1.6284,-1.6481,-1.678,-1.686,-1.6376,-1.6202,-1.6278,-1.6679,-1.6405,-1.6481,-1.7416,-1.744,-1.7661,-1.8557,-1.8848,-1.8871,-1.8675,-1.8939,-1.8879,-1.8198,-1.8867,-1.9687,-2.0522,-2.1231,-2.1637,-2.1702,-2.0903,-2.1133,-2.261,-2.2855,-2.3173,-2.3606,-2.4265,-2.4552,-2.4508,-2.3928,-2.3989,-1.811,-1.9444,-2.0686,-2.134,-2.2384,-2.3542,-2.4697,-2.3976,-2.3118,-2.3435,-2.3671,-2.3956,-2.4403,-2.4764,0.0,-2.5662,0.0,0.0,0.0,0.0,0.0,0.0,0.0,0.0,0.0,0.0,0.0,0.0,0.0,0.0,0.0,0.0,0.0,0.0,0.0,0.0,-1.6232,-1.5509,-1.5531,-1.6355,-1.6216,-1.6328,-1.6593,-1.6025,-1.6017,-1.6387,-1.5687,-1.5253,-1.5017,-1.4983,-1.4801,-1.4469,-1.4168,-1.4052,-1.4052,-1.4133,-1.3999,-1.3696,-1.3012,-1.2425,-1.1846,-1.1173,-1.127,-1.155,-1.1051,-1.1399,-1.1815,-1.1066,-1.3025,-1.5114,-1.4269,-1.3921,-1.3977,-1.4563,-1.4607,-1.4442,-1.4191,-1.4575,-1.4767,-1.4108,-1.4154,-1.4361,-1.462,-1.45,-1.4644,-1.5352,-1.5123,-1.5292,-1.6439,-1.648,-1.6237,-1.5842,-1.594,-1.5583,-1.4551,-1.5703,-1.6871,-1.7791,-1.8905,-1.9762,-2.0285,-1.912,-1.9313,-2.1192,-2.1454,-2.1782,-2.2259,-2.2921,-2.3187,-2.3048,-2.2017,-2.1555,-1.824,-1.9082,-1.9736,-2.0706,-2.1717,-2.2784,-2.4009,-2.3537,-2.301,-2.3653,-2.37,-2.3618,0.0,-2.3866,-2.4164,0.0,0.0,0.0,0.0,0.0,0.0,0.0,0.0,0.0,0.0,0.0,0.0,0.0,0.0,0.0,0.0,0.0,0.0,0.0,0.0,0.0,-1.4833,-1.4108,-1.4261,-1.532,-1.5243,-1.5085,-1.4891,-1.5085,-1.4983,-1.4684,-1.4743,-1.4445,-1.3909,-1.3781,-1.3579,-1.328,-1.2885,-1.273,-1.273,-1.2609,-1.2942,-1.3303,-1.2474,-1.2014,-1.1702,-1.1041,-1.0424,-0.9953,-0.9773,-1.0312,-1.0816,-0.9894,-1.04,-1.1265,-1.1428,-1.2667,-1.3623,-1.2592,-1.3024,-1.3558,-1.3114,-1.2585,-1.2285,-1.267,-1.2597,-1.2413,-1.2198,-1.3192,-1.3578,-1.2261,-1.3257,-1.4267,-1.4485,-1.5018,-1.5504,-1.5766,-1.4339,-1.2605,-1.0677,-1.1407,-1.1489,-1.0358,-1.4317,-1.6903,-1.737,-1.7417,-1.7885,-1.8907,-1.8826,-1.9192,-2.0039,-2.0091,-1.9987,-1.9749,-1.9829,-1.9948,-1.7002,-1.8171,-1.9306,-1.9986,-2.0824,-2.1824,-2.3283,-2.3286,-2.3226,-2.4013,-2.391,-2.3526,0.0,0.0,0.0,0.0,0.0,0.0,0.0,0.0,0.0,0.0,0.0,0.0,0.0,0.0,0.0,0.0,0.0,0.0,0.0,0.0,0.0,0.0,0.0,0.0,0.0,-1.3291,-1.3057,-1.297,-1.3535,-1.3697,-1.3521,-1.345,-1.3297,-1.3082,-1.3202,-1.301,-1.2575,-1.2672,-1.238,-1.1789,-1.1291,-1.1015,-1.0889,-1.1091,-1.0954,-1.0644,-1.0494,-1.0106,-0.9608,-0.9135,-0.8972,-0.8934,-0.8914,-0.8924,-0.8908,-0.8897,-0.882,-0.8969,-0.989,-1.058,-1.0987,-1.0738,-1.1144,-1.1419,-1.0755,-1.1089,-1.1221,-1.0228,-1.0907,-1.1417,-1.0815,-1.1439,-1.1787,-1.1117,-1.1106,-1.1368,-1.1865,-1.1983,-1.1807,-1.1248,-1.0213,-0.9437,-0.9129,-0.9242,-0.9488,-0.9847,-1.1912,-1.3091,-1.3049,-1.2722,-1.3315,-1.5002,-1.505,-1.5463,-1.6262,-1.63,-1.6024,-1.5474,-1.489,-1.4387,-1.6571,-1.766,-1.8758,-1.9363,-1.9981,-2.0745,-2.2129,-2.2677,-2.3179,-2.4095,-2.3541,-2.2682,-2.2099,0.0,0.0,0.0,0.0,0.0,0.0,0.0,0.0,0.0,0.0,0.0,0.0,0.0,0.0,0.0,0.0,0.0,0.0,0.0,0.0,0.0,0.0,0.0,0.0,-1.2058,-1.1712,-1.1166,-1.169,-1.2095,-1.2399,-1.2193,-1.207,-1.1996,-1.2021,-1.1765,-1.1366,-1.1516,-1.1032,-1.0202,-0.9928,-0.9592,-0.9313,-0.9662,-0.9387,-0.8833,-0.8827,-0.8522,-0.8065,-0.7682,-0.7692,-0.7855,-0.7854,-0.7572,-0.7312,-0.7663,-0.7349,-0.7089,-0.8088,-0.8556,-0.8903,-0.9316,-0.9644,-0.9706,-0.9235,-0.982,-1.0051,-0.8705,-0.9436,-0.9997,-0.9178,-0.9806,-1.0224,-0.9658,-0.9234,-0.9201,-0.9903,-0.9489,-0.8725,-0.7578,-0.7029,-0.676,-0.6855,-0.6828,-0.712,-0.783,-0.8582,-0.9407,-1.0376,-0.9857,-1.0299,-1.185,-1.1822,-1.2078,-1.2619,-1.2608,-1.2234,-1.1537,-1.0791,-1.0043,-1.7277,-1.7701,-1.7945,-1.8961,-1.921,-1.95,-2.0537,-2.1661,-2.2777,-2.3867,-2.2465,-2.1003,-2.0734,-1.9848,0.0,0.0,0.0,0.0,0.0,0.0,0.0,0.0,0.0,0.0,0.0,0.0,0.0,0.0,0.0,0.0,0.0,0.0,0.0,0.0,0.0,0.0,-1.0405,-1.0269,-1.0192,-1.0192,-0.9788,-1.0277,-1.1576,-1.145,-1.145,-1.1551,-1.13,-1.0864,-1.0364,-1.0244,-0.9547,-0.86,-0.8876,-0.8606,-0.8125,-0.8376,-0.8469,-0.8378,-0.7778,-0.7522,-0.7393,-0.6927,-0.6731,-0.6648,-0.6529,-0.6352,-0.6189,-0.6197,-0.5846,-0.5542,-0.5741,-0.6723,-0.783,-0.8441,-0.858,-0.8659,-0.891,-0.8765,-0.8525,-0.8321,-0.8239,-0.7925,-0.7133,-0.8369,-0.8992,-0.7579,-0.7706,-0.8173,-0.8794,-0.7939,-0.6795,-0.5499,-0.5319,-0.473,-0.3398,-0.3824,-0.3871,-0.3146,-0.3892,-0.6056,-0.9786,-0.9612,-0.9582,-0.985,-0.9387,-0.9209,-0.9353,-0.9152,-0.8733,-0.8157,-0.8062,-0.7721,-1.624,-1.679,-1.7553,-1.8382,-1.9,-1.9631,-2.0343,-2.113,-2.1805,-2.2019,-2.1083,-2.0139,-1.9734,0.0,0.0,0.0,0.0,0.0,0.0,0.0,0.0,0.0,0.0,0.0,0.0,0.0,0.0,0.0,0.0,0.0,0.0,0.0,0.0,0.0,0.0,0.0,-0.9918,-0.9815,-0.9427,-0.8725,-0.86,-0.9124,-1.0174,-0.985,-0.9618,-0.9496,-0.9496,-0.9221,-0.8764,-0.8425,-0.7907,-0.7321,-0.7219,-0.7071,-0.6891,-0.6779,-0.673,-0.6671,-0.6172,-0.5957,-0.5895,-0.5558,-0.5527,-0.557,-0.5535,-0.5183,-0.4896,-0.5299,-0.5113,-0.4787,-0.4701,-0.5258,-0.606,-0.6753,-0.7311,-0.7555,-0.7119,-0.7444,-0.7562,-0.6714,-0.6943,-0.7058,-0.6296,-0.6561,-0.6598,-0.577,-0.5595,-0.5678,-0.605,-0.5637,-0.4849,-0.3631,-0.3561,-0.3106,-0.187,-0.2384,-0.276,-0.2676,-0.2785,-0.3512,-0.4938,-0.5735,-0.6087,-0.6042,-0.5625,-0.5567,-0.5873,-0.5006,-0.4591,-0.4591,-0.4067,-0.3524,-1.651,-1.7008,-1.771,-1.8591,-1.8981,-1.9226,-1.9491,-2.0316,-2.0891,0.0,-1.9782,-1.917,-1.8786,0.0,0.0,0.0,0.0,0.0,0.0,0.0,0.0,0.0,0.0,0.0,0.0,0.0,0.0,0.0,0.0,0.0,0.0,0.0,0.0,0.0,0.0,0.0,-0.8886,-0.886,-0.8521,-0.7845,-0.7765,-0.8031,-0.8613,-0.8475,-0.8343,-0.8243,-0.8019,-0.7774,-0.7465,-0.7077,-0.6616,-0.6186,-0.6012,-0.5759,-0.5429,-0.5324,-0.5191,-0.5007,-0.4787,-0.4677,-0.4615,-0.4521,-0.4523,-0.455,-0.455,-0.4227,-0.3969,-0.4378,-0.4153,-0.3713,-0.3483,-0.3835,-0.4487,-0.5435,-0.6131,-0.6541,-0.6186,-0.6499,-0.6625,-0.5901,-0.5839,-0.5715,-0.5107,-0.4881,-0.4693,-0.4451,-0.4389,-0.4282,-0.4027,-0.3823,-0.3376,-0.256,-0.2363,-0.1983,-0.1175,-0.1397,-0.1676,-0.1842,-0.1704,-0.1704,-0.1896,-0.2952,-0.3481,-0.3367,-0.301,-0.2899,-0.309,-0.2458,-0.2179,-0.2206,-0.1762,-0.1344,-1.7499,-1.7744,-1.803,-1.9175,-1.8957,-1.843,-1.8211,-1.914,-1.9834,-1.9018,0.0,-1.8144,0.0,0.0,0.0,0.0,0.0,0.0,0.0,0.0,0.0,0.0,0.0,0.0,0.0,0.0,0.0,0.0,0.0,0.0,0.0,0.0,0.0,0.0,0.0,0.0,-0.7525,-0.7553,-0.7509,0.0,-0.7112,-0.6945,-0.6918,-0.723,-0.7406,-0.7427,-0.6725,-0.6401,-0.6379,-0.5982,-0.5544,-0.5144,-0.516,-0.4656,-0.3923,-0.4039,-0.3846,-0.3541,-0.363,-0.3577,-0.3508,-0.3679,-0.3644,-0.3541,-0.3541,-0.3406,-0.3265,-0.3374,-0.3019,-0.2521,-0.212,-0.2428,-0.3101,-0.4153,-0.4944,-0.5487,-0.5699,-0.5679,-0.5624,-0.5524,-0.488,-0.4154,-0.368,-0.331,-0.3182,-0.3399,-0.3714,-0.3588,-0.2579,-0.2422,-0.2273,-0.1947,-0.1528,-0.1189,-0.0929,-0.0673,-0.0588,-0.0698,-0.0588,-0.0449,-0.028,-0.1175,-0.1679,-0.1679,-0.1373,-0.115,-0.101,-0.1094,-0.0982,-0.0757,-0.0729,-0.0533,-1.6629,-1.6721,-1.7017,-1.8008,-1.8043,-1.7686,-1.718,-1.6957,-1.7029,-1.7566,-1.721,0.0,0.0,0.0,0.0,0.0,0.0,0.0,0.0,0.0,0.0,0.0,0.0,0.0,0.0,0.0,0.0,0.0,0.0,0.0,0.0,0.0,0.0,0.0,0.0,-0.7355,-0.682,-0.6736,-0.6512,0.0,-0.61,-0.5887,-0.5563,-0.6077,-0.6073,-0.5637,-0.5167,-0.4948,-0.4932,-0.4579,-0.4245,-0.3965,-0.4074,-0.3792,-0.3284,-0.3209,-0.307,-0.2847,-0.2629,-0.2519,-0.2516,-0.255,-0.2406,-0.2239,-0.2323,-0.2184,-0.1992,-0.2035,-0.1928,-0.1679,-0.0977,-0.1237,-0.1638,-0.1543,-0.2917,-0.4181,-0.3886,-0.4139,-0.4406,-0.4167,-0.3889,-0.335,-0.2262,-0.2163,-0.2092,-0.1567,-0.1737,-0.1742,-0.1253,-0.1415,-0.1284,-0.0608,-0.0387,-0.0088,0.0437,0.0712,0.0812,0.067,0.0784,0.0841,0.0783,-0.0336,-0.0869,-0.07,-0.0533,-0.0421,-0.0393,0.0056,0.0308,0.0364,0.0673,0.0952,-1.6274,-1.6432,-1.668,-1.7004,-1.6994,-1.668,-1.5826,-1.5424,-1.5269,-1.5384,-1.5524,0.0,0.0,0.0,0.0,0.0,0.0,0.0,0.0,0.0,0.0,0.0,0.0,0.0,0.0,0.0,0.0,0.0,0.0,0.0,0.0,0.0,0.0,0.0,-0.6641,-0.6314,-0.5698,-0.5684,-0.5504,-0.5171,-0.5085,-0.4728,-0.4156,-0.4842,-0.4814,-0.4263,-0.3962,-0.371,-0.3547,-0.3496,-0.3232,-0.2854,-0.2991,-0.2667,-0.215,-0.2235,-0.2125,-0.193,-0.193,-0.1902,-0.1875,-0.1737,-0.1427,-0.1146,-0.1202,-0.1034,-0.081,-0.0754,-0.0782,-0.0642,0.0112,-0.0116,-0.0452,0.0,-0.1319,-0.265,-0.2466,-0.2685,-0.2861,-0.2712,-0.2337,-0.1774,-0.0979,-0.0705,-0.044,0.0031,-0.0245,-0.0455,-0.0376,-0.0408,-0.022,0.0377,0.0465,0.0672,0.1145,0.1433,0.1549,0.1489,0.1639,0.1777,0.1858,0.1259,0.0768,0.0421,0.0477,0.0505,0.0533,0.0968,0.1175,0.1205,0.1689,0.1964,-1.5748,-1.6085,-1.6323,-1.5973,-1.5867,-1.5579,-1.4528,-1.4232,-1.4018,-1.338,0.0,0.0,0.0,0.0,0.0,0.0,0.0,0.0,0.0,0.0,0.0,0.0,0.0,0.0,0.0,0.0,0.0,0.0,0.0,0.0,0.0,0.0,-0.6224,-0.5352,-0.5506,-0.5276,-0.4564,-0.4633,-0.4543,-0.4298,-0.4067,-0.3599,-0.3019,-0.3569,-0.3594,-0.3181,-0.2933,-0.2627,-0.2317,-0.2486,-0.2273,-0.1807,-0.1906,-0.1546,-0.0989,-0.1234,-0.1091,-0.0841,-0.1119,-0.1202,-0.1147,-0.084,-0.0476,-0.014,-0.0168,0.0,0.0223,0.0391,0.0363,0.0447,0.1146,0.0935,0.0611,0.0984,0.0094,-0.0939,-0.1269,-0.1311,-0.1277,-0.1311,-0.0626,0.0,0.0166,0.0752,0.1223,0.132,0.0962,0.0609,0.0421,0.0627,0.0894,0.117,0.1259,0.1434,0.171,0.2021,0.225,0.2309,0.2513,0.2762,0.31,0.3159,0.283,0.2049,0.1794,0.1682,0.171,0.1989,0.2132,0.2161,0.2703,0.295,-1.4094,-1.4582,-1.5074,-1.4661,-1.4553,-1.4334,0.0,0.0,-1.2906,0.0,0.0,0.0,0.0,0.0,0.0,0.0,0.0,0.0,0.0,0.0,0.0,0.0,0.0,0.0,0.0,0.0,0.0,0.0,0.0,0.0,0.0,-0.5477,-0.5188,-0.4637,-0.4545,-0.4333,-0.3937,-0.383,-0.3685,-0.3552,-0.31,-0.2794,-0.2577,-0.2378,-0.232,-0.235,-0.1958,-0.1677,-0.1453,-0.126,-0.1112,-0.1051,-0.0933,-0.0655,-0.0321,-0.0227,0.0084,0.0449,0.042,0.0392,0.042,0.0587,0.0755,0.0866,0.0754,0.0838,0.1006,0.1313,0.1398,0.1538,0.2155,0.2072,0.1847,0.1776,0.1576,0.1071,0.0,-0.0067,0.0,-0.0168,0.0635,0.1259,0.1007,0.1806,0.2315,0.1868,0.1829,0.1833,0.1694,0.1806,0.1928,0.2036,0.2354,0.257,0.2624,0.3204,0.3663,0.3964,0.4164,0.4436,0.4753,0.5044,0.515,0.5039,0.3783,0.3185,0.3308,0.3628,0.3848,0.3964,0.423,0.433,-1.3659,-1.3861,-1.4049,-1.3736,-1.3501,-1.3117,-1.2455,-1.2095,-1.1764,0.0,0.0,0.0,0.0,0.0,0.0,0.0,0.0,0.0,0.0,0.0,0.0,0.0,0.0,0.0,0.0,0.0,0.0,0.0,0.0,0.0,-0.4495,-0.4487,-0.4208,-0.3669,-0.3629,0.0,-0.2907,-0.2766,-0.2683,-0.2601,-0.1986,-0.1652,-0.1597,-0.1092,-0.1092,-0.1457,-0.1204,-0.0812,-0.0336,-0.0308,-0.0141,0.0086,-0.0028,0.017,0.0515,0.0507,0.0672,0.0924,0.0924,0.0924,0.0952,0.1202,0.1482,0.1734,0.179,0.1956,0.215,0.2374,0.2432,0.2516,0.291,0.2791,0.2543,0.2485,0.2235,0.1888,0.1341,0.1109,0.1075,0.1309,0.1913,0.2441,0.2574,0.2996,0.3195,0.2834,0.274,0.268,0.2547,0.2627,0.272,0.2753,0.3185,0.3486,0.3486,0.4157,0.4681,0.4902,0.5132,0.5487,0.5979,0.6133,0.6334,0.6602,0.5498,0.4951,0.5012,0.5287,0.5485,0.5543,0.5896,0.6069,-1.2986,-1.2965,-1.2869,-1.2677,-1.238,-1.1937,0.0,0.0,0.0,0.0,0.0,0.0,0.0,0.0,0.0,0.0,0.0,0.0,0.0,0.0,0.0,0.0,0.0,0.0,0.0,0.0,0.0,0.0,0.0,0.0,-0.3542,-0.353,-0.3274,-0.2673,-0.2645,-0.2404,-0.1875,-0.1764,-0.1708,-0.1708,-0.1037,-0.0729,-0.0701,-0.014,-0.0084,-0.0393,-0.0364,0.0,0.0561,0.0505,0.0704,0.1049,0.0872,0.0986,0.1277,0.1294,0.1372,0.1454,0.1536,0.1564,0.1592,0.19,0.2209,0.2547,0.2687,0.2882,0.3102,0.3241,0.3269,0.3325,0.3552,0.3384,0.3136,0.3099,0.2851,0.2533,0.2318,0.2018,0.1983,0.2551,0.2987,0.3424,0.3956,0.4123,0.409,0.3754,0.3689,0.3591,0.3357,0.3525,0.367,0.3662,0.4102,0.4395,0.4325,0.5,0.5531,0.5723,0.5954,0.6342,0.6926,0.7021,0.7286,0.7744,0.7228,0.6817,0.6516,0.6724,0.6854,0.6953,0.7362,0.76,-1.1424,-1.1371,-1.1189,-1.1142,-1.1102,-1.0868,0.0,0.0,0.0,0.0,0.0,0.0,0.0,0.0,0.0,0.0,0.0,0.0,0.0,0.0,0.0,0.0,0.0,0.0,0.0,0.0,0.0,0.0,0.0,0.0,-0.2834,-0.2688,-0.2305,-0.1705,-0.1479,-0.1259,-0.0981,-0.0953,-0.0953,-0.0953,-0.0477,-0.0224,-0.0224,0.0196,0.0617,0.0982,0.0729,0.0785,0.1066,0.1206,0.1371,0.1579,0.1813,0.1854,0.1811,0.2267,0.241,0.2464,0.2713,0.2794,0.2822,0.2963,0.316,0.333,0.3357,0.3444,0.3583,0.3713,0.3769,0.3827,0.4082,0.4014,0.3792,0.36,0.3653,0.3475,0.2576,0.2357,0.2589,0.3286,0.3725,0.4125,0.4649,0.5054,0.5093,0.4356,0.4686,0.4821,0.4287,0.4686,0.4971,0.4927,0.5265,0.5443,0.5246,0.5728,0.6228,0.6593,0.6756,0.7083,0.7614,0.7962,0.8323,0.8705,0.9116,0.8768,0.7608,0.7618,0.779,0.8118,0.8474,0.8737,-1.0612,-1.046,-1.0282,-1.0085,-0.9922,-0.9642,-0.9105,0.0,0.0,0.0,0.0,0.0,0.0,0.0,0.0,0.0,0.0,0.0,0.0,0.0,0.0,0.0,0.0,0.0,0.0,0.0,0.0,0.0,0.0,0.0,-0.1854,-0.1737,-0.1532,-0.1215,-0.103,-0.0687,-0.0196,-0.0112,-0.0142,-0.0318,0.0425,0.068,0.052,0.1159,0.1568,0.1793,0.1709,0.1681,0.1681,0.1821,0.2002,0.2191,0.2278,0.2396,0.2527,0.2697,0.2798,0.291,0.3132,0.3216,0.3272,0.3491,0.3602,0.3688,0.3858,0.3944,0.4027,0.4187,0.4298,0.4411,0.4498,0.4434,0.4277,0.3939,0.3979,0.4073,0.3851,0.3558,0.3391,0.3758,0.4292,0.4824,0.5123,0.5554,0.5749,0.5481,0.555,0.5554,0.5355,0.5507,0.559,0.5572,0.6029,0.6314,0.6344,0.6823,0.7265,0.7629,0.7824,0.8117,0.8501,0.8791,0.9017,0.9253,0.9414,0.9344,0.9049,0.9139,0.9364,0.9678,0.9805,0.9926,-1.0025,-0.9741,-0.954,-0.9376,-0.9033,-0.8679,-0.832,0.0,0.0,0.0,0.0,0.0,0.0,0.0,0.0,0.0,0.0,0.0,0.0,0.0,0.0,0.0,0.0,0.0,0.0,0.0,0.0,0.0,0.0,0.0,-0.1042,-0.0883,-0.0665,-0.0365,-0.0119,0.0232,0.0672,0.0701,0.0595,0.0377,0.1161,0.1389,0.1156,0.1894,0.2268,0.2296,0.2436,0.2406,0.224,0.2324,0.2491,0.2717,0.2772,0.2902,0.3036,0.317,0.3263,0.3347,0.3538,0.3608,0.3635,0.3799,0.3935,0.4076,0.4245,0.4356,0.4463,0.4601,0.4712,0.4809,0.5055,0.5093,0.5035,0.4769,0.4721,0.4785,0.499,0.4556,0.4256,0.4622,0.5054,0.5488,0.5855,0.6152,0.6342,0.6214,0.6218,0.6209,0.6163,0.6267,0.6348,0.6322,0.6769,0.7107,0.7164,0.7605,0.8019,0.829,0.8414,0.8641,0.8926,0.9055,0.9215,0.9446,0.9478,0.9542,0.9638,0.9766,1.0047,1.0421,1.0485,1.0691,0.0,0.0,0.0,0.0,0.0,0.0,-0.7708,0.0,0.0,0.0,0.0,0.0,0.0,0.0,0.0,0.0,0.0,0.0,0.0,0.0,0.0,0.0,0.0,0.0,0.0,0.0,0.0,0.0,0.0,-0.047,-0.047,-0.0164,0.0314,0.0886,0.1237,0.1477,0.1595,0.1429,0.1263,0.1125,0.1737,0.1878,0.1661,0.2385,0.2663,0.2549,0.2938,0.2965,0.2747,0.2719,0.2884,0.313,0.3332,0.3372,0.3365,0.3711,0.3829,0.383,0.3966,0.4033,0.4033,0.403,0.4249,0.4522,0.4519,0.4708,0.4928,0.4928,0.4928,0.5076,0.573,0.6018,0.61,0.6108,0.5891,0.5716,0.5888,0.5385,0.5113,0.5943,0.6017,0.6119,0.6782,0.6913,0.6815,0.6486,0.6721,0.6884,0.6754,0.7027,0.725,0.7224,0.7573,0.7806,0.7726,0.8093,0.8382,0.8495,0.8522,0.8619,0.8802,0.884,0.8996,0.9306,0.946,0.946,0.9338,0.9446,0.9798,1.0301,1.0446,1.0919,-0.9211,0.0,0.0,0.0,0.0,0.0,0.0,0.0,0.0,0.0,0.0,0.0,0.0,0.0,0.0,0.0,0.0,0.0,0.0,0.0,0.0,0.0,0.0,0.0,0.0,0.0,0.0,0.0,0.0,0.0168,0.0437,0.061,0.086,0.1181,0.1268,0.1473,0.1738,0.1877,0.1894,0.1771,0.2375,0.2523,0.2335,0.2945,0.319,0.3163,0.3357,0.3469,0.3494,0.3388,0.3441,0.361,0.3786,0.3874,0.3972,0.4231,0.4303,0.433,0.4475,0.4492,0.4536,0.4609,0.4719,0.4809,0.4914,0.5042,0.5211,0.5371,0.5485,0.5665,0.6133,0.6277,0.6376,0.6608,0.672,0.6826,0.6999,0.69,0.6629,0.6174,0.6313,0.6609,0.704,0.7307,0.7503,0.7563,0.7754,0.7837,0.7657,0.7897,0.802,0.7881,0.802,0.8214,0.8342,0.8545,0.872,0.884,0.9167,0.9321,0.9157,0.9592,0.9768,0.9676,0.9702,0.9728,0.9792,0.9862,1.0072,1.0465,1.0991,1.1418,-0.9215,-0.8668,-0.817,0.0,0.0,0.0,-0.6482,-0.614,0.0,0.0,0.0,0.0,0.0,0.0,0.0,0.0,0.0,0.0,0.0,0.0,0.0,0.0,0.0,0.0,0.0,0.0,0.0,0.0,0.0471,0.074,0.1244,0.1402,0.1612,0.1839,0.1843,0.1986,0.2306,0.2414,0.2432,0.2311,0.2859,0.298,0.2793,0.3371,0.3579,0.3455,0.3744,0.3858,0.3885,0.3913,0.3904,0.39,0.403,0.4133,0.4231,0.4394,0.455,0.4686,0.4931,0.509,0.5257,0.5407,0.5494,0.553,0.5624,0.5686,0.5804,0.5999,0.6315,0.6591,0.6556,0.693,0.7262,0.7202,0.746,0.7739,0.7722,0.7814,0.7717,0.7031,0.6999,0.7204,0.7498,0.7694,0.7857,0.7987,0.8093,0.8138,0.803,0.8272,0.8447,0.8355,0.8662,0.8923,0.9098,0.9233,0.9393,0.9548,0.9677,0.9756,0.9735,0.9841,0.9917,0.9972,0.9972,1.0037,1.0225,0.988,0.9881,1.0218,1.0887,1.1247,-0.9536,-0.8981,-0.8434,0.0,0.0,0.0,-0.6615,-0.6009,-0.5482,0.0,0.0,0.0,0.0,0.0,0.0,0.0,0.0,0.0,0.0,0.0,0.0,0.0,0.0,0.0,0.0,0.0,0.0237,0.0572,0.0807,0.1242,0.1909,0.2144,0.2348,0.2602,0.2596,0.2713,0.2954,0.2946,0.289,0.2743,0.3218,0.3333,0.3086,0.3751,0.3886,0.364,0.409,0.42,0.4113,0.4349,0.432,0.4129,0.4195,0.4295,0.439,0.4461,0.4731,0.5113,0.5404,0.5777,0.6111,0.6246,0.6362,0.644,0.6422,0.6422,0.6461,0.6697,0.7188,0.7567,0.7059,0.7679,0.8361,0.7892,0.8154,0.8463,0.8209,0.8366,0.8463,0.8177,0.7922,0.7797,0.8019,0.8052,0.8084,0.8117,0.8158,0.82,0.8156,0.8533,0.8801,0.8815,0.9324,0.9686,0.9843,1.001,1.0177,1.0233,1.0088,1.0057,1.0236,0.988,0.989,1.0234,1.0267,1.0367,1.0506,0.976,0.9568,0.9868,1.0523,1.0744,0.0,0.0,0.0,0.0,0.0,0.0,-0.6553,-0.5998,-0.5491,0.0,0.0,0.0,0.0,0.0,0.0,0.0,0.0,0.0,0.0,0.0,0.0,0.0,0.0,0.0,0.0,0.0,0.0964,0.1145,0.1614,0.1998,0.2213,0.2406,0.2567,0.268,0.2693,0.2714,0.2745,0.3106,0.3196,0.2954,0.3586,0.3775,0.3578,0.4146,0.4371,0.4313,0.4641,0.4762,0.4731,0.4789,0.4797,0.4786,0.4603,0.4902,0.5388,0.5259,0.5585,0.6134,0.6193,0.6432,0.6724,0.676,0.6715,0.6626,0.6652,0.6607,0.6637,0.6936,0.723,0.7506,0.7639,0.7964,0.8378,0.8845,0.886,0.8829,0.9139,0.8952,0.8765,0.8791,0.8339,0.8052,0.8349,0.8414,0.8511,0.8759,0.917,0.9375,0.9216,0.959,0.9835,0.9697,0.9871,1.0017,1.0044,1.0178,1.0193,0.9997,1.0328,1.0343,0.9919,1.0582,1.0833,1.0605,1.0764,1.0731,1.0506,1.0232,1.0129,1.0212,1.0618,1.0776,0.0,0.0,0.0,-0.8333,0.0,0.0,0.0,-0.6067,-0.5463,-0.5155,0.0,0.0,0.0,0.0,0.0,0.0,0.0,0.0,0.0,0.0,0.0,0.0,0.0,0.0,0.0,0.0,0.1386,0.1719,0.2287,0.2641,0.2735,0.2931,0.3077,0.3097,0.307,0.3065,0.3095,0.3308,0.337,0.3306,0.3784,0.3967,0.3933,0.4444,0.475,0.4816,0.4975,0.5085,0.5151,0.514,0.5269,0.5419,0.4996,0.5135,0.5537,0.5439,0.5756,0.628,0.6572,0.6999,0.7437,0.7462,0.7528,0.7577,0.7407,0.7368,0.743,0.7529,0.7752,0.7939,0.7902,0.8331,0.8797,0.896,0.9253,0.9506,0.9592,0.9567,0.9533,0.9433,0.9131,0.8924,0.8937,0.8948,0.9053,0.9349,0.9616,0.9747,0.9648,1.0071,1.0299,1.0225,1.0441,1.0588,1.0588,1.0761,1.0802,1.0673,1.0738,1.0719,1.0553,1.0776,1.0983,1.1155,1.1384,1.1451,1.1343,1.132,1.099,1.0396,1.0681,1.0839,0.0,0.0,0.0,0.0,0.0,-0.7518,0.0,0.0,0.0,-0.5201,0.0,0.0,0.0,0.0,0.0,0.0,0.0,0.0,0.0,0.0,0.0,0.0,0.0,0.0,0.0,0.0,0.1757,0.2258,0.2723,0.3092,0.3261,0.3397,0.3531,0.3563,0.3503,0.3487,0.3535,0.3485,0.3512,0.3578,0.3911,0.4097,0.4142,0.4713,0.5058,0.516,0.5286,0.5386,0.5494,0.5466,0.5672,0.595,0.5363,0.5349,0.5645,0.5577,0.5885,0.6437,0.6896,0.7521,0.8084,0.8084,0.8247,0.8382,0.8084,0.8112,0.8172,0.8117,0.8317,0.8501,0.8175,0.8673,0.9189,0.8927,0.9456,1.0001,0.9822,1.0037,1.0194,0.9956,0.9887,0.9817,0.957,0.953,0.9604,0.9858,0.9927,0.9956,0.9956,1.0354,1.0622,1.0622,1.0948,1.1149,1.1149,1.1335,1.1459,1.1446,1.1226,1.1201,1.1388,1.1082,1.1211,1.1908,1.2019,1.217,1.2334,1.2351,1.1826,1.08,1.0925,1.1083,0.0,0.0,0.0,0.0,-0.8332,0.0,0.0,0.0,-0.5885,-0.5038,0.0,0.0,0.0,0.0,0.0,0.0,0.0,0.0,0.0,0.0,0.0,0.0,0.0,0.0,0.0,0.0,0.0,0.2621,0.2855,0.3125,0.3464,0.3498,0.3596,0.3758,0.3768,0.3692,0.3595,0.3702,0.366,0.3507,0.4089,0.4296,0.4219,0.4984,0.5339,0.5399,0.5683,0.5819,0.5821,0.5658,0.587,0.6267,0.5629,0.5844,0.6515,0.6137,0.6572,0.7358,0.7563,0.7987,0.8447,0.8447,0.8344,0.8204,0.8047,0.8112,0.8236,0.8414,0.8608,0.8797,0.886,0.8967,0.9107,0.9354,0.9444,0.9628,1.0034,1.0112,1.0165,1.0229,1.0223,1.0182,1.0054,1.0014,1.006,1.0223,1.0455,1.0605,1.0605,1.0833,1.1032,1.1032,1.1242,1.1372,1.1372,1.1558,1.1635,1.1572,1.1771,1.1847,1.1751,1.2089,1.2501,1.3026,1.2657,1.26,1.2915,1.2672,1.2321,1.1833,1.1717,1.1703,0.0,0.0,0.0,0.0,0.0,0.0,-0.7452,0.0,-0.628,0.0,0.0,0.0,0.0,0.0,0.0,0.0,0.0,0.0,0.0,0.0,0.0,0.0,0.0,0.0,0.0,0.0,0.0,0.0,0.0,0.3393,0.3661,0.3961,0.4061,0.3928,0.4126,0.4134,0.3828,0.3956,0.3967,0.3843,0.4315,0.4499,0.4461,0.5199,0.5627,0.5885,0.6088,0.631,0.6476,0.6384,0.6502,0.667,0.6519,0.6675,0.697,0.6802,0.7064,0.7526,0.7661,0.8057,0.8549,0.8738,0.8533,0.8236,0.8409,0.8506,0.8565,0.8732,0.8926,0.9087,0.9017,0.9359,0.97,0.9733,1.0045,1.0387,1.0631,1.0669,1.0713,1.0749,1.0743,1.0785,1.0822,1.0623,1.0503,1.0725,1.0876,1.0985,1.1095,1.1187,1.1335,1.1446,1.1521,1.1632,1.1744,1.1929,1.2104,1.2167,1.2258,1.2266,1.2193,1.2417,1.2735,1.3193,1.3107,1.3192,1.3449,1.3474,1.3396,1.322,1.2775,1.2669,-1.121,0.0,0.0,0.0,0.0,0.0,0.0,0.0,0.0,0.0,0.0,0.0,0.0,0.0,0.0,0.0,0.0,0.0,0.0,0.0,0.0,0.0,0.0,0.0,0.0,0.0,0.0,0.0,0.352,0.0,0.4061,0.449,0.4593,0.4395,0.4599,0.4579,0.4246,0.4296,0.4264,0.4224,0.4535,0.4745,0.4849,0.5445,0.5949,0.6342,0.6482,0.6683,0.6881,0.6848,0.6942,0.7073,0.7232,0.7363,0.7461,0.7368,0.7493,0.7722,0.7857,0.822,0.8641,0.9017,0.8786,0.8436,0.8765,0.8861,0.8894,0.9049,0.9294,0.945,0.9288,0.9811,1.0312,1.0077,1.0561,1.1078,1.1006,1.1144,1.126,1.126,1.126,1.1298,1.1446,1.1138,1.0961,1.123,1.126,1.1335,1.1446,1.1521,1.1632,1.1855,1.1966,1.2114,1.2305,1.2556,1.2813,1.3032,1.3042,1.3034,1.3062,1.3027,1.3179,1.3513,1.363,1.3763,1.3972,1.4114,1.423,1.4285,1.3598,1.3437,0.0,0.0,0.0,-0.9466,0.0,0.0,0.0,0.0,-0.6982,0.0,0.0,0.0,0.0,0.0,-0.2374,-0.1388,-0.0804,0.0,0.0,0.0,0.0,0.0,0.0,0.0,0.0,0.0,0.0,0.0,0.4096,0.0,0.4737,0.4913,0.5095,0.5332,0.5186,0.5019,0.4861,0.469,0.4552,0.4488,0.4766,0.5058,0.5392,0.586,0.6301,0.6708,0.6811,0.6881,0.6881,0.6778,0.6999,0.7493,0.7489,0.7782,0.8139,0.7792,0.7884,0.8204,0.8414,0.8608,0.8867,0.9332,0.9177,0.8802,0.8952,0.8985,0.9049,0.9242,0.9625,0.9968,0.9895,1.0359,1.0764,1.0384,1.0808,1.1222,1.1042,1.1363,1.1669,1.1669,1.1669,1.1669,1.1706,1.1515,1.1434,1.1669,1.1669,1.1669,1.1706,1.1855,1.2077,1.2261,1.2636,1.2936,1.3119,1.3513,1.3905,1.423,1.4302,1.441,1.4517,1.441,1.4346,1.4361,1.4173,1.4165,1.4374,1.4389,1.4569,1.4859,1.4112,1.3766,0.0,0.0,-1.0073,-0.9716,0.0,0.0,0.0,0.0,0.0,0.0,0.0,0.0,0.0,0.0,-0.2507,-0.1552,-0.0777,0.0,0.0,0.0,0.0,0.0,0.0,0.0,0.0,0.0,0.0,0.3927,0.4383,0.4735,0.0,0.5343,0.5545,0.5399,0.5422,0.5295,0.5019,0.495,0.4863,0.469,0.5048,0.5301,0.5415,0.6014,0.6438,0.6708,0.6975,0.7171,0.7297,0.7335,0.7466,0.7661,0.7879,0.8074,0.8204,0.8214,0.8317,0.8474,0.8894,0.9145,0.93,0.9454,0.9332,0.9183,0.9446,0.9376,0.9373,1.0198,1.0291,1.0217,1.0492,1.0846,1.1083,1.0835,1.1183,1.1567,1.1493,1.16,1.1744,1.1855,1.2003,1.2187,1.2452,1.2562,1.2415,1.1966,1.1892,1.2003,1.2261,1.2489,1.2673,1.2863,1.3119,1.3382,1.3572,1.3848,1.4129,1.4489,1.4317,1.4453,1.4955,1.4489,1.4382,1.4732,1.4453,1.4425,1.4721,1.4721,1.4721,1.4713,1.4593,1.4684,-1.0925,-1.0465,0.0,0.0,-0.9438,0.0,-0.8584,0.0,0.0,0.0,0.0,0.0,0.0,0.0,-0.2596,-0.1674,-0.0838,0.0117,0.0,0.2166,0.0,0.0,0.0,0.0,0.0,0.0,0.4225,0.4526,0.4856,0.5138,0.0,0.0,0.5938,0.5746,0.5782,0.5716,0.5554,0.5455,0.5355,0.5289,0.5553,0.5751,0.5885,0.6363,0.6726,0.7003,0.7199,0.7396,0.7591,0.7661,0.7759,0.7884,0.8107,0.8236,0.8339,0.8544,0.8705,0.8926,0.9466,0.9626,0.9626,0.9652,0.9524,0.9428,0.976,0.9702,0.9669,1.0523,1.0659,1.0623,1.0835,1.1266,1.162,1.1476,1.1799,1.215,1.2231,1.2298,1.2378,1.2526,1.2636,1.2826,1.3083,1.3229,1.3119,1.2599,1.2526,1.2636,1.29,1.3083,1.3309,1.3484,1.371,1.3928,1.4188,1.4369,1.4595,1.49,1.4752,1.4868,1.5284,1.4848,1.474,1.5018,1.4776,1.4748,1.4908,1.4908,1.4828,1.4713,1.5007,1.5256]},{"header":{"parameterUnit":"m.s-1","parameterCategory":1,"la1":30.6,"la2":29.2853,"lo1":-89.7004,"lo2":-87.6739,"dy":0.0162,"dx":0.0183,"nx":112,"ny":82,"refTime":"2023-09-22T00:00:00:Z","depth":0,"parameterNumber":3,"parameterNumberName":"V-component_of_WINDS"},"data":[0.0,0.0,0.0,0.0,0.0,0.0,0.0,0.0,0.0,0.0,0.0,0.0,0.0,0.0,0.0,0.0,0.0,0.0,0.0,0.0,0.0,0.0,0.0,0.0,0.0,0.0,0.0,0.0,0.0,0.0,0.0,0.0,0.0,0.0,0.0,0.0,0.0,0.0,0.0,0.0,0.0,0.0,0.0,0.0,0.0,0.0,0.0,0.0,0.0,0.0,0.0,0.0,0.0,0.0,0.0,0.0,0.0,0.0,0.0,0.0,0.0,0.0,0.0,0.0,0.0,0.0,0.0,0.0,0.0,0.0,0.0,0.0,0.0,0.0,0.0,0.0,0.0,0.0,0.0,0.0,0.0,0.0,0.0,0.0,0.0,0.0,0.0,0.0,0.0,0.0,-1.811,-2.0766,-2.4597,-2.7515,-2.8853,-3.0807,-3.0921,-2.8482,0.0,0.0,0.0,0.0,0.0,0.0,0.0,0.0,0.0,0.0,0.0,0.0,0.0,0.0,0.0,0.0,0.0,0.0,0.0,0.0,0.0,0.0,0.0,0.0,0.0,0.0,0.0,0.0,0.0,0.0,0.0,0.0,0.0,0.0,0.0,0.0,0.0,0.0,0.0,0.0,0.0,0.0,0.0,0.0,0.0,0.0,0.0,0.0,0.0,0.0,0.0,0.0,0.0,0.0,0.0,0.0,0.0,0.0,0.0,0.0,0.0,0.0,0.0,0.0,0.0,0.0,0.0,0.0,0.0,0.0,0.0,0.0,0.0,0.0,0.0,0.0,0.0,0.0,0.0,0.0,0.0,0.0,0.0,0.0,0.0,0.0,0.0,0.0,0.0,0.0,0.0,0.0,0.0,0.0,0.0,0.0,0.0,0.0,0.0,0.0,0.0,0.0,0.0,0.0,-1.8322,-2.3054,-2.5721,-2.7493,-2.8341,-2.996,-3.0107,-2.8183,0.0,0.0,0.0,0.0,0.0,0.0,0.0,0.0,0.0,0.0,0.0,0.0,0.0,0.0,0.0,0.0,0.0,0.0,0.0,0.0,0.0,0.0,0.0,0.0,0.0,0.0,0.0,0.0,0.0,0.0,0.0,0.0,0.0,0.0,0.0,0.0,0.0,0.0,0.0,0.0,0.0,0.0,0.0,0.0,0.0,0.0,0.0,0.0,0.0,0.0,0.0,0.0,0.0,0.0,0.0,0.0,0.0,0.0,0.0,0.0,0.0,0.0,0.0,0.0,0.0,0.0,0.0,0.0,0.0,0.0,0.0,0.0,0.0,0.0,0.0,0.0,0.0,0.0,0.0,0.0,0.0,0.0,0.0,0.0,0.0,0.0,0.0,0.0,0.0,0.0,0.0,0.0,0.0,0.0,0.0,0.0,0.0,0.0,0.0,0.0,0.0,0.0,0.0,-1.8101,-2.0694,-2.4701,-2.6345,-2.7584,-2.8646,-2.9794,-2.9779,-2.8164,-2.7868,0.0,0.0,0.0,0.0,0.0,0.0,0.0,0.0,0.0,0.0,0.0,0.0,0.0,0.0,0.0,0.0,0.0,0.0,0.0,0.0,0.0,0.0,0.0,0.0,0.0,0.0,0.0,0.0,0.0,0.0,0.0,0.0,0.0,0.0,0.0,0.0,0.0,0.0,0.0,0.0,0.0,0.0,0.0,0.0,0.0,0.0,0.0,0.0,0.0,0.0,0.0,0.0,0.0,0.0,0.0,0.0,0.0,0.0,0.0,0.0,0.0,0.0,0.0,0.0,0.0,0.0,0.0,0.0,0.0,0.0,0.0,0.0,0.0,0.0,0.0,0.0,0.0,0.0,0.0,0.0,0.0,0.0,0.0,0.0,0.0,0.0,0.0,0.0,0.0,0.0,0.0,0.0,0.0,0.0,0.0,0.0,0.0,0.0,0.0,0.0,0.0,0.0,-2.1349,-2.2973,-2.5407,-2.6562,-2.7571,-2.8743,-2.9386,-2.9202,-2.8006,-2.6878,0.0,0.0,0.0,0.0,0.0,0.0,0.0,0.0,0.0,0.0,0.0,0.0,0.0,0.0,0.0,0.0,0.0,0.0,0.0,0.0,0.0,0.0,0.0,0.0,0.0,0.0,0.0,0.0,0.0,0.0,0.0,0.0,0.0,0.0,0.0,0.0,0.0,0.0,0.0,0.0,0.0,0.0,0.0,0.0,0.0,0.0,0.0,0.0,0.0,0.0,0.0,0.0,0.0,0.0,0.0,0.0,0.0,0.0,0.0,0.0,0.0,0.0,0.0,0.0,0.0,0.0,0.0,0.0,0.0,0.0,0.0,0.0,0.0,0.0,0.0,0.0,0.0,0.0,0.0,0.0,0.0,0.0,0.0,0.0,0.0,0.0,0.0,0.0,0.0,0.0,0.0,0.0,0.0,0.0,0.0,0.0,0.0,0.0,0.0,0.0,0.0,0.0,-2.1704,-2.3929,-2.4716,-2.6246,-2.7423,-2.8013,-2.8055,-2.7866,-2.7405,-2.5672,0.0,0.0,0.0,0.0,0.0,0.0,0.0,0.0,0.0,0.0,0.0,0.0,0.0,0.0,0.0,0.0,0.0,0.0,0.0,0.0,0.0,0.0,0.0,0.0,0.0,0.0,0.0,0.0,0.0,0.0,0.0,0.0,0.0,0.0,0.0,0.0,0.0,0.0,0.0,0.0,0.0,0.0,0.0,0.0,0.0,0.0,0.0,0.0,0.0,0.0,0.0,0.0,0.0,0.0,0.0,0.0,0.0,0.0,0.0,0.0,0.0,0.0,0.0,0.0,0.0,0.0,0.0,0.0,0.0,0.0,0.0,0.0,0.0,0.0,0.0,0.0,0.0,0.0,0.0,0.0,0.0,0.0,0.0,0.0,0.0,0.0,0.0,0.0,0.0,0.0,0.0,0.0,0.0,0.0,0.0,0.0,0.0,0.0,0.0,0.0,0.0,0.0,-2.125,-2.3206,0.0,-2.6243,-2.7178,-2.7954,-2.8301,-2.7953,-2.6571,0.0,0.0,0.0,0.0,0.0,0.0,0.0,0.0,0.0,0.0,0.0,0.0,0.0,0.0,0.0,0.0,0.0,0.0,0.0,0.0,0.0,0.0,0.0,0.0,0.0,0.0,0.0,0.0,0.0,0.0,0.0,0.0,0.0,0.0,0.0,0.0,0.0,0.0,0.0,0.0,0.0,0.0,0.0,0.0,0.0,0.0,0.0,0.0,0.0,0.0,0.0,0.0,0.0,0.0,0.0,0.0,0.0,0.0,0.0,0.0,0.0,0.0,0.0,0.0,0.0,0.0,0.0,0.0,0.0,0.0,0.0,0.0,0.0,0.0,0.0,0.0,0.0,0.0,0.0,0.0,0.0,0.0,0.0,0.0,0.0,0.0,0.0,0.0,0.0,0.0,0.0,0.0,0.0,0.0,0.0,0.0,0.0,0.0,0.0,0.0,0.0,0.0,-1.9336,-2.1129,-2.2894,0.0,-2.5672,-2.64,-2.7221,-2.755,-2.7102,-2.5685,0.0,0.0,0.0,0.0,0.0,0.0,0.0,0.0,0.0,0.0,0.0,0.0,0.0,0.0,0.0,0.0,0.0,0.0,0.0,0.0,0.0,0.0,0.0,0.0,0.0,0.0,0.0,0.0,0.0,0.0,0.0,0.0,0.0,0.0,0.0,0.0,0.0,0.0,0.0,0.0,0.0,0.0,0.0,0.0,0.0,0.0,0.0,0.0,0.0,0.0,0.0,0.0,0.0,0.0,0.0,0.0,0.0,0.0,0.0,0.0,0.0,0.0,0.0,0.0,0.0,0.0,0.0,0.0,0.0,0.0,0.0,0.0,0.0,0.0,0.0,0.0,0.0,0.0,0.0,0.0,0.0,0.0,0.0,0.0,0.0,0.0,0.0,0.0,0.0,0.0,0.0,0.0,0.0,0.0,0.0,0.0,0.0,0.0,0.0,0.0,0.0,0.0,-1.9114,-2.1471,-2.3245,-2.3921,-2.4496,-2.5074,-2.573,-2.5365,-2.4995,0.0,0.0,0.0,0.0,0.0,0.0,0.0,0.0,0.0,0.0,0.0,0.0,0.0,0.0,0.0,0.0,0.0,0.0,0.0,0.0,0.0,0.0,0.0,0.0,0.0,0.0,0.0,0.0,0.0,0.0,0.0,0.0,0.0,0.0,0.0,0.0,0.0,0.0,0.0,0.0,0.0,0.0,0.0,0.0,0.0,0.0,0.0,0.0,0.0,0.0,0.0,0.0,0.0,0.0,0.0,0.0,0.0,0.0,0.0,0.0,0.0,0.0,0.0,0.0,0.0,0.0,0.0,0.0,0.0,0.0,0.0,0.0,0.0,0.0,0.0,0.0,0.0,0.0,0.0,0.0,0.0,0.0,0.0,0.0,0.0,0.0,0.0,0.0,0.0,0.0,0.0,0.0,0.0,0.0,0.0,0.0,0.0,0.0,0.0,0.0,0.0,0.0,0.0,-1.9259,-2.1483,-2.3213,-2.4106,-2.4463,-2.4861,-2.5402,-2.5575,-2.5067,-2.3674,0.0,0.0,0.0,0.0,0.0,0.0,0.0,0.0,0.0,0.0,0.0,0.0,0.0,0.0,0.0,0.0,0.0,0.0,0.0,0.0,0.0,0.0,0.0,0.0,0.0,0.0,0.0,0.0,0.0,0.0,0.0,0.0,0.0,0.0,0.0,0.0,0.0,0.0,0.0,0.0,0.0,0.0,0.0,0.0,0.0,0.0,0.0,0.0,0.0,0.0,0.0,0.0,0.0,0.0,0.0,0.0,0.0,0.0,0.0,0.0,0.0,0.0,0.0,0.0,0.0,0.0,0.0,0.0,0.0,0.0,0.0,0.0,0.0,0.0,0.0,0.0,0.0,0.0,0.0,0.0,0.0,0.0,0.0,0.0,0.0,0.0,0.0,0.0,0.0,0.0,0.0,0.0,0.0,0.0,0.0,0.0,0.0,0.0,0.0,0.0,0.0,0.0,-1.8856,-2.1102,-2.274,-2.3277,-2.3703,-2.4082,-2.4498,-2.4869,-2.4473,-2.3077,0.0,0.0,0.0,0.0,0.0,0.0,0.0,0.0,0.0,0.0,0.0,0.0,0.0,0.0,0.0,0.0,0.0,0.0,0.0,0.0,0.0,0.0,0.0,0.0,0.0,0.0,0.0,0.0,0.0,0.0,0.0,0.0,0.0,0.0,0.0,0.0,0.0,0.0,0.0,0.0,0.0,0.0,0.0,0.0,0.0,0.0,0.0,0.0,0.0,0.0,0.0,0.0,0.0,0.0,0.0,0.0,0.0,0.0,0.0,0.0,0.0,0.0,0.0,0.0,0.0,0.0,0.0,0.0,0.0,0.0,0.0,0.0,0.0,0.0,0.0,0.0,0.0,0.0,0.0,0.0,0.0,0.0,0.0,0.0,0.0,0.0,0.0,0.0,0.0,0.0,0.0,0.0,0.0,0.0,0.0,0.0,0.0,0.0,0.0,0.0,0.0,0.0,-1.8118,-2.0464,-2.197,-2.1906,-2.2401,-2.2899,-2.3278,-2.359,-2.3469,-2.2825,0.0,0.0,0.0,0.0,0.0,0.0,0.0,0.0,0.0,0.0,0.0,0.0,0.0,0.0,0.0,0.0,0.0,0.0,0.0,0.0,0.0,0.0,0.0,0.0,0.0,0.0,0.0,0.0,0.0,0.0,0.0,0.0,0.0,0.0,0.0,0.0,0.0,0.0,0.0,0.0,0.0,0.0,0.0,0.0,0.0,0.0,0.0,0.0,0.0,0.0,0.0,0.0,0.0,0.0,0.0,0.0,0.0,0.0,0.0,0.0,-0.9865,0.0,0.0,0.0,0.0,0.0,0.0,0.0,0.0,0.0,0.0,0.0,0.0,0.0,0.0,0.0,0.0,0.0,0.0,0.0,0.0,0.0,0.0,0.0,0.0,0.0,0.0,0.0,0.0,0.0,0.0,0.0,0.0,0.0,0.0,0.0,0.0,0.0,0.0,0.0,0.0,0.0,-1.8127,-1.9984,-2.1308,-2.1718,-2.173,-2.2008,-2.2707,-2.3053,-2.311,-2.2737,-2.2351,0.0,0.0,0.0,0.0,0.0,0.0,0.0,0.0,0.0,0.0,0.0,0.0,0.0,0.0,0.0,0.0,0.0,0.0,0.0,0.0,0.0,0.0,0.0,0.0,0.0,0.0,0.0,0.0,0.0,0.0,0.0,0.0,0.0,0.0,0.0,0.0,0.0,0.0,0.0,0.0,0.0,0.0,0.0,0.0,0.0,0.0,0.0,0.0,0.0,0.0,0.0,0.0,0.0,0.0,0.0,0.0,0.0,0.0,0.0,0.0,-1.0372,0.0,0.0,0.0,0.0,0.0,0.0,0.0,0.0,0.0,0.0,0.0,0.0,0.0,0.0,0.0,0.0,0.0,0.0,0.0,0.0,0.0,0.0,0.0,0.0,0.0,0.0,0.0,0.0,0.0,0.0,0.0,0.0,0.0,0.0,0.0,0.0,0.0,0.0,0.0,0.0,-1.7441,-1.9077,-2.0193,-2.0422,-2.0924,-2.1502,-2.2109,-2.2524,-2.2808,-2.2889,-2.2418,0.0,0.0,0.0,0.0,0.0,0.0,0.0,0.0,0.0,0.0,0.0,0.0,0.0,0.0,0.0,0.0,0.0,0.0,0.0,0.0,0.0,0.0,0.0,0.0,0.0,0.0,0.0,0.0,0.0,0.0,0.0,0.0,0.0,0.0,0.0,0.0,0.0,0.0,0.0,0.0,0.0,0.0,0.0,0.0,0.0,0.0,0.0,0.0,0.0,0.0,0.0,0.0,0.0,0.0,-0.3156,-0.3851,-0.5071,-0.6073,-0.7017,-0.8431,-0.9785,-1.0957,0.0,0.0,0.0,0.0,0.0,0.0,0.0,0.0,0.0,0.0,0.0,0.0,0.0,0.0,0.0,0.0,0.0,0.0,0.0,0.0,0.0,0.0,0.0,0.0,0.0,-1.6766,-1.7153,0.0,0.0,0.0,0.0,0.0,0.0,0.0,0.0,0.0,0.0,0.0,0.0,-1.6514,-1.8017,-1.8972,-1.8922,-1.9952,-2.0823,-2.1319,-2.1765,-2.2191,-2.2701,-2.2148,-2.172,0.0,0.0,0.0,0.0,0.0,0.0,0.0,0.0,0.0,0.0,0.0,0.0,0.0,0.0,0.0,0.0,0.0,0.0,0.0,0.0,0.0,0.0,0.0,0.0,0.0,0.0,0.0,0.0,0.0,0.0,0.0,0.0,0.6088,0.57,0.0,0.0,0.0,0.0,0.0,0.0,0.0,0.0,0.0,0.0,0.0,0.0,0.0,0.0,0.0752,-0.0312,-0.1048,-0.1442,-0.2487,-0.3288,-0.3935,-0.5126,-0.5985,-0.6607,-0.7482,0.0,-0.988,-1.0635,0.0,0.0,0.0,0.0,0.0,0.0,0.0,0.0,0.0,0.0,0.0,0.0,0.0,0.0,0.0,0.0,0.0,0.0,0.0,0.0,0.0,0.0,-1.6557,-1.7689,-1.7563,-1.7452,0.0,-1.6788,-1.5199,-1.4343,0.0,0.0,0.0,0.0,0.0,0.0,0.0,0.0,-1.5957,-1.7086,-1.7904,-1.8133,-1.8574,-1.9144,-1.9894,-2.0217,-2.0638,-2.117,-2.1094,-2.1429,-2.2313,-2.1171,0.0,0.0,0.0,0.0,0.0,0.0,0.0,0.0,0.0,0.0,0.0,0.0,0.0,0.0,0.0,0.0,0.0,0.0,0.0,0.0,0.0,0.0,0.0,0.0,0.0,0.0,0.0,0.0,0.0,0.6785,0.6508,0.6017,0.6006,0.5741,0.0,0.0,0.0,0.0,0.0,0.0,0.0,0.0,0.0,0.2561,0.2091,0.1585,0.0951,0.0054,-0.0656,-0.1247,-0.2108,-0.2848,-0.349,-0.466,-0.551,-0.6098,-0.6774,-0.767,-0.8834,-0.9834,-1.0779,-1.1651,0.0,0.0,0.0,0.0,0.0,-1.5285,-1.5976,0.0,0.0,0.0,0.0,0.0,0.0,0.0,0.0,0.0,0.0,0.0,0.0,0.0,0.0,-1.6754,-1.7122,-1.7349,-1.7739,-1.6986,-1.6019,0.0,-1.477,-1.4155,-1.27,0.0,0.0,0.0,0.0,0.0,-1.5687,-1.635,-1.688,-1.7032,-1.7594,-1.8214,-1.8957,-1.9558,-2.0111,-2.0689,-2.0837,-2.1051,-2.1412,-2.0991,-2.0644,0.0,0.0,0.0,0.0,0.0,0.0,0.0,0.0,0.0,0.0,0.0,0.0,0.0,0.0,0.0,0.0,0.0,0.0,0.0,0.0,0.0,0.0,0.0,0.0,0.0,0.0,0.0,0.0,0.719,0.7044,0.6387,0.6373,0.6117,0.0,0.0,0.0,0.0,0.0,0.0,0.3751,0.3275,0.2846,0.2488,0.2127,0.1603,0.1046,0.0448,-0.0282,-0.1121,-0.1795,-0.2462,-0.3116,-0.4065,-0.4847,-0.5575,-0.6031,-0.6791,-0.7842,-0.9035,-1.0116,-1.1115,-1.1506,-1.2335,-1.3363,-1.3908,-1.4601,-1.5407,-1.608,-1.6094,-1.584,-1.556,0.0,-1.4615,-1.4174,0.0,0.0,0.0,0.0,-1.4302,-1.4545,0.0,-1.5409,-1.5836,-1.65,-1.6967,-1.6949,-1.6593,-1.6124,0.0,-1.5405,-1.4954,-1.3388,0.0,0.0,0.0,0.0,-1.5104,-1.5301,-1.5691,-1.6004,-1.6098,-1.6719,-1.7431,-1.8135,-1.8833,-1.9454,-1.9939,-2.0165,-2.0364,-2.0463,-2.0542,-2.0397,-1.994,0.0,0.0,0.0,0.0,0.0,0.0,0.0,0.0,0.0,0.0,0.0,0.0,0.0,0.0,0.0,0.0,0.0,0.0,0.0,0.0,0.0,0.0,0.0,0.0,0.0,0.0,0.0,0.0,0.0,0.6755,0.6691,0.0,0.0,0.0,0.0,0.4785,0.4355,0.3927,0.3606,0.358,0.3186,0.2402,0.2445,0.1936,0.0896,0.0626,0.0,-0.0897,-0.1514,-0.2224,-0.3007,-0.3388,-0.4169,-0.5216,-0.5118,-0.5751,-0.6951,-0.8223,-0.948,-1.0608,-1.1113,-1.2042,-1.31,-1.3644,-1.4358,-1.5145,-1.5169,-1.5009,-1.4892,-1.5418,-1.5257,-1.4811,-1.434,-1.4097,0.0,0.0,-1.4337,-1.468,-1.5164,-1.526,-1.5445,-1.5984,-1.6139,-1.6212,-1.647,-1.5712,-1.5045,0.0,-1.5168,-1.4759,-1.3898,0.0,-1.4589,-1.4311,-1.4751,-1.4974,-1.4604,-1.5013,-1.5432,-1.5615,-1.5963,-1.6491,-1.7283,-1.7756,-1.8071,-1.8219,-1.8534,-1.9153,-2.0071,-1.9582,-1.9861,-2.1095,-1.9683,0.0,0.0,0.0,0.0,0.0,0.0,0.0,0.0,0.0,0.0,0.0,0.0,0.0,0.0,0.0,0.0,0.0,0.0,0.0,0.0,0.0,0.0,0.0,0.0,0.0,0.0,0.0,0.0,0.755,0.7028,0.0,0.6269,0.5834,0.5474,0.5279,0.4825,0.4365,0.4003,0.3668,0.3303,0.2857,0.2313,0.1872,0.1482,0.0794,0.017,-0.0342,-0.1115,-0.1704,-0.2184,-0.299,-0.3582,-0.4028,-0.4618,-0.5293,-0.6054,-0.6998,-0.83,-0.9754,-1.0613,-1.1518,-1.2442,-1.3003,-1.3778,-1.452,-1.452,-1.4363,-1.4174,-1.4054,-1.4093,-1.4224,-1.4045,-1.4229,-1.4442,-1.4266,-1.4513,-1.4826,-1.463,-1.4713,-1.4744,-1.4606,-1.4618,-1.461,-1.431,-1.4125,-1.3926,-1.3743,-1.3947,-1.3969,-1.3338,-1.3901,-1.4353,-1.4132,-1.4638,-1.4916,-1.4549,-1.4874,-1.5171,-1.5342,-1.5536,-1.6028,-1.6902,-1.719,-1.7429,-1.77,-1.7991,-1.8317,-1.8666,-1.8546,-1.8817,-1.9501,-1.8987,-1.8478,0.0,0.0,0.0,0.0,0.0,0.0,0.0,0.0,0.0,0.0,0.0,0.0,0.0,0.0,0.0,0.0,0.0,0.0,0.0,0.0,0.0,0.0,0.0,0.0,0.0,0.0,0.8621,0.7997,0.7463,0.7003,0.6614,0.6271,0.5945,0.5638,0.5188,0.4781,0.4523,0.3918,0.349,0.3249,0.2593,0.2098,0.1825,0.1191,0.0565,0.0,-0.0608,-0.1141,-0.1718,-0.2412,-0.2947,-0.3288,-0.3954,-0.4665,-0.5333,-0.5985,-0.7102,-0.8485,-0.9718,-1.0803,-1.1782,-1.2387,-1.3093,-1.3771,-1.3667,-1.3565,-1.3422,-1.2981,-1.319,-1.3511,-1.3515,-1.3778,-1.4064,-1.4037,-1.4287,-1.4448,-1.4159,-1.4052,-1.39,-1.3452,-1.3324,-1.3162,-1.2748,-1.2782,-1.2751,-1.2349,-1.302,-1.3576,-1.3175,-1.3797,-1.4243,-1.3965,-1.4452,-1.4722,-1.4312,-1.4645,-1.4961,-1.5176,-1.542,-1.5902,-1.6722,-1.7004,-1.72,-1.7423,-1.7617,-1.7717,-1.776,-1.7744,-1.7961,-1.8462,-1.8141,-1.7836,-1.7543,0.0,0.0,0.0,0.0,0.0,0.0,0.0,0.0,0.0,0.0,0.0,0.0,0.0,0.0,0.0,0.0,0.0,0.0,0.0,0.0,0.0,0.0,0.0,0.9291,0.9302,0.9027,0.807,0.8002,0.759,0.6542,0.6442,0.6239,0.584,0.5422,0.511,0.5112,0.44,0.3923,0.3643,0.3359,0.2792,0.1851,0.1823,0.1186,0.0055,0.0,-0.059,-0.1658,-0.1658,-0.2206,-0.318,-0.318,-0.3783,-0.479,-0.5284,-0.6007,-0.6915,-0.8541,-0.9938,-1.1126,-1.1732,-1.2327,-1.2812,-1.2643,-1.2593,-1.2602,-1.2433,-1.2506,-1.2753,-1.2742,-1.2764,-1.2907,-1.3397,-1.3553,-1.357,-1.3724,-1.3404,-1.2959,-1.2734,-1.2292,-1.1964,-1.1951,-1.1745,-1.149,-1.1222,-1.2474,-1.357,-1.3462,-1.3947,-1.4227,-1.3837,-1.4224,0.0,-1.3873,-1.433,-1.4824,-1.5147,-1.5613,-1.6142,-1.6733,-1.7071,-1.7278,-1.7256,-1.7256,-1.7329,-1.7446,-1.7129,-1.7329,-1.8147,-1.7287,-1.687,-1.7011,0.0,0.0,0.0,0.0,0.0,0.0,0.0,0.0,0.0,0.0,0.0,0.0,0.0,0.0,0.0,0.0,0.0,0.0,0.0,0.0,0.0,0.0,1.122,1.0017,0.9675,0.9501,0.9322,0.8674,0.8175,0.7826,0.7382,0.6941,0.6411,0.6153,0.5774,0.5202,0.498,0.4702,0.4255,0.3771,0.3266,0.2746,0.2115,0.149,0.0929,0.032,-0.0262,-0.0778,-0.1177,-0.1725,-0.2374,-0.2726,-0.3179,-0.3734,-0.4609,-0.5435,-0.6326,-0.7962,-0.9229,-1.0253,-1.0857,-1.1372,-1.1759,-1.1755,-1.1682,-1.1536,-1.1125,-1.1451,-1.1946,-1.161,-1.1984,-1.2463,-1.2276,-1.238,-1.2522,-1.2517,-1.2165,-1.1856,-1.172,-1.1365,-1.0934,-1.0573,-1.0404,-1.0358,-1.039,-1.1108,-1.1772,-1.2123,-1.2788,-1.3266,-1.3428,0.0,0.0,-1.3808,-1.433,-1.4804,-1.502,-1.5546,-1.6087,-1.6488,-1.6602,-1.6595,0.0,-1.6444,-1.646,-1.6488,-1.6406,-1.6565,-1.7034,-1.7305,-1.7299,0.0,0.0,0.0,0.0,0.0,0.0,0.0,0.0,0.0,0.0,0.0,0.0,0.0,0.0,0.0,0.0,0.0,0.0,0.0,0.0,0.0,0.0,1.2242,1.2068,1.1015,1.0461,1.007,0.9904,0.9287,0.8746,0.8296,0.7899,0.7382,0.6824,0.6626,0.6225,0.5501,0.531,0.5049,0.4654,0.4047,0.3617,0.3306,0.2554,0.192,0.146,0.0848,0.026,-0.0257,-0.0558,-0.1111,0.0,-0.2271,-0.2725,-0.3281,-0.3984,-0.4788,0.0,0.0,0.0,0.0,0.0,-1.0891,-1.1301,-1.1126,-1.1079,-1.0933,-1.0491,-1.0795,-1.1235,-1.0694,-1.1079,-1.1553,-1.1229,-1.1267,-1.138,-1.1441,-1.1134,-1.0796,-1.0768,-1.0346,-0.99,-0.9594,-0.9446,-0.941,-0.9412,0.0,0.0,-1.0618,-1.1761,-1.2612,-1.2664,-1.2989,-1.3216,0.0,-1.4061,-1.4656,-1.4784,-1.5517,-1.6105,-1.6374,-1.6413,0.0,0.0,0.0,-1.6154,-1.622,-1.622,0.0,0.0,0.0,-1.7092,0.0,0.0,0.0,0.0,-1.7597,-1.7137,0.0,0.0,0.0,0.0,0.0,0.0,0.0,0.0,0.0,0.0,0.0,0.0,0.0,0.0,0.0,0.0,1.287,1.2863,1.2209,1.1402,1.0714,1.016,0.9842,0.9313,0.8404,0.8173,0.7818,0.7183,0.6945,0.6597,0.5921,0.0,0.0,0.0,0.0,0.3897,0.3622,0.3067,0.2417,0.1757,0.1488,0.0889,0.0102,0.0051,-0.0506,-0.152,-0.1768,-0.2371,-0.3079,-0.3433,-0.4126,-0.5113,-0.6321,-0.7611,-0.8901,-0.9907,-1.0645,0.0,0.0,0.0,0.0,-1.0132,-1.0329,-1.0612,-0.998,-1.0168,-1.0484,-1.0239,-1.0177,-1.0215,-1.0423,-1.0129,-0.9728,-0.9805,-0.9343,-0.886,-0.8871,-0.8713,-0.8543,-0.8387,-0.8618,-0.8908,-0.9122,-1.0773,-1.199,-1.1763,-1.2282,0.0,-1.2596,-1.3666,-1.4451,-1.4444,0.0,0.0,-1.6278,-1.6247,-1.6244,-1.6273,-1.6081,-1.6071,-1.6273,-1.6296,-1.622,-1.6085,-1.6326,-1.6535,-1.6621,-1.6714,-1.7106,-1.7769,-1.7148,-1.675,0.0,0.0,0.0,0.0,0.0,0.0,0.0,0.0,0.0,0.0,0.0,0.0,0.0,0.0,0.0,1.3492,1.3236,1.3044,1.2923,1.2088,1.1308,1.0815,1.0425,0.9952,0.9162,0.8938,0.8584,0.8009,0.7464,0.6948,0.6611,0.6121,0.0,0.535,0.4813,0.4285,0.3764,0.3441,0.2841,0.2023,0.0,0.0,0.0737,0.0461,-0.0153,-0.0981,-0.122,-0.1667,-0.2273,-0.2978,-0.3892,-0.4976,-0.6583,-0.774,-0.8632,-0.9362,-0.9696,-0.9879,-1.0014,-0.9995,-0.9833,-0.9613,-0.9861,-1.0105,-0.9533,-0.9674,0.0,-0.947,-0.9124,-0.8909,-0.9113,-0.8609,-0.8165,-0.862,-0.8418,-0.8103,-0.8037,-0.801,-0.7857,-0.7528,-0.768,-0.7936,-0.8141,-0.9536,-1.0775,-1.1247,-1.1699,-1.2104,-1.2392,-1.3483,-1.4184,-1.4029,-1.4874,-1.5491,-1.5594,-1.5307,-1.5193,-1.5426,-1.5239,-1.5257,-1.5573,-1.5607,-1.57,-1.5931,-1.6208,-1.6296,-1.6212,-1.6454,-1.6504,-1.6396,-1.6581,-1.6732,0.0,0.0,0.0,0.0,0.0,0.0,0.0,0.0,0.0,0.0,0.0,1.5079,0.0,0.0,1.4589,1.4452,1.4102,1.371,1.3436,1.2839,1.2097,1.1346,1.0872,1.0362,0.9779,0.9448,0.9056,0.8553,0.7963,0.744,0.7032,0.6516,0.6081,0.5879,0.5302,0.4798,0.447,0.3884,0.3285,0.2681,0.2135,0.166,0.1244,0.0916,0.0355,-0.041,-0.0659,-0.1162,-0.1869,-0.2827,-0.3581,-0.434,-0.5546,-0.6755,-0.7849,-0.8263,-0.8734,-0.9118,-0.9129,-0.9187,-0.9223,-0.9047,-0.9373,-0.9702,-0.8916,-0.9073,-0.9406,-0.8485,-0.8134,-0.8025,-0.7938,-0.7596,-0.738,-0.7619,-0.7588,-0.7428,-0.7261,-0.7214,-0.7095,-0.6684,-0.6712,-0.6842,-0.6972,-0.7845,-0.9009,-1.049,-1.1065,-1.1646,-1.2476,-1.3262,-1.3793,-1.394,-1.4581,-1.4975,-1.4952,-1.484,-1.4668,-1.4458,-1.443,-1.456,-1.4877,-1.4886,-1.5167,-1.5797,-1.5909,-1.5821,-1.5536,-1.5741,-1.5712,-1.5454,-1.5395,-1.5616,0.0,0.0,0.0,0.0,0.0,0.0,0.0,0.0,1.6038,1.6684,1.6409,1.6201,1.6678,1.6001,1.5383,1.529,1.4878,1.4374,1.3965,1.3474,1.2851,1.2057,1.1379,1.0811,1.0283,0.9895,0.9518,0.9022,0.8388,0.7851,0.7356,0.6764,0.6426,0.6297,0.5688,0.5326,0.5212,0.4387,0.3839,0.3424,0.2696,0.2166,0.1837,0.147,0.0911,0.0203,-0.0202,-0.0808,-0.1516,-0.2474,-0.3128,-0.3528,-0.4232,-0.5383,-0.6734,-0.7199,-0.7865,-0.8556,-0.8343,-0.8506,-0.8749,-0.8594,-0.8923,-0.9238,-0.8382,-0.85,-0.8725,-0.7564,-0.7301,-0.7301,-0.6939,-0.6811,-0.6811,-0.6846,-0.684,-0.6785,-0.6597,-0.6514,-0.6345,-0.5933,-0.5836,-0.5837,-0.5923,-0.6262,-0.728,-0.9457,-1.0274,-1.1078,-1.2254,-1.2821,-1.3292,-1.3673,-1.4136,-1.4384,-1.4291,-1.4462,-1.4275,-1.3615,-1.3627,-1.3809,-1.4082,-1.4138,-1.4544,-1.5389,-1.5425,-1.5203,-1.4723,-1.4921,-1.4818,-1.4484,-1.421,-1.4413,1.4317,1.4464,1.4768,1.5578,1.5884,1.6242,0.0,0.0,1.7369,1.7745,1.7738,1.7505,1.7129,1.6721,1.6249,1.5713,1.5105,1.4656,1.4579,1.3861,1.3327,1.3224,1.2246,1.137,1.087,1.0334,0.9937,0.9614,0.8718,0.8063,0.783,0.7073,0.661,0.6542,0.6007,0.5666,0.5569,0.5047,0.4516,0.3992,0.3424,0.3032,0.2753,0.1897,0.1427,0.1084,0.0051,-0.0606,-0.096,-0.1515,-0.2222,-0.2927,-0.3229,-0.4088,-0.5201,-0.6411,-0.7366,-0.8041,-0.799,-0.8314,-0.8749,-0.8441,-0.8505,-0.8649,-0.821,-0.797,-0.7621,-0.6899,-0.6621,-0.6509,-0.6322,-0.614,-0.6078,-0.624,-0.6291,-0.6228,-0.6029,-0.5995,-0.5857,-0.5393,-0.5182,-0.5161,-0.5353,-0.5478,-0.6192,-0.8045,-0.9097,-0.9964,-1.0832,-1.19,-1.262,-1.2662,-1.3149,-1.346,-1.3527,-1.3874,-1.3803,-1.3108,-1.2966,-1.2954,-1.2985,-1.3164,-1.3606,-1.4364,-1.4654,-1.4427,-1.3674,-1.4097,-1.3876,-1.3067,-1.3752,-1.4174,1.5811,1.6777,1.7615,1.7443,1.7765,1.8237,1.8691,1.8651,1.8611,1.889,1.8632,1.8252,1.7887,1.7417,1.6916,0.0,1.5901,1.5433,1.5193,1.4468,1.383,1.3608,1.2756,1.2045,1.1739,1.1126,1.0704,1.0565,0.9576,0.897,0.894,0.8012,0.7476,0.7529,0.6917,0.65,0.6426,0.5738,0.5292,0.4942,0.4131,0.3639,0.3509,0.2694,0.2066,0.1607,0.064,0.0098,-0.0199,-0.0894,-0.155,-0.2169,-0.2592,-0.3373,-0.4362,-0.5255,-0.6093,-0.6807,-0.6825,-0.7101,-0.7472,-0.7464,-0.7577,-0.7655,-0.7302,-0.7009,-0.6728,-0.6222,-0.5962,-0.5835,-0.5844,-0.5782,-0.5785,-0.5984,-0.6009,-0.5958,-0.5666,-0.5555,-0.5354,-0.4947,-0.4752,-0.4725,-0.4972,-0.4967,-0.5361,-0.6583,-0.7949,-0.9293,-1.0533,-1.1332,-1.1986,-1.2493,-1.2838,-1.3058,-1.3169,-1.3421,-1.3182,-1.22,-1.2195,-1.217,-1.2055,-1.2127,-1.26,-1.3553,-1.3521,-1.338,-1.3144,-1.3162,-1.3104,-1.3046,-1.3118,-1.3395,1.7154,1.8261,1.9236,1.8711,1.9022,1.9507,1.9582,1.9589,1.9573,1.9712,1.9259,1.8782,1.8536,1.7989,1.7424,1.7029,1.6661,1.6293,1.5774,1.5087,1.4488,1.4048,1.3305,1.2787,1.2631,1.1762,1.1227,1.1244,1.0252,0.9727,0.9839,0.8898,0.8367,0.8448,0.7755,0.7359,0.7311,0.6497,0.6012,0.5896,0.481,0.4318,0.4318,0.3425,0.2712,0.2044,0.1343,0.0865,0.0584,-0.0244,-0.0835,-0.1341,-0.1859,-0.2675,-0.3641,-0.4037,-0.4895,-0.5809,-0.5839,-0.6029,-0.6348,-0.6504,-0.6654,-0.6764,-0.6452,-0.6277,-0.6071,-0.5673,-0.5454,-0.5339,-0.5493,-0.5486,-0.5491,-0.5752,-0.5726,-0.5593,-0.537,-0.524,-0.504,-0.4705,-0.4472,-0.4386,-0.4642,-0.4531,-0.465,-0.5437,-0.6753,-0.8192,-0.9628,-1.0483,-1.13,-1.2105,-1.2427,-1.2649,-1.2846,-1.302,-1.2639,-1.1583,-1.1567,-1.1494,-1.1188,-1.1296,-1.1792,-1.2707,-1.2649,-1.2649,-1.2734,-1.2539,-1.2595,-1.287,-1.2774,-1.2924,1.8734,1.8787,1.8863,1.9033,1.9094,1.9223,1.9607,1.9888,2.0092,2.0064,1.9658,1.9231,1.9021,1.8436,1.7847,1.7449,1.7384,1.7066,1.6293,1.5768,1.5287,1.4736,1.4091,1.3581,0.0,1.2071,1.1217,1.1286,1.0585,1.0216,1.026,0.9616,0.9217,0.9087,0.8363,0.8031,0.8153,0.7171,0.6658,0.6661,0.5668,0.5147,0.5147,0.4146,0.3288,0.2526,0.2003,0.167,0.1384,0.0573,0.0,-0.0478,-0.105,-0.186,-0.2751,-0.2918,-0.4089,-0.557,-0.5235,-0.5466,-0.5894,-0.5692,-0.5823,-0.6049,-0.6089,-0.5941,-0.5665,-0.531,-0.5165,-0.5164,-0.5366,-0.5159,-0.5049,-0.5487,-0.5299,-0.5054,-0.5104,-0.5064,-0.4955,-0.474,-0.4386,-0.4174,-0.4391,-0.4091,-0.4067,-0.4808,-0.5412,-0.6225,-0.7434,-0.9074,-1.0431,-1.115,-1.1706,-1.2156,-1.2485,-1.2581,-1.2304,-1.1543,-1.1325,-1.096,-1.0347,-1.077,-1.1239,-1.1735,-1.231,-1.2509,-1.2316,-1.2509,-1.2409,-1.2052,-1.2949,-1.3157,1.9668,2.0117,2.062,2.0481,2.0543,2.06,2.0532,2.0473,2.0369,2.0105,1.9823,1.9451,1.8868,1.8789,1.8699,1.815,1.8161,1.8046,1.7344,1.6791,1.607,1.5139,1.4774,0.0,0.0,0.0,0.0,1.1723,1.1194,1.0807,1.0705,1.0206,0.9881,0.9909,0.9039,0.8675,0.8861,0.7723,0.7286,0.7491,0.6608,0.5847,0.5183,0.4784,0.4243,0.3497,0.3131,0.2676,0.2102,0.1542,0.0895,0.0286,-0.0235,-0.0927,-0.1642,-0.1818,-0.253,-0.3497,-0.4047,-0.4336,-0.45,-0.4594,-0.4658,-0.4743,-0.4786,-0.4604,-0.4385,-0.4523,-0.4254,-0.4096,-0.4705,-0.4687,-0.4643,-0.5201,-0.5051,-0.4807,-0.4817,-0.4495,-0.4241,-0.4338,-0.3981,-0.3767,-0.4192,-0.4092,-0.4089,-0.4566,-0.5553,-0.6545,-0.7462,-0.8461,-0.9267,-0.9705,-1.0229,-1.0668,-1.0956,-1.119,-1.1153,-1.0659,-1.0736,-1.0661,-1.0306,-1.0452,-1.0689,-1.1027,-1.1246,-1.1351,-1.1353,-1.161,-1.1948,-1.2333,-1.244,-1.2892,2.096,2.1428,2.1876,2.1487,2.1418,2.1419,2.1126,2.096,2.0778,2.0512,2.0218,1.9834,1.9409,1.9426,1.936,1.9012,1.9025,1.8879,1.8133,1.7614,1.6965,1.5968,1.5699,1.5202,0.0,0.0,0.0,1.2137,1.1826,1.1589,1.1254,1.0887,1.0632,1.053,0.9789,0.9366,0.9341,0.8408,0.7874,0.7793,0.7233,0.6457,0.5466,0.5473,0.5046,0.4289,0.3922,0.3393,0.2802,0.2307,0.1733,0.1106,0.0591,-0.0045,-0.0663,-0.103,-0.1479,-0.2089,-0.3045,-0.3368,-0.3441,-0.3796,-0.3839,-0.3823,-0.3973,-0.3816,-0.3637,-0.3953,-0.3768,-0.3636,-0.4336,-0.4362,-0.4348,-0.4893,-0.4659,-0.4355,-0.4498,-0.4138,-0.3852,-0.4079,-0.3737,-0.3542,-0.3981,-0.4036,-0.4101,-0.4334,-0.5195,-0.6102,-0.6861,-0.7497,-0.8074,-0.855,-0.922,-0.974,-0.9994,-1.0356,-1.0489,-1.0213,-1.0317,-1.037,-1.0375,-1.0368,-1.0547,-1.0896,-1.0922,-1.0998,-1.12,-1.1318,-1.1625,-1.2067,-1.2192,-1.2609,2.2618,2.2646,2.2537,2.2082,2.1791,2.1592,2.1471,2.1384,2.1319,2.1308,2.0783,2.0379,0.0,0.0,1.9919,1.9899,1.9976,1.9672,1.872,1.8357,1.7896,0.0,0.0,0.0,0.0,0.0,0.0,1.2651,0.0,1.2408,1.1942,1.1723,1.1424,1.0961,1.0548,1.0134,0.9669,0.9181,0.8492,0.7634,0.7594,0.6996,0.5999,0.6127,0.5692,0.4853,0.4415,0.3939,0.3423,0.2989,0.2513,0.1996,0.1344,0.078,0.0301,-0.0371,-0.084,-0.133,-0.2186,-0.2575,-0.2729,-0.3235,-0.3344,-0.331,-0.3704,-0.3603,-0.3391,-0.3596,-0.3587,-0.3653,-0.4194,-0.4138,-0.4039,-0.4493,-0.4078,-0.3655,-0.4036,-0.3892,-0.3751,-0.3926,-0.3665,-0.3474,-0.3722,-0.3908,-0.4026,-0.4069,-0.432,-0.4794,-0.5619,-0.6203,-0.6842,-0.7705,-0.8618,-0.9279,-0.9574,-1.0033,-1.0239,-1.0149,-1.0019,-1.0097,-1.0413,-1.0413,-1.0694,-1.1217,-1.1217,-1.1342,-1.1617,-1.1493,-1.1359,-1.125,-1.2185,-1.227,2.3495,2.3236,2.3023,2.2975,2.2506,2.2023,2.1925,2.1828,2.1681,2.1426,2.0923,2.0468,0.0,0.0,0.0,2.0167,2.0791,0.0,2.0003,1.9625,0.0,1.7953,0.0,1.7705,1.6632,1.662,0.0,0.0,1.3358,1.2594,1.2085,1.2004,1.1866,1.1588,1.1027,1.0694,1.0589,0.9805,0.9051,0.8329,0.8324,0.7974,0.7394,0.7111,0.6667,0.6125,0.5661,0.5071,0.4482,0.4061,0.3514,0.2923,0.2413,0.1886,0.1442,0.0921,0.0463,0.0037,-0.0654,-0.1377,-0.2041,-0.2186,-0.2267,-0.2372,-0.2585,-0.2641,-0.2686,-0.2884,-0.277,-0.2678,-0.3142,-0.3152,-0.3098,-0.3316,-0.3221,-0.3045,-0.289,-0.2691,-0.2685,-0.3239,-0.3366,-0.3395,-0.3357,-0.3151,-0.3164,-0.3725,-0.3458,-0.3581,-0.4692,-0.5201,-0.5683,-0.6196,-0.6875,-0.7545,-0.8151,-0.8636,-0.9027,-0.929,-0.9358,-0.939,-0.9385,-0.937,-0.9637,-1.0172,-1.0189,-1.0278,-1.0434,-1.0588,-1.047,-1.0054,-1.1007,-1.1412,2.3915,2.3608,2.3351,2.3169,2.2675,2.2258,2.2332,2.2109,2.1861,2.1854,2.1368,2.0928,2.0785,2.1416,2.1735,0.0,0.0,0.0,2.0946,2.0372,1.9697,0.0,1.8868,0.0,1.7406,1.7394,1.6884,0.0,1.4478,1.3445,1.249,1.2571,1.2459,1.2023,1.1522,1.1085,1.0677,1.0138,0.9648,0.9184,0.9086,0.8778,0.8259,0.7943,0.7566,0.7082,0.0,0.6141,0.5527,0.5197,0.4664,0.4049,0.3512,0.3016,0.2472,0.1831,0.131,0.0894,0.0352,-0.0278,-0.0899,-0.1349,-0.1588,-0.1717,-0.1833,-0.194,-0.208,-0.2244,-0.2088,-0.1955,-0.2342,-0.2334,-0.2252,-0.2379,-0.2361,-0.2298,-0.2174,-0.2014,-0.2078,-0.2714,-0.3225,-0.3522,-0.3348,-0.3344,-0.3436,-0.3667,-0.3483,-0.3508,-0.4042,-0.4206,-0.4487,-0.5075,-0.5689,-0.6384,-0.7139,-0.7677,-0.8063,-0.8296,-0.8435,-0.8561,-0.8716,-0.9016,-0.9292,-0.9525,-0.9819,-0.9875,-0.966,-0.985,-0.9698,-0.9236,-1.031,-1.0717,2.4099,2.3783,2.3555,2.3013,2.2605,2.24,2.2613,2.2292,2.1994,2.2335,2.1916,2.1527,2.1634,2.209,2.2316,2.1988,0.0,2.2413,2.1717,2.0861,2.0167,1.9781,1.9468,1.8995,1.8267,1.7831,1.7215,1.6325,1.567,1.4683,1.3148,1.3294,1.307,1.2325,1.1981,1.137,1.0491,1.0344,1.0209,1.0024,0.9771,0.943,0.8937,0.8692,0.8302,0.7863,0.0,0.0,0.6529,0.6245,0.5769,0.5175,0.4522,0.3949,0.3367,0.2566,0.196,0.1497,0.111,0.0804,0.0416,-0.0579,-0.098,-0.1092,-0.1226,-0.1345,-0.1441,-0.1666,-0.1537,-0.1428,-0.1722,-0.1664,-0.155,-0.1588,-0.1526,-0.1475,-0.1539,-0.1576,-0.1737,-0.2253,-0.3134,-0.3727,-0.3544,-0.3947,-0.4181,-0.3821,-0.3891,-0.3869,-0.3559,-0.335,-0.3565,-0.4347,-0.4988,-0.571,-0.6515,-0.7059,-0.7355,-0.7409,-0.7511,-0.7784,-0.8217,-0.8897,-0.9207,-0.9059,-0.9731,-0.9763,-0.9082,-0.9189,-0.8982,-0.8508,-0.9786,-1.006,2.4247,2.376,2.3423,2.2931,2.2645,2.2478,2.2536,2.2523,0.0,2.2347,2.2165,2.2011,2.1883,2.259,2.2953,2.2176,2.2874,2.3214,2.2353,2.1478,2.0781,0.0,1.9683,1.9099,1.8811,1.8387,0.0,0.0,0.0,0.0,1.4008,1.3929,1.3484,1.2415,1.2301,1.1832,1.0902,1.0744,1.071,1.0707,1.025,1.0063,1.0169,0.9313,0.8864,0.8756,0.0,0.0,0.7193,0.6892,0.6403,0.5793,0.5044,0.4404,0.3823,0.3365,0.2849,0.2326,0.1945,0.1695,0.1402,0.0447,0.0127,0.0031,-0.0436,-0.0467,-0.0498,-0.1182,-0.1243,-0.1081,-0.1216,-0.1255,-0.1149,-0.0684,-0.0625,-0.062,-0.0369,-0.0988,-0.1595,-0.1596,-0.2686,-0.3633,-0.3674,-0.4024,-0.4254,-0.414,-0.3681,-0.327,-0.3049,-0.3328,-0.3792,-0.4482,-0.497,-0.5577,-0.6441,-0.6848,-0.7164,-0.7379,-0.7433,-0.7403,-0.7341,-0.8126,-0.8482,-0.829,-0.912,-0.9181,-0.8461,-0.8483,-0.8077,-0.7338,-0.8595,-0.9089,2.3657,2.3128,2.2762,2.2282,2.2158,2.2251,2.2644,2.2625,2.2544,2.2812,2.2705,2.2451,2.213,2.2721,2.3064,2.2457,2.3061,2.3403,2.281,2.2072,2.135,2.0674,2.0123,1.9523,0.0,0.0,0.0,0.0,0.0,0.0,1.4617,1.4145,1.3515,1.2646,1.2692,1.2312,1.1484,1.1472,1.1414,1.1274,1.079,1.061,1.0623,0.9927,0.9515,0.9342,0.0,0.0,0.8015,0.7834,0.7364,0.6666,0.6223,0.5563,0.4798,0.4393,0.386,0.33,0.3032,0.2803,0.2557,0.2016,0.1352,0.0676,0.0242,0.009,-0.006,-0.0693,-0.0582,-0.0334,-0.0576,-0.0367,-0.0075,0.0048,-0.0214,-0.0426,-0.0209,-0.1161,-0.2002,-0.1771,-0.2595,-0.3408,-0.3649,-0.3798,-0.3918,-0.3986,-0.3651,-0.3239,-0.2754,-0.2951,-0.3372,-0.4001,-0.4341,-0.4889,-0.5797,-0.6147,-0.6373,-0.6509,-0.6622,-0.6659,-0.6642,-0.7357,-0.7603,-0.7219,-0.8038,-0.809,-0.7371,-0.7443,-0.732,-0.7078,-0.836,-0.8939,2.2975,2.2512,2.2239,2.178,2.1888,2.2277,2.2931,2.2817,2.2722,2.3211,2.3135,2.2818,2.2432,2.273,2.3018,2.2865,2.3232,2.3495,2.3276,2.2648,2.188,0.0,2.0621,0.0,1.8859,0.0,0.0,0.0,0.0,0.0,1.5138,1.4405,1.3721,1.3052,1.3109,1.2816,1.2087,1.2135,1.2069,1.183,1.1384,1.1179,1.1108,1.0604,1.0202,0.9967,0.0,0.0,0.0,0.8788,0.8334,0.7658,0.7285,0.6591,0.5752,0.5361,0.4801,0.4227,0.4134,0.3873,0.3624,0.354,0.2539,0.1262,0.0969,0.0667,0.0375,-0.0029,0.0248,0.0577,0.0286,0.0696,0.1141,0.0858,0.0333,-0.0095,0.0048,-0.1092,-0.2038,-0.1604,-0.2329,-0.3113,-0.3468,-0.3633,-0.3738,-0.3849,-0.3737,-0.3414,-0.269,-0.2707,-0.3037,-0.3605,-0.3778,-0.4198,-0.5084,-0.5393,-0.5572,-0.5615,-0.5761,-0.5933,-0.6077,-0.6802,-0.6909,-0.6331,-0.713,-0.7196,-0.6483,-0.6545,-0.673,-0.7038,-0.8063,-0.8601,2.2567,2.241,2.2458,2.1989,2.2526,2.3182,2.3322,2.342,2.341,2.3106,2.3052,2.3017,2.2878,2.2882,2.3074,2.352,2.3662,2.3779,2.4059,2.3347,2.2568,2.1891,0.0,0.0,1.9559,0.0,0.0,0.0,0.0,0.0,0.0,1.5028,1.4396,1.3745,1.373,1.3391,1.2731,1.2538,1.2515,1.2592,1.2065,1.1954,1.2226,1.1276,1.0824,1.0757,0.0,0.0,0.0,0.9422,0.9052,0.8576,0.7634,0.6976,0.6446,0.5973,0.5523,0.5075,0.4995,0.4723,0.4425,0.4529,0.3451,0.2062,0.1773,0.1515,0.1237,0.1019,0.1224,0.1505,0.1525,0.1857,0.2154,0.2136,0.1565,0.1102,0.1294,0.0077,-0.0847,-0.0132,-0.1491,-0.2792,-0.2952,-0.3772,-0.4334,-0.4118,-0.396,-0.364,-0.294,-0.304,-0.3344,-0.3822,-0.3737,-0.3913,-0.4596,-0.4915,-0.5137,-0.5328,-0.5355,-0.548,-0.5739,-0.6625,-0.677,-0.6046,-0.6941,-0.7079,-0.641,-0.6236,-0.6356,-0.6743,-0.6919,-0.73,2.2524,2.2317,2.2089,2.1645,2.2486,2.3437,2.3518,2.3729,2.386,2.3694,2.368,2.3569,2.3108,2.3009,2.318,2.3625,2.3716,2.3742,2.3885,2.3869,2.3336,2.1891,2.1574,0.0,0.0,0.0,0.0,0.0,0.0,0.0,0.0,1.5455,1.4729,1.4353,1.414,1.3918,1.3649,1.3407,1.3253,1.3178,1.2672,1.2468,1.2439,1.1826,1.1514,1.1425,0.0,0.0,0.0,1.0406,1.0019,0.9438,0.876,0.819,0.7696,0.7319,0.7082,0.698,0.7187,0.7149,0.7041,0.7078,0.6043,0.456,0.342,0.2796,0.2437,0.2201,0.2269,0.2424,0.2321,0.257,0.2905,0.32,0.2269,0.1431,0.1839,0.062,-0.0374,0.0218,-0.036,-0.1032,-0.1252,-0.1991,-0.2514,-0.2388,-0.2678,-0.2712,-0.2068,-0.2393,-0.279,-0.3145,-0.3939,-0.4703,-0.533,-0.552,-0.5705,-0.5951,-0.5618,-0.5501,-0.5701,-0.6066,-0.6023,-0.5523,-0.6085,-0.6135,-0.561,-0.5494,-0.576,-0.64,-0.6722,-0.7349,2.2553,2.2308,2.1993,2.2156,2.3028,2.3934,2.4237,2.4393,2.4462,2.4339,2.42,2.3936,2.342,2.3271,2.3379,2.3928,2.3834,2.383,2.4212,2.4413,2.3991,0.0,0.0,0.0,0.0,0.0,0.0,0.0,0.0,0.0,0.0,1.6142,1.5449,1.4971,1.4795,1.4627,1.4508,1.4359,1.4142,1.3902,1.3502,1.323,1.3086,1.2681,1.2444,0.0,0.0,0.0,0.0,1.137,1.0944,1.0356,1.0033,0.9568,0.9096,0.8807,0.8751,0.8822,0.9035,0.9028,0.8944,0.904,0.8126,0.6742,0.5695,0.4527,0.3532,0.3483,0.3596,0.3796,0.3897,0.3963,0.4123,0.4524,0.3465,0.2505,0.2958,0.1799,0.0757,0.1138,0.0948,0.0585,0.0084,-0.0428,-0.0825,-0.0917,-0.1544,-0.1875,-0.1529,-0.2063,-0.2548,-0.2774,-0.3808,-0.4756,-0.5374,-0.555,-0.5736,-0.5967,-0.5651,-0.541,-0.5323,-0.5503,-0.5402,-0.4954,-0.5125,-0.5102,-0.4861,-0.4706,-0.5035,-0.5832,-0.6019,-0.6597,2.2659,2.2403,2.246,2.3911,2.4517,2.498,2.5706,2.5632,2.5259,2.4863,2.4419,2.4067,2.392,2.3611,2.371,2.4644,2.4197,2.4139,2.5409,2.4971,2.4427,0.0,0.0,0.0,0.0,0.0,0.0,0.0,0.0,0.0,0.0,0.0,1.6673,1.5613,1.5787,1.5671,1.5196,1.5323,1.5206,1.4893,1.4617,1.4469,1.4469,1.3932,0.0,0.0,0.0,0.0,0.0,1.2238,1.176,1.1302,1.129,1.0988,1.057,1.0415,1.0383,1.035,1.014,0.9837,0.9548,0.9885,0.9087,0.8103,0.8674,0.6753,0.4464,0.4877,0.5272,0.5744,0.6545,0.6365,0.603,0.622,0.5462,0.4738,0.5,0.3907,0.2911,0.3033,0.2474,0.1667,0.067,0.0444,0.0219,-0.0239,-0.0871,-0.1399,-0.1674,-0.2388,-0.2921,-0.3,-0.3194,-0.3582,-0.426,-0.4626,-0.4871,-0.5011,-0.5203,-0.5036,-0.4434,-0.5056,-0.5051,-0.4326,-0.4182,-0.4182,-0.4307,-0.3965,-0.4182,-0.4898,-0.444,-0.4474,2.3585,2.3459,2.3172,2.3368,2.3889,2.4495,2.4818,2.4589,2.436,2.445,2.3864,2.3387,2.3546,2.3384,2.3614,2.4754,2.4657,2.4728,0.0,0.0,0.0,2.3859,0.0,0.0,0.0,0.0,0.0,0.0,0.0,0.0,0.0,0.0,1.7529,1.6588,1.6542,1.6428,1.6285,1.6122,1.5968,1.5853,1.5439,1.509,1.4782,1.4839,0.0,0.0,0.0,0.0,0.0,1.3358,1.2893,1.2458,1.2315,1.2114,1.1887,1.1806,1.1951,1.2196,1.2303,1.24,1.2416,1.2285,1.1633,1.0792,1.0435,0.8741,0.6997,0.7304,0.7356,0.741,0.7907,0.7634,0.7374,0.7939,0.7263,0.6568,0.6882,0.6177,0.5523,0.5609,0.5229,0.4767,0.4443,0.3436,0.2682,0.2766,0.1812,0.1047,0.0924,0.0391,-0.0073,-0.0372,-0.082,-0.1765,-0.3417,-0.3593,-0.384,-0.4291,-0.398,-0.3781,-0.3778,-0.4069,-0.4032,-0.355,-0.3861,-0.3935,-0.3761,-0.3696,-0.4291,-0.5454,-0.5765,-0.6534,2.411,2.3942,2.3608,2.3707,2.3999,2.4317,2.4509,2.424,2.401,2.4154,2.3782,2.3474,2.3618,2.3703,2.4092,2.5213,2.5083,2.5173,0.0,0.0,0.0,0.0,0.0,0.0,0.0,0.0,0.0,0.0,0.0,0.0,0.0,0.0,1.8467,1.7913,1.7523,1.7284,1.7228,1.7,1.6791,1.6526,1.62,1.5777,1.5293,0.0,0.0,0.0,0.0,0.0,0.0,1.4296,1.3844,1.3455,1.3447,1.3411,1.3318,1.3354,1.3585,1.3914,1.4039,1.4201,1.4273,1.3945,1.3334,1.2615,1.195,1.03,0.8759,0.9202,0.9128,0.9028,0.9435,0.9163,0.8902,0.9425,0.8888,0.8341,0.8616,0.8258,0.7787,0.75,0.737,0.7132,0.6587,0.577,0.5108,0.494,0.4064,0.3209,0.2693,0.2249,0.1807,0.1368,0.1024,0.0309,-0.104,-0.2061,-0.2878,-0.3473,-0.3388,-0.3252,-0.31,-0.3397,-0.3298,-0.2722,-0.2985,-0.3124,-0.3076,-0.3229,-0.3898,-0.5067,-0.5551,-0.602,0.0,2.4005,2.3876,2.4676,2.4605,2.4443,2.4689,2.4453,0.0,2.4053,2.4073,2.411,2.4191,2.4444,2.4925,2.5968,2.5507,2.5576,0.0,2.6539,0.0,0.0,0.0,0.0,0.0,0.0,0.0,0.0,0.0,0.0,0.0,0.0,0.0,1.9473,1.8632,1.8097,1.7934,1.7934,1.7591,1.6935,1.6894,1.6532,1.5949,0.0,0.0,0.0,0.0,0.0,0.0,1.5017,1.4673,1.4348,1.469,1.4843,1.4858,1.4983,1.5231,1.5488,1.5343,1.5298,1.5241,1.488,1.4272,1.3631,1.3234,1.1584,0.9986,1.068,1.0692,1.0592,1.1135,1.0906,1.0563,1.0745,1.0417,1.0105,1.0252,1.0124,0.9761,0.8989,0.9111,0.8923,0.7594,0.765,0.7529,0.6503,0.5958,0.522,0.4013,0.3499,0.3064,0.2623,0.2634,0.2601,0.2473,0.0,-0.1805,-0.2417,-0.3071,-0.3076,-0.2249,-0.2845,-0.2739,-0.1787,-0.1732,-0.1893,-0.2268,-0.253,-0.3111,-0.3907,-0.4052,-0.3532,2.5456,0.0,2.4717,2.4617,2.4338,2.4138,0.0,2.407,2.3927,2.4294,2.4227,2.4349,2.5175,2.4929,2.5174,2.7016,2.6639,2.664,2.8074,0.0,0.0,0.0,0.0,0.0,0.0,0.0,0.0,0.0,0.0,0.0,0.0,0.0,0.0,2.0169,1.9409,1.8782,1.8297,1.813,1.778,1.7223,1.7496,1.719,1.6385,0.0,0.0,0.0,0.0,0.0,1.6313,1.5955,1.5683,1.5554,1.5983,1.6144,1.6164,1.6305,1.6498,1.6668,1.6382,1.6265,1.617,1.5508,1.5012,1.4613,1.4381,1.3255,1.2146,1.2642,1.2419,1.2177,1.2725,1.2307,1.1909,1.24,1.2155,1.1844,1.1934,1.1869,1.1837,1.1978,1.1816,1.1478,1.0971,1.0639,1.0101,0.9092,0.852,0.7982,0.7274,0.6823,0.6439,0.6138,0.5636,0.5178,0.4891,0.246,0.0708,0.0082,-0.0518,-0.0737,-0.0437,-0.0853,-0.0885,-0.0443,-0.1327,-0.149,-0.0881,-0.1293,-0.1984,-0.2939,-0.306,-0.3357,2.6768,2.6421,2.6039,2.5971,2.5725,2.5538,2.5824,2.5132,2.4524,2.4815,2.4769,2.4975,2.5832,2.5783,2.6189,2.7873,2.7731,0.0,0.0,0.0,0.0,0.0,0.0,0.0,0.0,0.0,0.0,0.0,0.0,0.0,0.0,0.0,0.0,0.0,1.9809,1.9236,1.8908,1.8523,1.8102,1.7626,1.7865,1.7727,1.7257,0.0,0.0,0.0,0.0,0.0,1.7126,1.6893,1.6752,1.6697,1.7058,1.7231,1.728,1.734,1.7524,1.7706,1.7388,1.7101,1.6771,1.6087,1.5872,1.5774,1.5241,1.4771,1.4441,1.4371,1.3928,1.359,1.4126,1.3745,1.3283,1.3578,1.3389,1.3246,1.3661,1.3871,1.4026,1.4129,1.4212,1.403,1.3253,1.3208,1.2805,1.1419,1.1194,1.0863,1.005,0.965,0.9361,0.9109,0.8579,0.8027,0.753,0.597,0.4131,0.2034,0.1228,0.0837,0.0838,0.0531,0.0419,0.0504,0.0195,0.0083,0.0193,0.047,-0.0196,-0.1735,-0.1747,-0.1583,2.8135,2.8114,2.7933,2.7798,2.762,2.754,2.7741,2.6621,2.5542,2.547,2.5587,2.5908,2.6574,2.6844,0.0,0.0,0.0,0.0,0.0,0.0,0.0,0.0,0.0,0.0,0.0,0.0,0.0,0.0,0.0,0.0,0.0,0.0,0.0,0.0,2.0067,1.962,1.9735,1.8998,1.8412,1.8013,1.8186,1.8229,1.8185,1.8023,0.0,0.0,0.0,0.0,1.7894,1.7847,1.7854,1.7874,1.8112,1.8249,1.8347,1.8297,1.8486,1.8741,1.8463,1.7946,1.731,1.6739,1.6738,1.6834,1.5982,1.6112,1.6471,1.5938,1.5272,1.4786,1.5266,1.5025,1.4659,1.4632,1.4496,1.4561,1.5302,1.5811,1.6046,1.5791,1.6283,1.6334,1.5037,1.5439,1.5377,1.375,1.3722,1.3542,1.2517,1.2044,1.171,1.1487,1.1134,1.0697,1.0219,0.9697,0.8024,0.477,0.3441,0.2793,0.2766,0.263,0.2417,0.2154,0.28,0.2705,0.1828,0.255,0.1944,0.0085,-0.0028,0.0826,2.9161,3.0373,3.0969,2.8624,2.8385,2.8475,2.751,2.7005,2.6654,2.6301,2.6688,2.7376,2.8338,2.8081,2.8289,0.0,0.0,0.0,0.0,0.0,0.0,0.0,0.0,0.0,0.0,0.0,0.0,0.0,0.0,0.0,0.0,0.0,0.0,0.0,0.0,2.0196,2.0762,1.9444,1.8547,1.8084,1.8659,1.8803,1.8551,1.889,1.8955,0.0,0.0,1.8698,1.8826,1.8916,1.8991,1.907,1.938,1.9522,1.954,1.9522,1.976,2.0045,1.968,1.8995,1.8235,1.7802,1.749,1.725,1.6815,1.7033,1.736,1.7173,1.6332,1.5542,1.568,1.5807,1.5956,1.6062,1.6049,1.6166,1.6612,1.6967,1.7189,1.7255,1.7624,1.7754,1.7189,1.7303,1.7176,1.6325,1.5675,1.51,1.4586,1.375,1.305,1.2667,1.2436,1.2401,1.2719,1.2407,1.1915,1.1271,0.8767,0.7508,0.8014,0.8166,0.7829,0.6945,0.7232,0.6932,0.6059,0.4869,0.4069,0.3586,0.236,0.2581,3.0171,3.1705,3.2823,3.1322,3.1278,3.148,3.1035,2.9952,2.8975,2.8727,2.8784,2.9158,2.9976,0.0,2.9835,3.1012,0.0,0.0,0.0,0.0,0.0,0.0,0.0,0.0,0.0,0.0,0.0,0.0,0.0,0.0,0.0,0.0,0.0,0.0,0.0,2.0423,2.1096,2.011,1.9361,1.8855,1.9233,1.9522,1.9738,1.9732,1.9811,1.9905,0.0,1.9687,1.9814,1.9882,1.9971,2.0147,2.04,2.05,2.05,2.0449,2.0315,2.0052,1.9594,1.8951,1.8249,1.7741,1.7647,1.7631,1.7157,1.7714,1.8455,1.8082,1.7375,1.6861,1.7389,1.7427,1.7485,1.8083,1.8043,1.8085,1.8876,1.8925,1.8932,1.9301,1.9524,1.9486,1.8936,1.9251,1.9212,1.8153,1.8021,1.7777,1.7042,1.6602,1.6368,1.6414,1.6139,1.6089,1.6421,1.5831,1.4668,1.2824,1.12,1.0349,1.0439,1.1027,1.071,0.9365,0.9938,1.0136,0.9869,0.8652,0.8424,0.9072,0.789,0.8436,3.1131,3.2521,3.3756,3.3578,3.3738,3.4015,3.4227,3.2699,3.1171,3.0958,3.0779,3.0731,3.1025,3.1063,0.0,3.1619,0.0,0.0,0.0,0.0,0.0,0.0,0.0,0.0,0.0,0.0,0.0,0.0,0.0,0.0,0.0,0.0,0.0,0.0,0.0,0.0,2.1492,2.0912,2.0333,1.9752,1.9892,2.0254,2.0767,2.0419,2.0501,2.088,2.0583,2.0566,2.0764,2.0764,2.0894,2.1102,2.1305,2.1382,2.1382,2.1352,2.0901,2.0258,1.9752,1.9132,1.8506,1.8099,1.7992,1.8,1.799,1.8693,1.9423,1.9118,1.8776,1.8623,1.9108,1.9073,1.9105,1.9862,1.983,1.9878,2.0842,2.0815,2.0703,2.1064,2.1385,2.1341,2.0591,2.1246,2.1408,2.0052,2.0298,2.0293,1.9248,1.9084,1.9138,1.939,1.9081,1.9072,1.9531,1.9049,1.7701,1.5228,1.4149,1.3487,1.3268,1.3923,1.3586,1.2082,1.2986,1.3348,1.3046,1.2673,1.2919,1.3746,1.3034,1.3965,3.1913,3.2803,3.3506,3.3789,3.4171,3.4504,3.4689,3.3614,3.2408,3.1893,3.1883,3.17,0.0,3.1244,3.1705,0.0,0.0,0.0,0.0,0.0,0.0,0.0,0.0,0.0,0.0,0.0,0.0,0.0,0.0,0.0,0.0,0.0,0.0,0.0,0.0,0.0,2.2411,2.1881,2.1243,2.0516,2.0647,2.0811,2.0974,2.0811,2.0909,2.1167,2.1007,2.1166,2.1521,2.158,2.1731,2.1938,2.215,2.2217,2.2217,2.2286,2.2026,2.1603,2.1123,2.0396,1.9719,1.9918,1.9098,1.8332,2.0093,2.0349,2.013,2.0512,2.0916,2.1019,2.0148,2.0321,2.0729,2.0802,2.0995,2.1282,2.1719,2.2075,2.2221,2.189,2.2785,2.3285,2.2291,2.3257,2.3757,2.2523,2.2339,2.1918,2.0782,2.0157,1.9711,1.9427,1.9202,1.9597,2.0842,2.1453,2.1895,2.2151,1.9751,1.8366,1.8465,1.8475,1.7885,1.6654,1.7671,1.7243,1.5272,1.6342,1.6439,1.5709,1.5702,1.6517,3.1151,3.2781,3.4385,3.4356,3.5177,3.5876,3.5344,3.485,3.4515,3.4615,3.4306,3.3598,0.0,0.0,0.0,0.0,0.0,0.0,0.0,0.0,0.0,0.0,0.0,0.0,0.0,0.0,0.0,0.0,0.0,0.0,0.0,0.0,0.0,0.0,0.0,0.0,0.0,2.3021,2.2615,2.1964,2.1713,2.1657,2.1744,2.1788,2.1859,2.1989,2.1917,2.2031,2.2283,2.2227,2.2391,2.2708,2.296,2.3093,2.3153,2.3057,2.2711,2.2253,2.2,2.1428,2.0841,2.101,2.0634,2.0245,2.0999,2.1545,2.1911,2.2021,2.2681,2.3063,2.1765,2.1633,2.1977,2.2512,2.2597,2.2656,2.3065,2.2863,2.2755,2.3176,2.3726,2.407,2.394,2.4254,2.4369,2.3909,2.3548,2.3052,2.2315,2.2185,2.2147,2.2195,2.2282,2.2368,2.2453,2.3019,2.3193,2.2851,2.1713,2.1,2.0934,2.1544,2.1205,1.9729,2.0109,2.0016,1.9423,1.9084,1.9569,2.0816,2.0542,2.1229,3.158,3.3214,3.4819,3.5112,3.5954,3.6667,3.6467,3.629,3.6296,3.6751,3.5736,3.4431,3.3388,0.0,0.0,0.0,0.0,0.0,0.0,0.0,0.0,0.0,0.0,0.0,0.0,0.0,0.0,0.0,0.0,0.0,0.0,0.0,0.0,0.0,0.0,0.0,0.0,2.3602,2.3427,2.3021,2.2759,2.2569,2.2426,2.2516,2.2582,2.2621,2.2608,2.2721,2.2923,2.2848,2.3064,2.3464,2.3603,2.3741,2.3873,2.3691,2.3381,2.3011,2.2699,2.2273,2.1861,2.177,2.1497,2.1292,2.1875,2.2387,2.2843,2.3324,2.4038,2.4421,2.3407,2.3116,2.3194,2.3725,2.372,2.3652,2.3903,2.3563,2.3465,2.4412,2.4663,2.482,2.5217,2.5462,2.5466,2.5079,2.5114,2.4856,2.3909,2.4013,2.4052,2.3762,2.4215,2.4272,2.3615,2.411,2.4229,2.366,2.3419,2.2994,2.2379,2.3081,2.293,2.1769,2.2117,2.2245,2.2078,2.1949,2.2649,2.4121,2.4165,2.478,3.3635,3.4185,3.4564,3.6039,3.6416,3.677,3.8121,3.7899,3.7536,3.7919,3.5778,3.3858,3.4001,3.2871,0.0,0.0,0.0,0.0,0.0,0.0,0.0,0.0,0.0,0.0,0.0,0.0,0.0,0.0,0.0,0.0,0.0,0.0,0.0,0.0,0.0,0.0,2.3439,2.3477,2.3511,2.3511,2.3703,2.3495,2.2905,2.2903,2.2903,2.2917,2.2977,2.3165,2.3414,2.3488,2.378,2.4201,2.4059,2.4136,2.4282,2.4155,2.4082,2.3907,2.3245,2.298,2.2837,2.2309,2.1511,2.1086,2.2957,2.2905,2.2605,2.4401,2.4949,2.4998,2.4993,2.4768,2.4461,2.4257,2.4229,2.4201,2.4151,2.4163,2.4497,2.5513,2.5642,2.5721,2.6053,2.7056,2.7369,2.611,2.7211,2.7482,2.554,2.5471,2.5032,2.3586,2.4368,2.4767,2.4176,2.4844,2.5331,2.5392,2.5288,2.4517,2.2984,2.2993,2.2921,2.2722,2.3907,2.3913,2.272,2.5061,2.5726,2.4827,2.5965,2.6597,3.2932,3.4141,3.5595,3.6469,3.7492,3.8529,3.9393,3.9221,3.8738,3.8234,3.6609,3.5147,3.4703,0.0,0.0,0.0,0.0,0.0,0.0,0.0,0.0,0.0,0.0,0.0,0.0,0.0,0.0,0.0,0.0,0.0,0.0,0.0,0.0,0.0,0.0,0.0,2.5586,2.4997,2.4478,2.4052,2.4118,2.3925,2.354,2.3635,2.373,2.3801,2.3801,2.3866,2.408,2.482,2.4887,2.4618,2.5278,2.5178,2.464,2.4651,2.4685,2.4681,2.4528,2.4461,2.4436,2.4314,2.4061,2.389,2.446,2.4517,2.4476,2.4931,2.513,2.5214,2.521,2.5558,2.5862,2.5649,2.5496,2.5608,2.634,2.5437,2.4831,2.5962,2.6023,2.6114,2.687,2.7329,2.7481,2.7147,2.7045,2.6568,2.5322,2.5297,2.5241,2.4853,2.514,2.5298,2.5165,2.5337,2.5456,2.5465,2.5434,2.5186,2.4687,2.4594,2.4529,2.446,2.486,2.4853,2.4461,2.531,2.5548,2.523,2.5676,2.5894,3.4711,3.5858,3.7233,3.8543,3.9353,3.9972,4.0408,4.0087,3.9393,0.0,3.7107,3.6149,3.58,0.0,0.0,0.0,0.0,0.0,0.0,0.0,0.0,0.0,0.0,0.0,0.0,0.0,0.0,0.0,0.0,0.0,0.0,0.0,0.0,0.0,0.0,0.0,2.6272,2.5372,2.4746,2.4415,2.4441,2.4355,2.4155,2.4183,2.4229,2.4284,2.4317,2.4376,2.4513,2.5197,2.5241,2.4927,2.5532,2.545,2.5003,2.5046,2.5094,2.5171,2.5214,2.5234,2.5206,2.4846,2.4706,2.4702,2.4702,2.4759,2.4881,2.5149,2.5326,2.5414,2.5387,2.6245,2.6993,2.6419,2.6427,2.6731,2.7336,2.656,2.6086,2.7179,2.6753,2.66,2.7896,2.7857,2.7671,2.7711,2.7325,2.6848,2.6354,2.6365,2.6308,2.5987,2.6026,2.592,2.5637,2.5587,2.557,2.5539,2.5568,2.5568,2.5516,2.5415,2.5368,2.5363,2.5428,2.5441,2.5399,2.5526,2.5552,2.553,2.5603,2.5648,3.785,3.849,3.911,4.1357,4.1478,4.1032,4.1022,4.0468,3.9565,3.8248,0.0,3.6893,0.0,0.0,0.0,0.0,0.0,0.0,0.0,0.0,0.0,0.0,0.0,0.0,0.0,0.0,0.0,0.0,0.0,0.0,0.0,0.0,0.0,0.0,0.0,0.0,2.5922,2.4997,2.4561,0.0,2.47,2.4727,2.4734,2.4604,2.4511,2.4484,2.4666,2.4752,2.4778,2.5037,2.5138,2.5143,2.522,2.5278,2.5303,2.5324,2.5354,2.5399,2.5426,2.5453,2.5364,2.4432,2.42,2.4235,2.4235,2.4234,2.4392,2.5205,2.5506,2.5599,2.5517,2.6745,2.7757,2.6789,2.7171,2.7744,2.7701,2.7605,2.7796,2.8751,2.7678,2.7184,2.8927,2.85,2.7925,2.7938,2.7741,2.7718,2.8065,2.804,2.7719,2.7,2.691,2.6575,2.5784,2.5714,2.5677,2.5596,2.5657,2.5699,2.5682,2.5637,2.5609,2.5609,2.5666,2.5697,2.5703,2.5699,2.5704,2.5692,2.5693,2.5698,3.7792,3.8456,3.937,4.1048,4.1373,4.1166,4.0596,3.9948,3.928,3.8657,3.7982,0.0,0.0,0.0,0.0,0.0,0.0,0.0,0.0,0.0,0.0,0.0,0.0,0.0,0.0,0.0,0.0,0.0,0.0,0.0,0.0,0.0,0.0,0.0,0.0,2.6863,2.6136,2.525,2.4844,0.0,2.4929,2.5,2.5094,2.4954,2.4935,2.5037,2.5118,2.5163,2.5225,2.5967,2.5885,2.5395,2.609,2.5955,2.5374,2.5443,2.546,2.5486,2.5549,2.5579,2.554,2.5321,2.5276,2.5272,2.5284,2.5277,2.5312,2.5505,2.5572,2.5609,2.5587,2.6358,2.7275,2.7711,2.8346,2.9056,2.9767,2.8766,2.8015,2.896,2.8348,2.8043,2.9151,2.8688,2.8145,2.814,2.6956,2.6584,2.7999,2.7581,2.7353,2.7845,2.7302,2.6855,2.6715,2.6084,2.5671,2.5597,2.5652,2.5689,2.5613,2.5662,2.5688,2.5674,2.5698,2.57,2.57,2.5703,2.5701,2.57,2.5694,2.5666,3.8223,3.9067,4.0022,4.1305,4.1668,4.1415,4.0305,3.9791,3.9264,3.8316,3.7711,0.0,0.0,0.0,0.0,0.0,0.0,0.0,0.0,0.0,0.0,0.0,0.0,0.0,0.0,0.0,0.0,0.0,0.0,0.0,0.0,0.0,0.0,0.0,2.7269,2.6685,2.6384,2.5507,2.5087,2.5138,2.5135,2.5205,2.5345,2.5203,2.5208,2.5307,2.5376,2.5394,2.5437,2.5898,2.5853,2.5544,2.6,2.5918,2.5535,2.5547,2.5576,2.5591,2.5591,2.5593,2.5615,2.5644,2.5624,2.5599,2.5597,2.5604,2.5593,2.5594,2.5593,2.5597,2.5605,2.6562,2.7633,2.8086,2.8759,2.9549,3.0486,2.9938,2.9373,2.9877,2.9282,2.9008,2.9906,2.9386,2.8825,2.8828,2.8046,2.7809,2.8708,2.8786,2.8788,2.8826,2.8414,2.798,2.7613,2.6778,2.6263,2.6227,2.5866,2.5818,2.6165,2.622,2.6063,2.5719,2.5699,2.5698,2.5698,2.6095,2.6263,2.6281,2.6665,2.6823,3.802,3.9317,4.0528,4.161,4.188,4.1529,4.0189,3.9776,3.9314,3.8048,0.0,0.0,0.0,0.0,0.0,0.0,0.0,0.0,0.0,0.0,0.0,0.0,0.0,0.0,0.0,0.0,0.0,0.0,0.0,0.0,0.0,0.0,2.8368,2.7532,2.6764,2.6372,2.6386,2.562,2.5279,2.5341,2.532,2.541,2.5506,2.5395,2.5372,2.5446,2.5496,2.5529,2.552,2.5524,2.5661,2.5835,2.5652,2.5735,2.5899,2.5693,2.5641,2.5689,2.564,2.5616,2.5619,2.567,2.566,2.5605,2.5605,2.5605,2.5604,2.5602,2.5603,2.5602,2.5599,2.678,2.8001,2.8166,2.8828,2.9673,3.0599,3.0792,3.0794,3.0792,3.0208,2.9883,3.0488,2.9971,2.9486,2.9502,2.9379,2.9388,2.9684,3.0228,3.0358,2.9782,2.9583,2.9183,2.8464,2.7602,2.7075,2.707,2.6404,2.6281,2.6951,2.6944,2.6647,2.6033,2.6071,2.6098,2.6096,2.6762,2.7084,2.7082,2.7759,2.8068,3.5214,3.7499,4.005,4.1117,4.1383,4.119,0.0,0.0,3.9138,0.0,0.0,0.0,0.0,0.0,0.0,0.0,0.0,0.0,0.0,0.0,0.0,0.0,0.0,0.0,0.0,0.0,0.0,0.0,0.0,0.0,0.0,2.9019,2.8338,2.6809,2.6626,2.6246,2.5578,2.5436,2.5418,2.5476,2.5476,2.5511,2.5593,2.5573,2.5559,2.5576,2.5589,2.559,2.5584,2.5653,2.6129,2.6737,2.5921,2.6105,2.6736,2.5976,2.5683,2.5699,2.568,2.5681,2.568,2.5638,2.5614,2.5591,2.5594,2.5592,2.5605,2.5591,2.5606,2.5598,2.5593,2.6325,2.7262,2.803,2.8863,2.9727,3.0605,3.0801,3.0801,3.08,3.0657,3.0364,2.9768,2.9535,2.9421,2.9492,2.8868,2.8926,3.0422,3.0063,2.9918,3.0557,2.9907,2.938,2.9257,2.8394,2.7826,2.7765,2.7657,2.7615,2.7661,2.755,2.7451,2.7352,2.7574,2.7688,2.7694,2.7791,2.7821,2.7765,2.7884,2.7928,3.5699,3.8083,4.009,4.0611,4.0793,4.0671,3.9959,3.956,3.9088,0.0,0.0,0.0,0.0,0.0,0.0,0.0,0.0,0.0,0.0,0.0,0.0,0.0,0.0,0.0,0.0,0.0,0.0,0.0,0.0,0.0,2.9207,2.8734,2.7947,2.6742,2.6235,0.0,2.5518,2.5514,2.5523,2.5551,2.5587,2.563,2.5653,2.566,2.566,2.5662,2.5655,2.5651,2.5662,2.5682,2.5937,2.623,2.582,2.5917,2.6225,2.5835,2.5675,2.5647,2.5647,2.5647,2.5646,2.5616,2.5602,2.5605,2.5601,2.557,2.5535,2.5534,2.5549,2.554,2.5538,2.6553,2.7676,2.8054,2.9211,3.0332,3.0713,3.08,3.0782,3.0753,3.0722,3.0586,3.0183,3.0085,3.0085,3.0121,2.9816,2.988,3.0656,3.0414,3.0327,3.0697,3.0302,3.0013,3.0013,2.9119,2.8544,2.8527,2.803,2.7903,2.8281,2.8248,2.8424,2.8884,2.812,2.7725,2.7715,2.818,2.8381,2.835,2.8817,2.902,3.5679,3.7654,3.8883,3.9602,4.0024,4.0137,0.0,0.0,0.0,0.0,0.0,0.0,0.0,0.0,0.0,0.0,0.0,0.0,0.0,0.0,0.0,0.0,0.0,0.0,0.0,0.0,0.0,0.0,0.0,0.0,2.9377,2.8493,2.7658,2.684,2.5979,2.5551,2.5615,2.5623,2.5627,2.5627,2.5682,2.5693,2.5694,2.5703,2.5703,2.57,2.57,2.5703,2.5697,2.5698,2.5811,2.5975,2.5766,2.5801,2.5984,2.5768,2.5647,2.5603,2.5579,2.5577,2.5575,2.5574,2.5569,2.5577,2.5562,2.5541,2.5495,2.5478,2.5475,2.5467,2.5476,2.6602,2.7792,2.8013,2.9275,3.0481,3.0733,3.0793,3.0776,3.0695,3.0675,3.0649,3.0565,3.0543,3.0548,3.0571,3.0599,3.063,3.0656,3.0638,3.0719,3.0936,3.0645,3.0545,3.0772,2.9877,2.9307,2.927,2.8626,2.8462,2.8989,2.8966,2.9223,2.9811,2.8593,2.799,2.8082,2.8695,2.8966,2.8962,2.9526,2.9788,3.3414,3.4482,3.5218,3.7766,3.9038,3.9691,0.0,0.0,0.0,0.0,0.0,0.0,0.0,0.0,0.0,0.0,0.0,0.0,0.0,0.0,0.0,0.0,0.0,0.0,0.0,0.0,0.0,0.0,0.0,0.0,2.9434,2.8565,2.7736,2.6919,2.6052,2.5633,2.5684,2.5685,2.5685,2.5685,2.5699,2.5702,2.5702,2.5702,2.5696,2.5704,2.5693,2.5691,2.5701,2.5694,2.6155,2.677,2.5933,2.6106,2.6736,2.5917,2.5609,2.5585,2.554,2.5511,2.5508,2.5512,2.5508,2.5506,2.5503,2.5511,2.5492,2.5414,2.5406,2.5417,2.5416,2.608,2.6981,2.7815,2.8714,2.9641,3.0595,3.0808,3.0751,3.0625,3.0614,3.0563,3.0428,3.0403,3.0436,3.0511,3.0442,3.0441,3.0501,3.0442,3.0733,3.1551,3.0843,3.0673,3.1559,3.072,3.0105,3.0047,3.0011,2.9935,2.9845,2.9713,2.9635,2.9626,2.9359,2.9363,2.9685,2.9723,2.9719,2.9651,2.9551,2.9495,3.2182,3.3175,3.4027,3.5611,3.671,3.7451,3.7565,0.0,0.0,0.0,0.0,0.0,0.0,0.0,0.0,0.0,0.0,0.0,0.0,0.0,0.0,0.0,0.0,0.0,0.0,0.0,0.0,0.0,0.0,0.0,3.0314,2.946,2.8631,2.7825,2.6953,2.6241,2.5702,2.5703,2.5976,2.6521,2.5973,2.5968,2.646,2.5892,2.5636,2.564,2.5646,2.5648,2.5648,2.5638,2.5801,2.6021,2.572,2.5768,2.5951,2.5659,2.555,2.5538,2.5511,2.5501,2.5494,2.5445,2.543,2.5437,2.5432,2.5438,2.5425,2.536,2.5341,2.5341,2.5346,2.5972,2.7007,2.8479,2.9479,3.0175,3.0539,3.0634,3.0653,3.061,3.054,3.046,3.0411,3.0336,3.0279,3.0309,3.0316,3.0336,3.0371,3.084,3.1302,3.1602,3.1757,3.1741,3.1536,3.1096,3.0554,2.9901,2.9851,2.9773,2.9645,2.956,2.9492,2.946,2.9409,2.9411,2.9482,2.9434,2.9363,2.9241,2.9198,2.8827,3.1202,3.1987,3.2862,3.4389,3.5086,3.5638,3.6585,0.0,0.0,0.0,0.0,0.0,0.0,0.0,0.0,0.0,0.0,0.0,0.0,0.0,0.0,0.0,0.0,0.0,0.0,0.0,0.0,0.0,0.0,0.0,3.0803,2.9987,2.9016,2.7908,2.7304,2.6561,2.5675,2.5694,2.5989,2.656,2.5951,2.5959,2.6479,2.5868,2.5603,2.56,2.5587,2.5571,2.5605,2.5598,2.5582,2.5579,2.5573,2.5716,2.5897,2.5586,2.5653,2.5858,2.5577,2.5468,2.5464,2.5421,2.538,2.5378,2.537,2.5351,2.5313,2.5288,2.5268,2.5329,2.556,2.6507,2.7671,2.8886,2.9804,3.0427,3.0433,3.0482,3.0525,3.0472,3.0403,3.0348,3.0299,3.024,3.0161,3.0207,3.0226,3.0348,3.0636,3.1153,3.1734,3.2337,3.2546,3.2393,3.1821,3.1377,3.0729,2.9766,2.971,2.9645,2.954,2.9501,2.9451,2.9399,2.9388,2.9368,2.9336,2.9294,2.9178,2.9026,2.9003,2.8594,0.0,0.0,0.0,0.0,0.0,0.0,3.7058,0.0,0.0,0.0,0.0,0.0,0.0,0.0,0.0,0.0,0.0,0.0,0.0,0.0,0.0,0.0,0.0,0.0,0.0,0.0,0.0,0.0,0.0,3.0797,3.0797,3.0019,2.8768,2.7056,2.6983,2.6521,2.5614,2.5663,2.5711,2.5776,2.5644,2.5654,2.5767,2.5651,2.5604,2.5596,2.5535,2.5531,2.5595,2.5598,2.556,2.5492,2.5526,2.6052,2.6683,2.5789,2.6009,2.662,2.5771,2.5464,2.5464,2.5444,2.5389,2.5322,2.5303,2.5248,2.5206,2.5206,2.5206,2.5376,2.6117,2.7573,2.8854,2.8893,2.9615,3.0286,3.0292,3.0346,3.0353,3.0222,3.0247,3.0246,3.0125,3.0095,3.0117,3.019,3.0159,3.0422,3.1271,3.1371,3.2041,3.3807,3.313,3.2514,3.2492,3.1577,3.0611,2.9748,2.972,2.9692,2.9598,2.9607,2.9539,2.9402,2.9332,2.9332,2.9392,2.9399,2.9283,2.9089,2.8996,2.8821,2.978,0.0,0.0,0.0,0.0,0.0,0.0,0.0,0.0,0.0,0.0,0.0,0.0,0.0,0.0,0.0,0.0,0.0,0.0,0.0,0.0,0.0,0.0,0.0,0.0,0.0,0.0,0.0,3.0879,3.0859,3.0798,2.9447,2.8151,2.7044,2.6395,2.5935,2.5664,2.5634,2.626,2.7482,2.6162,2.6207,2.7381,2.6104,2.5524,2.5527,2.5503,2.5488,2.5464,2.5518,2.5491,2.5488,2.6114,2.6515,2.6777,2.7093,2.7359,2.7533,2.7292,2.721,2.7104,2.6477,2.6259,2.6104,2.5428,2.5204,2.5189,2.5136,2.5131,2.5291,2.6045,2.7055,2.8034,2.8622,2.9398,3.0015,3.0015,3.0038,3.0059,3.0176,3.0187,3.0123,3.0046,3.0002,2.9953,2.9918,3.0394,3.0856,3.1143,3.227,3.3245,3.38,3.3567,3.3098,3.24,3.1478,3.0537,2.9607,3.01,3.0134,2.949,2.9967,2.9951,2.9344,2.9315,2.9286,2.9265,2.9262,2.9149,2.8948,2.8082,2.7996,2.9451,2.9617,2.9839,0.0,0.0,0.0,3.2962,3.3127,0.0,0.0,0.0,0.0,0.0,0.0,0.0,0.0,0.0,0.0,0.0,0.0,0.0,0.0,0.0,0.0,0.0,0.0,0.0,0.0,3.0856,3.0831,3.0795,2.9869,2.8939,2.8065,2.7203,2.6723,2.6697,2.5962,2.647,2.8187,2.6369,2.6414,2.8045,2.6269,2.567,2.6022,2.5626,2.5432,2.5427,2.5799,2.5741,2.5524,2.6769,2.7247,2.7291,2.774,2.813,2.8385,2.7967,2.78,2.7689,2.7182,2.7005,2.6878,2.632,2.6187,2.6181,2.6117,2.6303,2.6558,2.6667,2.754,2.8463,2.8619,2.9239,2.9792,2.9857,2.9813,2.9839,3.0007,3.0015,3.0007,2.9934,2.9885,2.9842,2.9808,3.0204,3.0637,3.1049,3.2277,3.326,3.3666,3.3951,3.3742,3.2805,3.2198,3.146,3.0514,3.0575,3.0591,3.0413,3.0174,2.9964,2.9802,2.9802,2.978,2.9695,2.9421,2.9214,2.9056,2.8269,2.8191,2.9349,2.9605,3.0029,0.0,0.0,0.0,3.3255,3.3231,3.3203,0.0,0.0,0.0,0.0,0.0,0.0,0.0,0.0,0.0,0.0,0.0,0.0,0.0,0.0,0.0,0.0,0.0,3.0976,3.0815,3.081,3.0756,3.0663,3.0667,3.0261,2.9377,2.8593,2.817,2.8107,2.6634,2.666,2.8167,2.6446,2.6431,2.7896,2.6276,2.6,2.6746,2.6008,2.5615,2.5609,2.6521,2.6347,2.5706,2.7455,2.8111,2.8116,2.8164,2.8655,2.9184,2.8297,2.7924,2.7853,2.7743,2.7697,2.7618,2.7542,2.7542,2.7573,2.7497,2.7918,2.8242,2.7668,2.8535,2.9401,2.8822,2.9155,2.9636,2.9727,2.9663,2.9636,2.9736,2.9825,2.9878,2.9799,2.979,2.9782,2.9773,2.9923,3.0337,3.1117,3.1987,3.2845,3.363,3.4201,3.4202,3.3363,3.313,3.265,3.173,3.1162,3.1069,3.1504,3.0408,2.9993,3.0476,3.0465,3.0431,3.0404,2.9707,2.9339,2.928,2.901,2.8929,0.0,0.0,0.0,0.0,0.0,0.0,3.1852,3.1405,3.1339,0.0,0.0,0.0,0.0,0.0,0.0,0.0,0.0,0.0,0.0,0.0,0.0,0.0,0.0,0.0,0.0,0.0,3.1567,3.0858,3.0798,3.0481,2.9781,2.9747,2.9341,2.8487,2.829,2.819,2.8187,2.7796,2.7785,2.8107,2.7009,2.6648,2.6951,2.6553,2.6477,2.6665,2.7185,2.7005,2.6495,2.8051,2.7733,2.6465,2.826,2.8904,2.8896,2.9635,2.9952,2.9984,2.9773,2.9622,2.9417,2.8707,2.8517,2.8417,2.7709,2.7519,2.7512,2.7438,2.7463,2.7652,2.8142,2.8477,2.8745,2.9157,2.9438,2.9569,2.9434,2.9512,2.9589,2.956,2.9691,2.979,2.9729,2.971,2.9683,2.957,3.0711,3.1648,3.1878,3.3173,3.4159,3.4381,3.3864,3.3414,3.3242,3.2527,3.1723,3.0883,3.1905,3.1715,2.986,3.1286,3.1572,3.0369,3.0293,3.0304,3.0404,2.9507,2.9108,2.9141,2.8975,2.8917,0.0,0.0,0.0,2.9794,0.0,0.0,0.0,3.1213,3.1383,3.2781,0.0,0.0,0.0,0.0,0.0,0.0,0.0,0.0,0.0,0.0,0.0,0.0,0.0,0.0,0.0,0.0,3.1747,3.087,3.0774,3.057,3.013,3.0092,2.9901,2.9467,2.8605,2.8566,2.9447,2.7694,2.745,2.8736,2.7357,2.7153,2.7987,2.7475,2.7463,2.7848,2.786,2.7602,2.7292,2.8604,2.8601,2.7877,2.9264,2.9498,2.9166,3.0079,3.0318,3.0194,3.0111,3.0015,2.9829,2.938,2.9242,2.9168,2.8769,2.8618,2.8601,2.8596,2.8556,2.8505,2.8495,2.8698,2.8885,2.8856,2.946,3.0035,2.9967,3.0344,3.0702,3.0733,3.0824,3.0743,3.0291,3.0206,3.0318,3.0698,3.1453,3.2006,3.2056,3.3071,3.3818,3.384,3.3754,3.3708,3.3708,3.3243,3.2757,3.2368,3.2326,3.192,3.109,3.1406,3.1561,3.1501,3.0962,3.0729,3.0748,3.0277,2.9691,2.9055,2.8952,2.8893,0.0,0.0,0.0,0.0,0.0,3.0292,0.0,0.0,0.0,3.2378,0.0,0.0,0.0,0.0,0.0,0.0,0.0,0.0,0.0,0.0,0.0,0.0,0.0,0.0,0.0,0.0,3.1553,3.0835,3.0739,3.0704,3.0706,3.0711,3.0696,3.0673,2.9323,2.9187,3.044,2.7633,2.7137,2.8881,2.7398,2.741,2.8786,2.8163,2.8321,2.9077,2.8518,2.8201,2.8101,2.8961,2.918,2.9085,3.0033,2.9956,2.9384,3.0093,3.0273,3.0121,3.0019,2.9888,2.9782,2.9782,2.9737,2.9719,2.9782,2.9754,2.9717,2.9773,2.9738,2.9523,2.8865,2.9045,2.9255,2.8641,2.9539,3.0553,3.057,3.1239,3.1846,3.1941,3.1963,3.1739,3.1059,3.0928,3.1171,3.187,3.2093,3.2187,3.2187,3.284,3.3308,3.3308,3.3819,3.4185,3.4185,3.4124,3.4,3.3839,3.2718,3.2189,3.2496,3.1403,3.144,3.2829,3.1934,3.1396,3.1311,3.1157,3.0314,2.8887,2.9028,2.8968,0.0,0.0,0.0,0.0,3.0301,0.0,0.0,0.0,3.0452,3.0722,0.0,0.0,0.0,0.0,0.0,0.0,0.0,0.0,0.0,0.0,0.0,0.0,0.0,0.0,0.0,0.0,0.0,3.0728,3.0707,3.0701,3.0704,3.07,3.0669,3.061,3.0412,3.0067,2.9548,2.9101,2.828,2.7098,2.676,2.6747,2.7016,2.7561,2.829,2.9133,2.9755,2.959,2.8932,2.98,2.9679,2.9018,3.0004,3.0241,3.0004,3.0163,3.0111,2.9929,2.9918,2.9808,2.9701,2.9701,2.971,2.9708,2.9771,2.9754,2.9699,2.971,2.9655,2.9579,2.9438,2.9446,2.9444,2.9223,2.9953,3.0652,3.0542,3.1236,3.1875,3.1835,3.1816,3.1808,3.1767,3.1759,3.1786,3.1816,3.2418,3.2883,3.2883,3.3589,3.4079,3.4079,3.4093,3.4111,3.4111,3.4049,3.3671,3.2907,3.3355,3.2996,3.1534,3.1908,3.2566,3.3389,3.2652,3.2192,3.2067,3.1365,3.0116,2.8479,2.937,2.9334,0.0,0.0,0.0,0.0,0.0,0.0,3.0027,0.0,3.0194,0.0,0.0,0.0,0.0,0.0,0.0,0.0,0.0,0.0,0.0,0.0,0.0,0.0,0.0,0.0,0.0,0.0,0.0,0.0,0.0,3.0672,3.0641,3.0604,3.0591,3.0608,3.007,2.9891,3.0089,2.9068,2.8455,2.8236,2.7634,2.7624,2.8164,2.8395,2.895,2.9756,3.0093,3.0008,2.9672,3.0032,2.9947,2.9629,3.0023,3.0109,3.0042,3.006,3.0,2.9907,2.9893,2.9809,2.9692,2.9617,2.9636,2.9699,2.9692,2.9664,2.9626,2.9598,2.954,2.9491,2.9492,2.9795,3.0076,3.0065,3.1032,3.1968,3.1888,3.2595,3.3217,3.3206,3.3187,3.3194,3.3182,3.2816,3.269,3.3131,3.3473,3.3684,3.3647,3.3926,3.4124,3.4086,3.4061,3.4023,3.3985,3.3921,3.3713,3.3316,3.3116,3.2697,3.1973,3.2242,3.2748,3.3491,3.3168,3.2651,3.1974,3.2133,3.1275,2.9519,3.0096,3.012,2.8919,0.0,0.0,0.0,0.0,0.0,0.0,0.0,0.0,0.0,0.0,0.0,0.0,0.0,0.0,0.0,0.0,0.0,0.0,0.0,0.0,0.0,0.0,0.0,0.0,0.0,0.0,0.0,3.0894,0.0,3.0591,3.0728,3.0733,3.0545,2.9882,2.9747,3.0211,2.896,2.8531,2.8912,2.8232,2.8356,2.917,2.9025,2.9404,3.0161,3.0171,3.0147,3.0102,3.011,3.0068,3.0038,2.998,2.9948,2.9924,2.9967,2.9916,2.9857,2.9842,2.9765,2.9645,2.9492,2.9541,2.9664,2.9589,2.956,2.955,2.9482,2.959,2.9746,2.9797,3.0307,3.082,3.0898,3.1911,3.2871,3.2895,3.3549,3.4148,3.4148,3.4148,3.4136,3.4086,3.3654,3.3486,3.4056,3.4148,3.4124,3.4086,3.4061,3.4023,3.3947,3.3908,3.3855,3.3807,3.3694,3.3597,3.3512,3.29,3.2567,3.2534,3.2548,3.2824,3.3342,3.3316,3.2922,3.2133,3.2752,3.234,3.0987,3.0996,3.0811,0.0,0.0,0.0,2.9351,0.0,0.0,0.0,0.0,2.9798,0.0,0.0,0.0,0.0,0.0,2.8201,2.8247,2.8328,0.0,0.0,0.0,0.0,0.0,0.0,0.0,0.0,0.0,0.0,0.0,3.1374,0.0,3.0553,3.1237,3.1287,3.0435,3.0381,2.9993,2.9247,2.9196,2.8743,2.7943,2.7916,2.8321,2.9094,2.8964,2.9331,3.0101,3.0098,3.0102,3.0102,3.0106,3.0015,2.9916,2.9897,2.9822,2.9726,2.9859,2.9815,2.9708,2.971,2.9655,2.9578,2.9373,2.9443,2.9598,2.9512,2.9502,2.9482,2.9423,2.9956,3.0564,3.0567,3.1073,3.1596,3.1723,3.2302,3.2822,3.2883,3.3475,3.4011,3.4011,3.4011,3.4011,3.3998,3.4043,3.4049,3.4011,3.4011,3.4011,3.3998,3.3947,3.3868,3.3802,3.3684,3.3591,3.352,3.3342,3.316,3.3021,3.299,3.2943,3.2896,3.2943,3.2993,3.3028,3.3088,3.307,3.2959,3.2995,3.2916,3.27,3.2072,3.1285,0.0,0.0,2.749,2.8218,0.0,0.0,0.0,0.0,0.0,0.0,0.0,0.0,0.0,0.0,2.7287,2.7339,2.7391,2.7441,0.0,0.0,0.0,0.0,0.0,0.0,0.0,0.0,0.0,3.1416,3.169,3.1679,0.0,3.1503,3.125,3.0423,3.0359,3.0223,2.9993,2.9985,2.986,2.9611,2.8997,2.9131,2.9944,2.9232,2.9341,3.0101,3.0061,3.0014,2.9964,2.9975,2.9943,2.9893,2.9796,2.9744,2.9708,2.9746,2.9738,2.9673,2.955,2.9453,2.9384,2.9314,2.9373,2.9461,2.9399,2.9401,2.9504,2.9828,3.0209,3.0646,3.1131,3.1836,3.2416,3.2499,3.3062,3.3592,3.3617,3.3807,3.3985,3.3947,3.3895,3.3829,3.3753,3.3712,3.3766,3.3908,3.3934,3.3895,3.3802,3.3739,3.3671,3.3619,3.352,3.3437,3.3382,3.3226,3.3086,3.293,3.3026,3.2945,3.2721,3.293,3.2977,3.28,3.2945,3.2979,3.287,3.287,3.287,3.2852,3.2585,3.2222,2.6213,2.6232,0.0,0.0,2.7508,0.0,2.8521,0.0,0.0,0.0,0.0,0.0,0.0,0.0,2.6357,2.6431,2.6491,2.6757,0.0,2.8316,0.0,0.0,0.0,0.0,0.0,0.0,3.1042,3.2203,3.2254,3.221,0.0,0.0,3.1655,3.0816,3.0452,3.0286,3.0336,3.0354,3.0371,3.0383,2.978,2.9762,3.0273,2.9617,2.9577,3.0034,2.9988,2.994,2.9891,2.9893,2.9868,2.9815,2.9735,2.9699,2.9691,2.9673,2.9626,2.954,2.9351,2.9299,2.9299,2.927,2.9312,2.9343,2.9275,2.9315,2.9429,2.9715,3.0309,3.0962,3.1468,3.2373,3.3159,3.321,3.3552,3.3842,3.3834,3.3788,3.378,3.3726,3.3684,3.3633,3.3534,3.3477,3.352,3.3698,3.3726,3.3684,3.3605,3.3534,3.3466,3.3375,3.3304,3.3214,3.3124,3.3344,3.3267,3.2789,3.3134,3.3103,3.259,3.277,3.2818,3.267,3.2802,3.2836,3.2807,3.2807,3.2821,3.2852,3.274,3.2625]}]]